     2              OBSERVATION DATA    GPS                 RINEX VERSION / TYPE
teqc 1997Jul24 19970814                                     PGM / RUN BY / DATE
                                                            COMMENT
BIT 2 OF LLI FLAGS DATA COLLECTED UNDER A-S CONDITION       COMMENT
BIT 2 OF LLI FLAGS DATA COLLECTED UNDER A-S CONDITION       COMMENT
Original Marker Name: 0820                                  COMMENT
Campaign Name: hpgn california 1991                         COMMENT
4-Character Station Name: 0820                              COMMENT
6-Character Antenna Code: TRMSST                            COMMENT
Vertical Measurement Point: BPA                             COMMENT
Vertical Offset to Rinex Ref. Point: 0.0000                 COMMENT
Radial Measurement Point: RRP                               COMMENT
Radial Offset to Rinex Ref. Point: 0.0000                   COMMENT
Antenna Height from Field Measurement: 2.2200 m             COMMENT
Original XYZ: -2420587.6914 -4733042.4588 3513109.3022      COMMENT
New XYZ position is based on association with SCEC monument COMMENT
E1D0F9J4+0011. Position of that monument is believed to be  COMMENT
valid to within 1 m horizontally; vertical accuracy         COMMENT
should be no worse than 3-times this value.                 COMMENT
                                                            COMMENT
Revised Rinex header created by UCSD GPS archive for        COMMENT
GSAC on 12-Apr-1999 (1999:102) 04:34:51 GMT                 COMMENT
For assistance contact dagnew@ucsd.edu or hjohnson@ucsd.edu COMMENT
                                                            COMMENT
DASH 1972                                                   MARKER NAME
unknown CALIF DEPT TRANSPORTATION                           OBSERVER / AGENCY
621 TRIMBLE 4000 SST NP 4.30 / SP 4.20                      REC # / TYPE / VERS
9 TR 4000SST L1/L2 GEO                                      ANT # / TYPE
 -2420587.0000 -4733049.0000  3513111.0000                  APPROX POSITION XYZ
        2.2200        0.0000        0.0000                  ANTENNA: DELTA H/E/N
     1     1     0                                          WAVELENGTH FACT L1/2
     3    C1    L1    L2                                    # / TYPES OF OBSERV
     0                                                      INTERVAL
  1991     4    12    20    43   15.000000                  TIME OF FIRST OBS
  1991     4    13     2    45   60.000000                  TIME OF LAST OBS
     0                                                      # OF SATELLITES
                                                            END OF HEADER
 91  4 12 20 43 15.0000000  0  4G19G 2G11G18
  21019268.328          -0.46817        -0.09732
  23793421.016          -0.17515        -0.15331
  23659781.4384         -0.40256        -0.29371
  20758474.7034         -0.21958
 91  4 12 20 43 30.0000000  0  4G19G 2G11G18
  21017007.1334     -11891.33046     -9265.69962
  23783033.945      -54590.292 6    -42537.67621
  23652572.359      -37892.210 6    -29526.26621
  20760222.1174       9184.00448
 91  4 12 20 43 45.0000000  0  4G19G 2G11G18
  21014745.6644     -23770.78747    -18522.40762
  23772649.891     -109159.789 5    -85059.21421
  23645373.2114     -75709.99546    -58994.56961
  20761984.945       18453.079 8
 91  4 12 20 44  0.0000000  0  4G19G 2G11G18
  21012491.0004     -35630.62846    -27763.83362
  23762270.3754    -163700.57946   -127558.31761
  23638193.5634    -113445.21646    -88398.49761
  20763766.352       27814.644 8
 91  4 12 20 44 15.0000000  0  4G19G 2G11G18
  21010237.8134     -47459.82047    -36981.37862
  23751901.797     -218201.398 6   -170026.31121
  23631029.125     -151086.436 6   -117729.21421
  20765568.5084      37279.97548        -0.00373
 91  4 12 20 44 30.0000000  0  4G19G 2G11G18
  21007997.7974     -59251.94546    -46170.03762
  23741535.391     -272655.389 6   -212457.80621
  23623885.9534    -188626.77246   -146981.29961
  20767390.5634      46855.67748      7461.54163
 91  4 12 20 44 45.0000000  0  4G19G 2G11G18
  21005755.4534     -71010.89447    -55332.84862
  23731183.813     -327066.324 6   -254855.73221
  23616760.6094    -226069.73846   -176157.51761
  20769232.7734      56537.65148     15005.89863
 91  4 12 20 45  0.0000000  0  4G19G 2G11G18
  21003526.9534     -82731.41346    -64465.70962
  23720839.914     -381428.852 6   -297215.96121
  23609654.4454    -263409.85946   -205253.59261
  20771096.7424      66331.04548     22637.07763
 91  4 12 20 45 15.0000000  0  4G19G 2G11G18
  21001301.6884     -94411.28747    -73566.91062
  23710500.727     -435740.630 6   -339536.62621
  23602570.484     -300644.687 6   -234267.64021
  20772982.5234      76237.86748     30356.64263
 91  4 12 20 45 30.0000000  0  4G19G 2G11G18
  20999092.7034    -106044.46746    -82631.71662
  23700177.8364    -489995.60546   -381813.05261
  23595506.5234    -337767.74846   -263194.57561
  20774890.1954      86264.23448     38169.35163
 91  4 12 20 45 45.0000000  0  4G19G 2G11G18
  20996884.4774    -117634.71647    -91663.07162
  23689864.125     -544197.285 6   -424047.95921
  23588461.9384    -374782.46446   -292037.08661
  20776820.3284      96406.68048     46072.52263
 91  4 12 20 46  0.0000000  0  4G19G 2G11G18
  20994691.7974    -129183.60546   -100662.19862
  23679558.0784    -598347.17245   -466242.47661
  23581439.0394    -411690.10046   -320796.16461
  20778771.7894     106663.23148     54064.60163
 91  4 12 20 46 15.0000000  0  4G19G 2G11G18
  20992495.6564    -140688.46146   -109627.00962
  23669266.789     -652442.432 6   -508394.45821
  23574434.7344    -448487.58246   -349469.40261
  20780745.5634     117036.71548     62147.79563
 91  4 12 20 46 30.0000000  0  4G19G 2G11G18
  20990319.5864    -152152.42146   -118559.95462
  23658981.7974    -706485.77946   -550505.98261
  23567454.391     -485177.497 6   -378058.83421
  20782740.8834     127523.86748     70319.56663
 91  4 12 20 46 45.0000000  0  4G19G 2G11G18
  20988142.6884    -163570.62046   -127457.25062
  23648708.9454    -760472.38846   -592573.27061
  23560494.7734    -521754.92946   -406560.61261
  20784759.7584     138129.60148     78583.73763
 91  4 12 20 47  0.0000000  0  4G19G 2G11G18
  20985983.2584    -174941.97946   -136318.03862
  23638446.977     -814400.879 6   -634595.30921
  23553554.6024    -558218.31046   -434973.51261
  20786802.8914     148854.79048     86940.99263
 91  4 12 20 47 15.0000000  0  4G19G 2G11G18
  20983822.8674    -186263.76846   -145140.20062
  23628194.0784    -868268.39046   -676569.80661
  23546637.0394    -594564.51046   -463295.10361
  20788865.6884     159702.21148     95393.48863
 91  4 12 20 47 30.0000000  0  4G19G 2G11G18
  20981681.273     -197545.500 6   -153931.15022
  23617952.867     -922084.162 6   -718504.00321
  23539740.461     -630802.726 6   -491532.55821
  20790950.3204     170662.18548    103933.68863
 91  4 12 20 47 45.0000000  0  4G19G 2G11G18
  20979538.3674    -208779.26146   -162684.72262
  23607725.352     -975840.483 6   -760391.87521
  23532869.5234    -666924.89646   -519679.59161
  20793058.5704     181742.60247    112567.74463
 91  4 12 20 48  0.0000000  0  4G19G 2G11G18
  20977413.9454    -219961.80746   -171398.38562
  23597504.828    -1029533.782 6   -802230.61221
  23526016.523     -702927.332 6   -547733.32521
  20795191.2664     192946.87848    121298.31363
 91  4 12 20 48 15.0000000  0  4G19G 2G11G18
  20975293.4614    -231094.09646   -180072.88862
  23587301.7424   -1083164.98046   -844021.00661
  23519187.914     -738810.635 6   -575694.22821
  20797348.1564     204273.94848    130124.56063
 91  4 12 20 48 30.0000000  0  4G19G 2G11G18
  20973184.2894    -242175.64046   -188707.85362
  23577107.2114   -1136733.52446   -885762.55561
  23512384.258     -774574.054 6   -603561.72121
  20799527.2664     215723.95748    139046.60363
 91  4 12 20 48 45.0000000  0  4G19G 2G11G18
  20971084.3834    -253211.05746   -197306.86962
  23566923.6724   -1190243.58946   -927458.51961
  23505598.7584    -810221.71246   -631338.99161
  20801727.141      227292.642 8    148061.11823
 91  4 12 20 49  0.0000000  0  4G19G 2G11G18
  20968995.094     -264190.986 6   -205862.64622
  23556755.5474   -1243685.82946   -969101.67961
  23498839.8284    -845743.98846   -659018.57161
  20803953.3754     238989.09548    157175.19363
 91  4 12 20 49 15.0000000  0  4G19G 2G11G18
  20966914.4384    -275118.50646   -214377.58762
  23546597.4774   -1297063.06246  -1010694.14061
  23492103.023     -881143.698 6   -686602.65821
  20806202.7194     250810.16648    166386.37963
 91  4 12 20 49 30.0000000  0  4G19G 2G11G18
  20964845.7664    -285999.34446   -222856.15262
  23536452.664    -1350381.002 6  -1052240.42521
  23485388.414     -916426.349 6   -714095.52221
  20808474.547      262750.033 8    175690.13123
 91  4 12 20 49 45.0000000  0  4G19G 2G11G18
  20962783.1414    -296832.42146   -231297.50062
  23526316.500    -1403638.358 6  -1093739.49121
  23478697.6414    -951590.35346   -741495.92561
  20810770.758      274810.057 8    185087.50323
 91  4 12 20 50  0.0000000  0  4G19G 2G11G18
  20960734.0234    -307622.40546   -239705.27662
  23516193.391    -1456839.736 6  -1135194.94121
  23472025.336     -986640.014 6   -768807.23921
  20813087.250      286985.293 8    194574.65423
 91  4 12 20 50 15.0000000  0  4G19G 2G11G18
  20958685.1564    -318366.22146   -248077.06762
  23506081.070    -1509981.690 6  -1176604.09721
  23465379.672    -1021571.972 6   -796026.84121
  20815426.172      299278.693 8    204153.88123
 91  4 12 20 50 30.0000000  0  4G19G 2G11G18
  20956651.3834    -329063.70146   -256412.76262
  23495977.813    -1563064.057 6  -1217966.82021
  23458756.8204   -1056385.76246   -823154.33761
  20817788.078      311690.460 8    213825.34523
 91  4 12 20 50 45.0000000  0  4G19G 2G11G18
  20954623.6954    -339714.04546   -264711.72262
  23485889.9064   -1616085.81346  -1259282.31061
  23452153.156    -1091080.083 6   -850188.77021
  20820172.3134     324221.43747    223589.70163
 91  4 12 20 51  0.0000000  0  4G19G 2G11G18
  20952607.2194    -350315.88446   -272972.88662
  23475809.523    -1669045.559 6  -1300549.49021
  23445573.188    -1125653.395 6   -877128.90521
  20822581.070      336872.955 8    233447.98523
 91  4 12 20 51 15.0000000  0  4G19G 2G11G18
  20950597.4384    -360872.93846   -281199.14962
  23465744.3284   -1721946.91446  -1341771.13861
  23439015.9774   -1160109.29646   -903977.53961
  20825010.781      349640.907 8    243396.98823
 91  4 12 20 51 30.0000000  0  4G19G 2G11G18
  20948635.789     -371185.677 6   -289235.03822
  23455724.2194   -1774590.06646  -1382791.62661
  23432520.2034   -1194247.75646   -930578.80761
  20827500.531      362724.828 8    253592.20423
 91  4 12 20 51 45.0000000  0  4G19G 2G11G18
  20946694.6024    -381378.90646   -297177.81562
  23445732.742    -1827099.693 6  -1423708.04321
  23426060.031    -1228193.347 6   -957029.82121
  20830025.773      375999.971 7    263936.42523
 91  4 12 20 52  0.0000000  0  4G19G 2G11G18
  20944765.4844    -391519.53746   -305079.59362
  23435754.422    -1879542.585 6  -1464572.47621
  23419624.4924   -1262012.60446   -983382.37061
  20832575.680      389399.221 8    274377.35123
 91  4 12 20 52 15.0000000  0  4G19G 2G11G18
  20942844.0084    -401613.40846   -312944.93962
  23425785.2734   -1931924.27946  -1505389.22361
  23413212.109    -1295710.996 6  -1009640.74221
  20835148.789      402917.063 7    284910.69023
 91  4 12 20 52 30.0000000  0  4G19G 2G11G18
  20940932.8754    -411663.17646   -320775.92462
  23415826.727    -1984247.560 6  -1546160.44621
  23406822.0234   -1329291.00546  -1035806.86361
  20837743.023      416550.465 8    295534.07223
 91  4 12 20 52 45.0000000  0  4G19G 2G11G18
  20939029.1884    -421663.82846   -328568.63262
  23405882.8054   -2036507.24446  -1586882.12361
  23400455.5314   -1362747.21846  -1061876.52861
  20840360.008      430304.126 8    306251.15623
 91  4 12 20 53  0.0000000  0  4G19G 2G11G18
  20937138.7114    -431615.89446   -336323.48362
  23395949.5554   -2088703.64746  -1627554.49961
  23394114.758    -1396079.742 6  -1087849.81621
  20843000.469      444177.760 8    317061.72923
 91  4 12 20 53 15.0000000  0  4G19G 2G11G18
  20935249.1564    -441521.66946   -344042.26262
  23386030.703    -2140839.006 6  -1668179.27921
  23387792.969    -1429290.735 6  -1113728.39521
  20845661.078      458168.908 7    327963.86923
 91  4 12 20 53 30.0000000  0  4G19G 2G11G18
  20933375.4924    -451378.09746   -351722.58662
  23376118.7344   -2192909.98046  -1708753.92361
  23381498.094    -1462376.598 6  -1139509.48121
  20848348.719      472280.756 8    338960.06223
 91  4 12 20 53 45.0000000  0  4G19G 2G11G18
  20931508.7274    -461182.70146   -359362.53562
  23366223.063    -2244913.998 6  -1749276.37021
  23375226.617    -1495334.695 6  -1165191.01021
  20851057.352      486515.537 7    350052.04923
 91  4 12 20 54  0.0000000  0  4G19G 2G11G18
  20929652.7424    -470945.49746   -366969.90362
  23356338.9064   -2296861.14946  -1789754.51861
  23368974.039    -1528174.784 6  -1190780.57821
  20853787.750      500863.092 8    361231.90723
 91  4 12 20 54 15.0000000  0  4G19G 2G11G18
  20927801.1954    -480660.69246   -374540.18762
  23346466.172    -2348745.321 6  -1830183.59521
  23362749.328    -1560890.719 6  -1216273.40921
  20856540.508      515329.167 8    372504.12223
 91  4 12 20 54 30.0000000  0  4G19G 2G11G18
  20925964.7034    -490330.51646   -382075.10862
  23336603.6564   -2400568.55546  -1870565.18661
  23356548.125    -1593484.438 6  -1241671.01121
  20859315.672      529911.798 8    383867.15823
 91  4 12 20 54 45.0000000  0  4G19G 2G11G18
  20924130.1024    -499956.72646   -389576.04662
  23326754.023    -2452332.658 6  -1910900.69621
  23350368.109    -1625957.450 6  -1266974.55321
  20862112.344      544608.939 7    395319.42123
 91  4 12 20 55  0.0000000  0  4G19G 2G11G18
  20922309.1024    -509529.33446   -397035.21762
  23316915.2584   -2504027.60546  -1951182.31961
  23344213.836    -1658299.495 6  -1292176.04321
  20864932.758      559430.155 8    406868.36223
 91  4 12 20 55 15.0000000  0  4G19G 2G11G18
  20920494.7194    -519056.81946   -404459.22862
  23307091.039    -2555661.630 6  -1991416.47121
  23338080.547    -1690518.680 6  -1317281.78621
  20867775.688      574367.172 8    418507.54223
 91  4 12 20 55 30.0000000  0  4G19G 2G11G18
  20918696.4384    -528538.67946   -411847.69362
  23297275.102    -2607233.888 6  -2031602.49721
  23331975.7424   -1722614.26046  -1342291.23561
  20870639.219      589420.428 7    430237.29923
 91  4 12 20 55 45.0000000  0  4G19G 2G11G18
  20916895.2274    -537976.42946   -419201.78262
  23287474.6724   -2658745.84646  -2071741.52061
  23325888.6174   -1754587.35746  -1367205.24761
  20873525.000      604588.076 7    442056.18723
 91  4 12 20 56  0.0000000  0  4G19G 2G11G18
  20915108.2274    -547369.00346   -426520.67462
  23277683.391    -2710196.550 6  -2111832.82721
  23319829.727    -1786436.832 6  -1392022.91521
  20876434.242      619871.162 7    453965.03123
 91  4 12 20 56 15.0000000  0  4G19G 2G11G18
  20913330.3204    -556713.52346   -433802.11462
  23267904.805    -2761582.898 6  -2151873.99521
  23313793.695    -1818159.440 6  -1416741.71821
  20879365.3984     635272.49348    465966.00863
 91  4 12 20 56 30.0000000  0  4G19G 2G11G18
  20911561.7194    -566014.36746   -441049.52762
  23258138.0234   -2812909.14446  -2191868.32661
  23307780.7814   -1849759.24246  -1441364.84161
  20882316.7114     650787.70647    478055.72863
 91  4 12 20 56 45.0000000  0  4G19G 2G11G18
  20909799.6884    -575267.48646   -448259.74762
  23248382.5864   -2864171.06446  -2231812.52261
  23301789.883    -1881231.711 6  -1465888.73721
  20885292.125      666420.773 7    490237.28323
 91  4 12 20 57  0.0000000  0  4G19G 2G11G18
  20908050.6644    -584476.88046   -455435.89362
  23238638.3754   -2915372.45446  -2271709.56261
  23295824.2034   -1912580.62346  -1490316.36861
  20888289.203      682167.718 8    502507.57523
 91  4 12 20 57 15.0000000  0  4G19G 2G11G18
  20906303.5864    -593635.84646   -462572.75362
  23228908.3984   -2966506.59346  -2311554.20061
  23289884.133    -1943799.168 6  -1514642.40221
  20891307.5234     698034.81647    514871.49163
 91  4 12 20 57 30.0000000  0  4G19G 2G11G18
  20904570.0634    -602752.32346   -469676.49562
  23219188.1724   -3017581.22146  -2351352.45961
  23283965.906    -1974894.859 6  -1538872.71521
  20894348.695      714014.237 8    527322.93323
 91  4 12 20 57 45.0000000  0  4G19G 2G11G18
  20902842.0784    -611821.50846   -476743.38962
  23209483.664    -3068591.379 6  -2391100.48821
  23278073.344    -2005862.646 6  -1563003.35521
  20897412.445      730110.715 8    539865.58923
 91  4 12 20 58  0.0000000  0  4G19G 2G11G18
  20901131.3444    -620835.29146   -483767.11762
  23199791.2974   -3119529.02846  -2430792.00761
  23272205.445    -2036694.378 6  -1587027.97921
  20900499.5234     746331.94848    552505.45363
 91  4 12 20 58 15.0000000  0  4G19G 2G11G18
  20899421.0634    -629800.38146   -490752.89862
  23190108.805    -3170400.579 6  -2470432.03721
  23266363.789    -2067396.223 6  -1610951.38821
  20903608.461      762671.503 8    565237.51723
 91  4 12 20 58 30.0000000  0  4G19G 2G11G18
  20897730.1254    -638714.72146   -497699.13862
  23180442.4144   -3221203.98446  -2510018.95161
  23260549.0394   -2097965.89646  -1634771.81961
  20906740.617      779131.259 8    578063.24423
 91  4 12 20 58 45.0000000  0  4G19G 2G11G18
  20896038.3284    -647579.05346   -504606.40762
  23170784.023    -3271939.945 6  -2549553.31821
  23254754.6954   -2128403.96246  -1658489.71161
  20909895.906      795710.211 8    590981.85423
 91  4 12 20 59  0.0000000  0  4G19G 2G11G18
  20894365.2194    -656393.34346   -511474.68762
  23161144.1724   -3322608.28246  -2589034.99661
  23248986.695    -2158710.122 6  -1682104.79721
  20913072.6484     812408.15048    603993.17663
 91  4 12 20 59 15.0000000  0  4G19G 2G11G18
  20892692.9064    -665161.79746   -518307.24862
  23151513.9304   -3373212.93146  -2628467.05161
  23243245.0164   -2188888.26646  -1705620.13561
  20916272.2664     829221.06548    617094.09163
 91  4 12 20 59 30.0000000  0  4G19G 2G11G18
  20891038.6564    -673881.55846   -525101.85962
  23141898.2034   -3423750.92546  -2667847.14861
  23237526.1644   -2218935.09846  -1729033.16661
  20919494.4844     846151.70248    630286.73763
 91  4 12 20 59 45.0000000  0  4G19G 2G11G18
  20889384.4304    -682552.17146   -531858.17762
  23132292.188    -3474221.854 6  -2707175.00621
  23231833.5474   -2248849.95846  -1752343.35761
  20922738.1024     863200.42548    643571.39963
 91  4 12 21  0  0.0000000  0  4G19G 2G11G18
  20887745.6564    -691175.18046   -538577.40162
  23122700.5944   -3524627.00446  -2746451.59361
  23226167.031    -2278634.350 6  -1775551.87021
  20926004.8754     880365.31548    656946.58263
 91  4 12 21  0 15.0000000  0  4G19G 2G11G18
  20886108.9384    -699757.59046   -545264.98862
  23113118.4224   -3574973.49846  -2785682.47861
  23220521.2734   -2308294.94546  -1798663.93661
  20929292.852      897639.573 8    670406.98923
 91  4 12 21  0 30.0000000  0  4G19G 2G11G18
  20884487.5084    -708291.70946   -551914.94862
  23103550.5704   -3625253.47046  -2824861.52361
  23214901.641    -2337823.691 6  -1821673.26821
  20932602.7034     915030.42848    683958.23863
 91  4 12 21  0 45.0000000  0  4G19G 2G11G18
  20882870.9844    -716777.24846   -558527.04962
  23093996.938    -3675466.365 6  -2863988.30321
  23209308.3284   -2367220.06846  -1844579.44661
  20935933.5554     932538.23548    697600.62663
 91  4 12 21  1  0.0000000  0  4G19G 2G11G18
  20881267.6174    -725207.46946   -565096.05262
  23084453.750    -3725605.225 6  -2903057.40321
  23203742.4064   -2396476.93646  -1867376.91861
  20939289.2894     950169.61548    711339.30163
 91  4 12 21  1 15.0000000  0  4G19G 2G11G18
  20879670.9064    -733586.65246   -571625.27762
  23074925.664    -3775674.385 6  -2942072.19321
  23198201.3284   -2425598.52346  -1890068.97161
  20942666.5394     967920.49848    725171.09763
 91  4 12 21  1 30.0000000  0  5G19G 2G11G18G16
  20878088.0944    -741918.65346   -578117.74262
  23065411.9614   -3825677.64946  -2981035.62661
  23192681.195    -2454588.338 6  -1912658.35321
  20946066.0474     985786.75148    739092.79263
  24265263.7734         -0.96055
 91  4 12 21  1 45.0000000  0  5G19G 2G11G18G16
  20876509.4694    -750207.20046   -584576.34262
  23055908.1644   -3875618.69346  -3019950.58061
  23187190.266    -2483449.831 6  -1935147.74621
  20949486.5474    1003764.32648    753101.23163
  24259126.9384     -32242.97245
 91  4 12 21  2  0.0000000  0  5G19G 2G11G18G16
  20874941.7194    -758450.78946   -590999.91162
  23046416.7734   -3925495.95646  -3058815.82261
  23181724.906    -2512181.257 6  -1957535.78221
  20952929.7814    1021854.67948    767197.54963
  24253015.375      -64359.786 5        -0.10731
 91  4 12 21  2 15.0000000  0  5G19G 2G11G18G16
  20873381.7194    -766643.43846   -597383.78662
  23036938.2274   -3975303.14846  -3097626.47561
  23176281.203    -2540776.339 6  -1979817.59721
  20956396.0474    1040063.46348    781386.14763
  24246930.4224     -96345.44745    -24924.02761
 91  4 12 21  2 30.0000000  0  5G19G 2G11G18G16
  20871835.2734    -774780.77246   -603724.56262
  23027476.3674   -4025035.78946  -3136379.02461
  23170868.148    -2569230.429 6  -2001989.53421
  20959884.1414    1058395.16648    795670.52763
  24240869.6254    -128195.02745    -49741.87261
 91  4 12 21  2 45.0000000  0  5G19G 2G11G18G16
  20870293.3204    -782874.19546   -610031.11562
  23018023.242    -4074705.257 6  -3175082.36321
  23165475.0394   -2597554.75046  -2024060.33361
  20963392.7194    1076838.02748    810041.52263
  24234831.930     -159920.416 5    -74462.97521
 91  4 12 21  3  0.0000000  0  5G19G 2G11G18G16
  20868768.8284    -790888.29146   -616275.86262
  23008592.0314   -4124276.08946  -3213708.83961
  23160120.133    -2625713.738 6  -2046002.33021
  20966930.6414    1095427.47448    824526.74163
  24228828.2734    -191485.75045    -99059.35261
 91  4 12 21  3 15.0000000  0  5G19G 2G11G18G16
  20867254.5944    -798841.25546   -622472.97262
  22999171.6724   -4173766.20646  -3252272.41761
  23154788.289    -2653725.283 6  -2067829.43021
  20970493.3284    1114145.20847    839111.92163
  24222844.7894    -222908.86745   -123544.90461
 91  4 12 21  3 30.0000000  0  5G19G 2G11G18G16
  20865752.4534    -806745.82346   -628632.36862
  22989768.4774   -4223188.31846  -3290783.00861
  23149481.914    -2681601.814 6  -2089551.32321
  20974077.1484    1132978.61047    853787.23163
  24216893.6414    -254202.60745   -147929.64161
 91  4 12 21  3 45.0000000  0  5G19G 2G11G18G16
  20864255.4224    -814603.86946   -634755.51863
  22980374.1644   -4272544.37046  -3329242.12761
  23144204.2424   -2709345.01246  -2111169.31561
  20977681.5004    1151925.29347    868550.81563
  24210961.1094    -285368.82645   -172215.02661
 91  4 12 21  4  0.0000000  0  5G19G 2G11G18G16
  20862771.5784    -822413.18146   -640840.69062
  22970995.6724   -4321831.96446  -3367647.89261
  23138948.664    -2736952.491 6  -2132681.54921
  20981309.5864    1170987.32847    883404.27863
  24205050.703     -316405.028 4   -196399.10421
 91  4 12 21  4 15.0000000  0  5G19G 2G11G18G16
  20861292.9844    -830172.39546   -646886.82762
  22961628.8284   -4371049.59246  -3405999.14161
  23133723.117    -2764422.643 6  -2154086.78521
  20984959.6484    1190165.97847    898348.61463
  24199170.945     -347309.769 4   -220480.71921
 91  4 12 21  4 30.0000000  0  5G19G 2G11G18G16
  20859825.9144    -837884.34046   -652896.13162
  22952276.7974   -4420199.95146  -3444297.97461
  23128520.266    -2791758.055 6  -2175387.02921
  20988631.5944    1209458.30748    913381.52963
  24193315.281     -378085.657 4   -244461.95221
 91  4 12 21  4 45.0000000  0  5G19G 2G11G18G16
  20858365.0944    -845555.97946   -658874.02162
  22942934.9694   -4469289.86446  -3482549.70761
  23123342.7114   -2818965.28846  -2196587.38461
  20992321.6804    1228857.44447    928497.66663
  24187485.258     -408739.309 4   -268347.91421
 91  4 12 21  5  0.0000000  0  5G19G 2G11G18G16
  20856915.2894    -853182.10746   -664816.45562
  22933606.500    -4518314.160 6  -3520750.31321
  23118191.047    -2846039.151 6  -2217683.82521
  20996035.2974    1248368.37947    943700.93063
  24181673.9224    -439265.88544   -292134.86461
 91  4 12 21  5 15.0000000  0  5G19G 2G11G18G16
  20855473.1334    -860751.18046   -670714.43062
  22924290.0704   -4567261.26946  -3558890.77861
  23113068.320    -2872967.833 6  -2238667.13621
  20999770.2114    1268002.14847    958999.90463
  24175892.594     -469653.590 4   -315813.61421
 91  4 12 21  5 30.0000000  0  5G19G 2G11G18G16
  20854046.8524    -868273.27246   -676575.79462
  22914989.367    -4616141.118 6  -3596978.83221
  23107966.250    -2899761.099 6  -2259544.92721
  21003527.7814    1287748.79547    974386.83663
  24170135.602     -499912.508 4   -339392.00821
 91  4 12 21  5 45.0000000  0  5G19G 2G11G18G16
  20852619.1804    -875750.76646   -682402.41162
  22905701.547    -4664956.057 6  -3635016.30621
  23102895.0164   -2926421.25246  -2280318.98561
  21007307.7734    1307605.68947    989859.67363
  24164402.0394    -530044.82644   -362871.74061
 91  4 12 21  6  0.0000000  0  5G19G 2G11G18G16
  20851206.0164    -883181.43746   -688192.54362
  22896424.930    -4713703.544 6  -3673001.22121
  23097846.633    -2952945.625 6  -2300987.25521
  21011106.828     1327575.387 7   1005420.40723
  24158689.078     -560047.840 4   -386250.73821
 91  4 12 21  6 15.0000000  0  5G19G 2G11G18G16
  20849800.6644    -890563.20846   -693944.56362
  22887159.8914   -4762381.45646  -3710931.91861
  23092826.672    -2979332.002 6  -2321547.99721
  21014929.1804    1347659.37947   1021070.20363
  24153005.3594    -589919.93144   -409527.68061
 91  4 12 21  6 30.0000000  0  5G19G 2G11G18G16
  20848405.7274    -897897.75546   -699659.79462
  22877911.383    -4810991.388 6  -3748809.64721
  23087830.766    -3005581.717 6  -2342002.23721
  21018771.2974    1367856.02747   1036807.78563
  24147345.555     -619662.200 4   -432703.48321
 91  4 12 21  6 45.0000000  0  5G19G 2G11G18G16
  20847016.7344    -905186.73246   -705339.52162
  22868673.602    -4859534.852 6  -3786635.58221
  23082860.305    -3031696.278 6  -2362351.17021
  21022637.1804    1388163.55547   1052631.76363
  24141711.0314    -649276.40445   -455779.51861
 91  4 12 21  7  0.0000000  0  5G19G 2G11G18G16
  20845642.6954    -912431.57246   -710984.84762
  22859448.023    -4908013.337 6  -3824410.88621
  23077917.047    -3057676.912 6  -2382595.74421
  21026523.0554    1408580.29647   1068540.84363
  24136101.0314    -678763.91945   -478756.81661
 91  4 12 21  7 15.0000000  0  5G19G 2G11G18G16
  20844267.9384    -919633.34346   -716596.61662
  22850234.961    -4956427.968 6  -3862136.43521
  23072998.852    -3083524.606 6  -2402736.73221
  21030428.2344    1429104.78447   1084533.88263
  24130510.3674    -708125.82045   -501636.22761
 91  4 12 21  7 30.0000000  0  5G19G 2G11G18G16
  20842907.5864    -926794.08946   -722176.42362
  22841033.688    -5004780.527 6  -3899813.62121
  23068106.305    -3109241.094 6  -2422775.48621
  21034354.7664    1449735.12047   1100609.40963
  24124949.570     -737364.064 5   -524419.30121
 91  4 12 21  7 45.0000000  0  5G19G 2G11G18G16
  20841553.6804    -933898.97346   -727712.69062
  22831848.086    -5053056.129 6  -3937430.83221
  23063238.195    -3134811.266 6  -2442700.22221
  21038304.1174    1470485.91948   1116778.78863
  24119409.789     -766463.334 5   -547094.07921
 91  4 12 21  8  0.0000000  0  5G19G 2G11G18G16
  20840216.2664    -940951.01546   -733207.79162
  22822676.6724   -5101257.76046  -3974990.41561
  23058401.328    -3160237.995 6  -2462513.17221
  21042273.4614    1491353.78947   1133039.39663
  24113898.1804    -795426.41145   -569662.73761
 91  4 12 21  8 15.0000000  0  5G19G 2G11G18G16
  20838879.0634    -947958.75646   -738668.37262
  22813514.6724   -5149393.98546  -4012499.03061
  23053587.438    -3185529.637 6  -2482220.86121
  21046265.2584    1512330.49047   1149384.81163
  24108412.320     -824262.342 5   -592132.31921
 91  4 12 21  8 30.0000000  0  5G19G 2G11G18G16
  20837554.5474    -954916.82146   -744090.24262
  22804368.625    -5197459.364 6  -4049952.44321
  23048801.219    -3210680.761 6  -2501819.07021
  21050278.6414    1533421.00047   1165818.90663
  24102950.016     -852965.415 5   -614498.35821
 91  4 12 21  8 45.0000000  0  5G19G 2G11G18G16
  20836239.3134    -961828.49046   -749475.96062
  22795233.3914   -5245456.88646  -4087352.97561
  23044041.391    -3235694.294 6  -2521310.06021
  21054313.4534    1554621.82547   1182338.96763
  24097513.0234    -881538.74445   -636763.31461
 91  4 12 21  9  0.0000000  0  5G19G 2G11G18G16
  20834936.2504    -968691.44146   -754823.71662
  22786113.164    -5293383.988 6  -4124698.63621
  23039308.391    -3260567.509 6  -2540691.71821
  21058369.6644    1575935.24147   1198946.74863
  24092100.055     -909979.730 5   -658925.16021
 91  4 12 21  9 15.0000000  0  5G19G 2G11G18G16
  20833636.6414    -975506.89046   -760134.45462
  22777008.8364   -5341241.98346  -4161990.45661
  23034602.547    -3285301.660 6  -2559965.00521
  21062446.2274    1597359.72747   1215641.08763
  24086714.484     -938290.213 5   -680985.29821
 91  4 12 21  9 30.0000000  0  5G19G 2G11G18G16
  20832351.5234    -982278.74146   -765411.22462
  22767913.555    -5389034.771 6  -4199231.45421
  23029921.898    -3309900.451 6  -2579132.81621
  21066544.797     1618891.081 7   1232418.69423
  24081348.453     -966473.625 5   -702946.42021
 91  4 12 21  9 45.0000000  0  5G19G 2G11G18G16
  20831066.1254    -989012.92146   -770658.63962
  22758827.992    -5436768.195 6  -4236426.19921
  23025264.469    -3334369.637 6  -2598199.63521
  21070660.0944    1640523.16547   1249274.79663
  24076013.7344    -994535.66845   -724812.97261
 91  4 12 21 10  0.0000000  0  5G19G 2G11G18G16
  20829796.1414    -995691.16846   -775862.47662
  22749759.5864   -5484423.81846  -4273560.33461
  23020636.9064   -3358690.67246  -2617151.03361
  21074799.2424    1662274.51747   1266223.83363
  24070696.5084   -1022457.92845   -746570.59961
 91  4 12 21 10 15.0000000  0  5G19G 2G11G18G16
  20828532.3754   -1002324.14246   -781031.03162
  22740702.7194   -5532012.26246  -4310642.10661
  23016034.328    -3382873.952 6  -2635995.07321
  21078959.5864    1684134.22947   1283257.30363
  24065408.945    -1050251.330 5   -768227.81321
 91  4 12 21 10 30.0000000  0  5G19G 2G11G18G16
  20827283.2664   -1008911.12946   -786163.75162
  22731659.4774   -5579532.77846  -4347670.96261
  23011457.0944   -3406918.70546  -2654731.17261
  21083139.656     1706102.740 7   1300375.55423
  24060141.5394   -1077914.99944   -789783.93961
 91  4 12 21 10 45.0000000  0  5G19G 2G11G18G16
  20826036.7814   -1015450.58546   -791259.43862
  22722631.0234   -5626983.75546  -4384645.62261
  23006908.875    -3430823.041 6  -2673357.86121
  21087340.1804    1728181.44747   1317579.66863
  24054903.328    -1105447.019 4   -811237.50721
 91  4 12 21 11  0.0000000  0  5G19G 2G11G18G16
  20824805.7424   -1021938.30846   -796314.80562
  22713614.1024   -5674360.83046  -4421562.70161
  23002388.781    -3454582.707 6  -2691871.80921
  21091564.7894    1750374.48047   1334872.87663
  24049691.219    -1132842.985 4   -832585.03221
 91  4 12 21 11 15.0000000  0  5G19G 2G11G18G16
  20823574.6414   -1028380.59446   -801334.77362
  22704611.6884   -5721670.35746  -4458427.15261
  22997892.9614   -3478203.86846  -2710277.84661
  21095808.242     1772675.187 7   1352249.97623
  24044503.844    -1160109.413 4   -853831.64621
 91  4 12 21 11 30.0000000  0  5G19G 2G11G18G16
  20822361.4924   -1034782.51946   -806323.28562
  22695621.1644   -5768917.21746  -4495242.76561
  22993422.3134   -3501691.24146  -2728579.62761
  21100072.0004    1795078.48348   1369707.02063
  24039336.7424   -1187251.20944   -874981.11661
 91  4 12 21 11 45.0000000  0  5G19G 2G11G18G16
  20821147.6724   -1041132.68146   -811271.47262
  22686645.3984   -5816089.92646  -4532000.59761
  22988981.3834   -3525033.26446  -2746768.14861
  21104358.1724    1817595.45548   1387252.64163
  24034199.3364   -1214257.18444   -896024.76461
 91  4 12 21 12  0.0000000  0  5G19G 2G11G18G16
  20819952.8444   -1047438.79446   -816185.33062
  22677678.0164   -5863196.13046  -4568706.61161
  22984564.1094   -3548237.38646  -2764849.21561
  21108661.7424    1840218.23947   1404880.71263
  24029085.7974   -1241134.52444   -916968.15961
 91  4 12 21 12 15.0000000  0  5G19G 2G11G18G16
  20818756.2344   -1053705.42046   -821068.41362
  22668731.1414   -5910240.41146  -4605364.36861
  22980175.727    -3571308.132 6  -2782826.37321
  21112985.641     1862942.120 7   1422587.56023
  24023992.0864   -1267888.08445   -937815.13361
 91  4 12 21 12 30.0000000  0  5G19G 2G11G18G16
  20817578.5634   -1059920.29146   -825911.17362
  22659790.4924   -5957210.44046  -4641964.27661
  22975811.7974   -3594232.92546  -2800689.78561
  21117331.391     1885779.406 7   1440382.77823
  24018928.906    -1294505.447 5   -958555.93121
 91  4 12 21 12 45.0000000  0  5G19G 2G11G18G16
  20816399.0314   -1066088.80946   -830717.80762
  22650866.4304   -6004111.36546  -4678510.33961
  22971477.1724   -3617016.95046  -2818443.50961
  21121698.2974    1908724.55247   1458262.04863
  24013888.5314   -1320991.84745   -979194.72861
 91  4 12 21 13  0.0000000  0  5G19G 2G11G18G16
  20815237.8834   -1072208.11446   -835486.09862
  22641954.328    -6050940.546 6  -4715000.49021
  22967168.7734   -3639657.43746  -2836085.38061
  21126086.3594    1931779.65447   1476226.98063
  24008870.031    -1347344.494 5   -999729.27321
 91  4 12 21 13 15.0000000  0  5G19G 2G11G18G16
  20814080.1644   -1078278.35946   -840216.16262
  22633056.2664   -6097697.98946  -4751434.74461
  22962890.0164   -3662154.26246  -2853615.31261
  21130493.8134    1954944.63947   1494277.55163
  24003884.055    -1373563.413 5  -1020159.63421
 91  4 12 21 13 30.0000000  0  5G19G 2G11G18G16
  20812934.4224   -1084304.01046   -844911.47762
  22624171.4454   -6144388.00746  -4787816.45661
  22958634.2034   -3684511.73546  -2871036.65761
  21134921.4064    1978214.69947   1512409.99663
  23998919.5554   -1399653.08445  -1040489.24261
 91  4 12 21 13 45.0000000  0  5G19G 2G11G18G16
  20811795.4454   -1090282.69546   -849570.18862
  22615299.6724   -6191008.20346  -4824143.76361
  22954405.9844   -3706727.36746  -2888347.47461
  21139370.156     2001592.208 7   1530626.16123
  23993981.0314   -1425610.91445  -1060716.13461
 91  4 12 21 14  0.0000000  0  5G19G 2G11G18G16
  20810668.8914   -1096213.07546   -854191.26462
  22606442.0394   -6237557.35646  -4860415.70361
  22950204.469    -3728799.572 6  -2905546.52621
  21143841.281     2025078.608 7   1548927.18023
  23989063.648    -1451435.586 5  -1080839.27321
 91  4 12 21 14 15.0000000  0  5G19G 2G11G18G16
  20809547.2504   -1102095.47846   -858774.95362
  22597596.9924   -6284035.52346  -4896632.34161
  22946033.5944   -3750728.41646  -2922633.87161
  21148330.352     2048673.411 7   1567312.66723
  23984175.9844   -1477127.17545  -1100858.70961
 91  4 12 21 14 30.0000000  0  5G19G 2G11G18G16
  20808437.4384   -1107935.82646   -863325.87162
  22588764.5474   -6330448.52946  -4932798.20261
  22941885.195    -3772519.772 6  -2939614.09521
  21152839.367     2072370.164 7   1585777.59923
  23979310.3284   -1502691.81345  -1120779.20961
 91  4 12 21 14 45.0000000  0  5G19G 2G11G18G16
  20807332.6884   -1113724.21746   -867836.30862
  22579947.1024   -6376786.58946  -4968905.66061
  22937766.7734   -3794163.57046  -2956479.34161
  21157370.891     2096178.296 7   1604329.31123
  23974472.602    -1528119.553 5  -1140593.04621
 91  4 12 21 15  0.0000000  0  6G19G 2G11G18G16G 6
  20806243.6724   -1119462.80446   -872307.92962
  22571143.8834   -6423051.78346  -5004956.34261
  22933676.1954   -3815661.88346  -2973231.20661
  21161922.195     2120095.937 7   1622966.35923
  23969660.3204   -1553412.20645  -1160301.62561
  24314845.7734         -0.66553
 91  4 12 21 15 15.0000000  0  6G19G 2G11G18G16G 6
  20805158.6414   -1125159.49146   -876746.91162
  22562350.7424   -6469251.82846  -5040956.25661
  22929609.3594   -3837022.46046  -2989875.75361
  21166493.578     2144114.872 7   1641682.33223
  23964873.242    -1578578.039 5  -1179911.36421
  24307084.4144     -40785.76944
 91  4 12 21 15 30.0000000  0  6G19G 2G11G18G16G 6
  20804084.4844   -1130807.82746   -881148.20863
  22553572.414    -6515380.201 6  -5076900.34221
  22925573.250    -3858238.584 6  -3006407.75021
  21171084.281     2168241.511 7   1660482.23723
  23960107.766    -1603610.516 5  -1199417.21621
  24299329.6954     -81557.55744
 91  4 12 21 15 45.0000000  0  6G19G 2G11G18G16G 6
  20803017.0084   -1136411.07646   -885514.37862
  22544808.1804   -6561440.19346  -5112791.11761
  22921564.820    -3879313.339 6  -3022829.58521
  21175693.047     2192472.219 7   1679363.23123
  23955368.4924   -1628512.52245  -1218821.37761
  24291568.2274    -122319.37344
 91  4 12 21 16  0.0000000  0  6G19G 2G11G18G16G 6
  20801959.1484   -1141970.44446   -889846.34862
  22536057.9924   -6607432.91446  -5148629.48961
  22917578.203    -3900247.936 6  -3039142.20021
  21180325.766     2216805.665 7   1698324.27823
  23950653.8524   -1653285.47845  -1238125.00561
  24283814.0474    -163072.59544
 91  4 12 21 16 15.0000000  0  6G19G 2G11G18G16G 6
  20800910.8524   -1147482.87946   -894141.75462
  22527317.5314   -6653355.32546  -5184413.06361
  22913624.3914   -3921039.02346  -3055342.98661
  21184973.891     2241244.459 7   1717367.41823
  23945967.7814   -1677926.37445  -1257325.72961
  24276062.984     -203814.196 4
 91  4 12 21 16 30.0000000  0  6G19G 2G11G18G16G 6
  20799871.6564   -1152951.55046   -898403.05962
  22518590.9614   -6699210.45146  -5220144.21062
  22909693.2114   -3941689.53846  -3071434.23161
  21189645.828     2265785.312 7   1736490.08223
  23941303.984    -1702437.997 5  -1276425.71721
  24268310.3914    -244547.30344        -0.23271
 91  4 12 21 16 45.0000000  0  6G19G 2G11G18G16G 6
  20798837.7424   -1158374.97246   -902629.10262
  22509877.2424   -6744996.84146  -5255821.79561
  22905792.430    -3962198.054 6  -3087414.84021
  21194335.492     2290429.679 7   1755693.40623
  23936663.125    -1726818.993 5  -1295423.91521
  24260559.5704    -285270.87144    -31732.65161
 91  4 12 21 17  0.0000000  0  6G19G 2G11G18G16G 6
  20797815.1644   -1163749.64046   -906817.15162
  22501178.008    -6790711.008 6  -5291443.11121
  22901915.945    -3982560.982 6  -3103282.01021
  21199046.180     2315180.741 7   1774979.87023
  23932050.664    -1751065.979 5  -1314317.69821
  24252813.6484    -325981.38544    -63455.02561
 91  4 12 21 17 15.0000000  0  6G19G 2G11G18G16G 6
  20796800.2114   -1169081.57546   -910971.90762
  22492492.875    -6836358.839 6  -5327012.73621
  22898069.0314   -4002784.08246  -3119040.23361
  21203774.313     2340032.470 7   1794344.77423
  23927456.7194   -1775184.70145  -1333111.54961
  24245068.0164    -366684.79444    -95171.78161
 91  4 12 21 17 30.0000000  0  6G19G 2G11G18G16G 6
  20795793.7974   -1174373.26046   -915095.29962
  22483819.8284   -6881942.68846  -5362532.50161
  22894244.9384   -4022869.58046  -3134691.21461
  21208522.891     2364982.259 7   1813786.08923
  23922893.039    -1799177.688 5  -1351807.41421
  24237319.703     -407383.641 4   -126884.98321
 91  4 12 21 17 45.0000000  0  6G19G 2G11G18G16G 6
  20794795.9924   -1179616.51646   -919180.95562
  22475157.969    -6927454.315 6  -5397995.99021
  22890451.5704   -4042809.27946  -3150228.57961
  21213290.586     2390037.776 7   1833309.78923
  23918354.0634   -1823036.56145  -1370398.77761
  24229580.672     -448070.014 4   -158588.50621
 91  4 12 21 17 59.9990000  0  6G19G 2G11G18G16G 6
  20793810.2924   -1184815.10246   -923231.79662
  22466510.8704   -6972894.82546  -5433404.06461
  22886685.667    -4062605.799 6  -3165654.38121
  21218076.628     2415193.057 7   1852911.22623
  23913837.042    -1846764.335 5  -1388887.99521
  24221839.8004    -488745.33944   -190283.33861
 91  4 12 21 18 14.9990000  0  6G19G 2G11G18G16G 6
  20792826.5504   -1189969.45546   -927248.17862
  22457875.9724   -7018269.98446  -5468761.21862
  22882942.667    -4082261.520 6  -3180970.47721
  21222884.214     2440451.623 7   1872593.14623
  23909347.2144   -1870363.73145  -1407277.16161
  24214100.8314    -529414.92843   -221973.78661
 91  4 12 21 18 29.9990000  0  6G19G 2G11G18G16G 6
  20791854.5264   -1195078.34446   -931229.12862
  22449253.987    -7063575.708 6  -5504064.26622
  22879226.956    -4101774.008 6  -3196174.96221
  21227709.917     2465812.709 7   1892354.95723
  23904881.011    -1893831.981 5  -1425564.15521
  24206359.222     -570075.213 3   -253656.94521
 91  4 12 21 18 44.9990000  0  6G19G 2G11G18G16G 6
  20790889.8864   -1200139.19646   -935172.64963
  22440648.3084   -7108809.79546  -5539311.48462
  22875545.8784   -4121140.71546  -3211265.85361
  21232556.401     2491278.211 7   1912198.12223
  23900439.8314   -1917166.93845  -1443747.26261
  24198627.058     -610723.934 3   -285331.09621
 91  4 12 21 18 59.9990000  0  6G19G 2G11G18G16G 6
  20789938.5584   -1205150.66846   -939077.69362
  22432051.808    -7153970.553 6  -5574501.57721
  22871888.1204   -4140359.86846  -3226241.76761
  21237422.847     2516849.553 7   1932123.76423
  23896025.9564   -1940366.77445  -1461825.10561
  24190895.8704    -651359.66243   -316995.12961
 91  4 12 21 19 14.9990000  0  6G19G 2G11G18G16G 6
  20788992.0654   -1210117.06446   -942947.61162
  22423470.722    -7199062.147 6  -5609637.77422
  22868259.511    -4159435.666 6  -3241105.97721
  21242307.581     2542522.230 7   1952128.36923
  23891635.3084   -1963435.61445  -1479800.88161
  24183160.7764    -691986.77842   -348652.44361
 91  4 12 21 19 29.9990000  0  6G19G 2G11G18G16G 6
  20788058.1054   -1215037.23946   -946781.51763
  22414904.948    -7244083.460 6  -5644719.20522
  22864655.386    -4178367.027 6  -3255857.61621
  21247212.558     2568297.353 7   1972212.79423
  23887271.0504   -1986372.60645  -1497673.89661
  24175434.433     -732604.321 3   -380302.28621
 91  4 12 21 19 44.9990000  0  6G19G 2G11G18G16G 6
  20787127.5584   -1219916.18146   -950583.29062
  22406348.776    -7289039.479 6  -5679749.75522
  22861078.128    -4197158.713 6  -3270500.41921
  21252135.761     2594169.374 7   1992372.73023
  23882931.097    -2009182.784 5  -1515448.08221
  24167709.026     -773217.319 2   -411948.59521
 91  4 12 21 19 59.9990000  0  6G19G 2G11G18G16G 6
  20786208.4174   -1224752.07146   -954351.51962
  22397808.433    -7333928.286 6  -5714727.93722
  22857531.026    -4215808.650 6  -3285032.78421
  21257077.394     2620139.845 7   2012609.37823
  23878613.7374   -2031863.95845  -1533121.76961
  24159972.9094    -813824.02542   -443590.00061
 91  4 12 21 20 14.9990000  0  6G19G 2G11G18G16G 6
  20785297.2144   -1229534.43146   -958078.02862
  22389278.886    -7378739.464 6  -5749645.63322
  22854009.823    -4234306.404 6  -3299446.56421
  21262040.565     2646219.155 7   2032930.83523
  23874322.261    -2054405.874 5  -1550686.92721
  24152251.1834    -854414.04842   -475218.40661
 91  4 12 21 20 29.9990000  0  6G19G 2G11G18G16G 6
  20784399.7764   -1234273.80546   -961771.04963
  22380765.839    -7423483.536 6  -5784511.03422
  22850518.8944   -4252662.50546  -3313749.96161
  21267022.737     2672396.682 7   2053328.82623
  23870060.3554   -2076819.09945  -1568151.81761
  24144531.706     -894998.119 3   -506842.18121
 91  4 12 21 20 44.9990000  0  6G19G 2G11G18G16G 6
  20783502.6444   -1238968.82446   -965429.50363
  22372264.620    -7468159.119 6  -5819323.06922
  22847050.722    -4270875.493 6  -3327941.82921
  21272020.894     2698673.427 7   2073804.12823
  23865817.2144   -2099102.44445  -1585515.48261
  24136810.4644    -935574.99443   -538460.34061
 91  4 12 21 20 59.9990000  0  6G19G 2G11G18G16G 6
  20782616.8554   -1243619.54046   -969053.43962
  22363774.714    -7512766.161 6  -5854081.69322
  22843614.800    -4288945.256 6  -3342022.11321
  21277041.378     2725048.828 7   2094356.30523
  23861599.862    -2121255.641 5  -1602777.73821
  24129090.5894    -976144.91744   -570073.08161
 91  4 12 21 21 14.9990000  0  6G19G 2G11G18G16G 6
  20781740.3944   -1248222.01946   -972639.78362
  22355300.175    -7557300.491 6  -5888783.66722
  22840201.378    -4306867.669 6  -3355987.57521
  21282079.425     2751526.986 7   2114988.55323
  23857413.3944   -2143275.05645  -1619935.75961
  24121368.8474   -1016703.90444   -601677.31961
 91  4 12 21 21 29.9990000  0  6G19G 2G11G18G16G 6
  20780875.6124   -1252780.10646   -976191.54062
  22346837.284    -7601766.124 6  -5923432.10422
  22836819.4954   -4324646.42446  -3369841.09061
  21287138.433     2778103.783 7   2135697.66323
  23853247.550    -2165164.340 5  -1636992.38521
  24113654.190    -1057255.772 4   -633276.01521
 91  4 12 21 21 44.9990000  0  6G19G 2G11G18G16G 6
  20780016.9014   -1257283.93146   -979701.01162
  22338392.878    -7646153.232 6  -5958019.35422
  22833466.4404   -4342271.62246  -3383574.95661
  21292214.8084    2804788.76847   2156491.07262
  23849109.628    -2186913.736 5  -1653939.99821
  24105940.776    -1097790.942 5   -664861.68821
 91  4 12 21 21 59.9990000  0  6G19G 2G11G18G16G 6
  20779171.6204   -1261745.61646   -983177.65062
  22329958.448    -7690473.886 6  -5992554.82322
  22830138.4874   -4359755.30246  -3397198.54161
  21297312.253     2831569.570 7   2177359.14323
  23844995.511    -2208535.165 5  -1670787.90021
  24098229.644    -1138321.602 5   -696443.84921
 91  4 12 21 22 14.9990000  0  6G19G 2G11G18G16G 6
  20778326.2454   -1266160.58846   -986617.89263
  22321537.956    -7734723.514 6  -6027034.95121
  22826838.8004   -4377092.78346  -3410708.20661
  21302427.300     2858450.469 7   2198305.21723
  23840906.9484   -2230024.11845  -1687532.56361
  24090517.8704   -1178843.45845   -728019.16161
 91  4 12 21 22 29.9990000  0  6G19G 2G11G18G16G 6
  20777496.3004   -1270528.51346   -990021.47262
  22313131.519    -7778901.657 6  -6061459.37621
  22823568.253    -4394283.569 6  -3424103.58321
  21307562.800     2885431.819 7   2219329.55723
  23836841.1904   -2251380.15645  -1704173.65961
  24082807.2304   -1219356.19345   -759587.37961
 91  4 12 21 22 44.9990000  0  6G19G 2G11G18G16G 6
  20776675.0814   -1274843.19746   -993383.56263
  22304739.2614   -7823001.88646  -6095823.09361
  22820325.4094   -4411321.33646  -3437379.70261
  21312715.6674    2912519.63447   2240436.85763
  23832803.7144   -2272597.26745  -1720706.50361
  24075101.339    -1259853.433 5   -791143.50921
 91  4 12 21 22 59.9990000  0  6G19G 2G11G18G16G 6
  20775865.4724   -1279117.15346   -996713.92063
  22296358.855    -7867036.890 6  -6130135.98521
  22817108.331    -4428218.580 6  -3450546.33721
  21317889.1444    2939701.25747   2261617.25363
  23828788.6754   -2293687.87945  -1737140.77861
  24067396.1594   -1300347.94945   -822697.51861
 91  4 12 21 23 14.9990000  0  6G19G 2G11G18G16G 6
  20775055.8864   -1283346.70346  -1000009.67862
  22287992.573    -7911003.059 6  -6164395.23221
  22813922.980    -4444971.616 6  -3463600.60821
  21323079.9334    2966979.88547   2282873.23563
  23824803.5034   -2314648.51145  -1753473.76061
  24059688.980    -1340836.257 5   -854246.72621
 91  4 12 21 23 29.9990000  0  6G19G 2G11G18G16G 6
  20774264.6834   -1287534.30846  -1003272.74963
  22279639.433    -7954902.649 6  -6198602.60022
  22810760.144    -4461582.565 6  -3476544.15721
  21328288.3474    2994352.84447   2304202.72163
  23820837.2844   -2335481.16845  -1769707.01861
  24051985.6444   -1381320.77445   -885792.94261
 91  4 12 21 23 44.9990000  0  6G19G 2G11G18G16G 6
  20773474.4484   -1291663.48146  -1006490.29263
  22271299.487    -7998719.160 6  -6232745.23622
  22807628.589    -4478034.919 6  -3489364.12621
  21333520.1594    3021836.36447   2325618.36363
  23816902.722    -2356169.522 5  -1785827.84921
  24044288.0894   -1421785.16445   -917323.50061
 91  4 12 21 23 59.9990000  0  6G19G 2G11G18G16G 6
  20772702.4094   -1295740.73046  -1009667.37862
  22262976.628    -8042459.023 6  -6266828.14621
  22804526.151    -4494335.059 6  -3502065.48321
  21338769.2694    3049423.69447   2347114.89262
  23812990.745    -2376720.222 5  -1801841.42021
  24036588.9404   -1462235.97744   -948843.47061
 91  4 12 21 24 14.9990000  0  6G19G 2G11G18G16G 6
  20771930.1444   -1299774.39946  -1012810.50462
  22254667.1124   -8086130.76746  -6300857.97661
  22801453.6364   -4510491.42946  -3514654.82661
  21344036.3624    3077106.28947   2368685.65363
  23809107.698    -2397142.029 5  -1817754.52821
  24028894.183    -1502681.861 4   -980359.60421
 91  4 12 21 24 29.9990000  0  6G19G 2G11G18G16G 6
  20771175.0504   -1303763.55846  -1015918.94263
  22246368.589    -8129733.267 6  -6334833.85222
  22798407.5264   -4526502.91946  -3527131.27561
  21349323.0264    3104885.01247   2390331.31963
  23805242.4954   -2417433.82645  -1833566.35361
  24021198.0504   -1543121.89444  -1011871.18861
 91  4 12 21 24 44.9990000  0  6G19G 2G11G18G16G 6
  20770420.3624   -1307709.66246  -1018993.83662
  22238083.9804   -8173268.12246  -6368757.01762
  22795387.3314   -4542370.95746  -3539495.94861
  21354628.2454    3132758.05147   2412050.47763
  23801405.7534   -2437596.89145  -1849277.87761
  24013499.300    -1583557.683 4  -1043379.45121
 91  4 12 21 24 59.9990000  0  6G19G 2G11G18G16G 6
  20769683.1444   -1311606.00046  -1022029.95162
  22229814.4094   -8216728.48046  -6402622.13062
  22792395.0974   -4558088.74446  -3551743.53261
  21359951.7924    3160731.99647   2433848.26563
  23797595.3944   -2457624.11745  -1864883.53361
  24005805.933    -1623982.466 3  -1074879.16321
 91  4 12 21 25 14.9990000  0  6G19G 2G11G18G16G 6
  20768946.128    -1315458.436 6  -1025031.86123
  22221556.5894   -8260120.23546  -6436433.78662
  22789432.5194   -4573662.01146  -3563878.50661
  21365291.1124    3188800.49947   2455719.73663
  23793812.5584   -2477521.73145  -1880388.22161
  23998118.1594   -1664402.39443  -1106375.03461
 91  4 12 21 25 29.9990000  0  6G19G 2G11G18G16G 6
  20768225.292    -1319264.485 6  -1027997.62523
  22213313.7764   -8303440.77146  -6470189.95462
  22786498.4254   -4589088.15546  -3575898.84361
  21370651.6054    3216965.91247   2477666.71663
  23790047.042    -2497287.536 5  -1895790.17421
  23990428.9724   -1704814.88243  -1137865.16961
 91  4 12 21 25 44.9990000  0  6G19G 2G11G18G16G 6
  20767505.8154   -1323024.18246  -1030927.26663
  22205082.4804   -8346690.23346  -6503890.73762
  22783586.6444   -4604367.28046  -3587804.62161
  21376029.5974    3245228.07747   2499689.08563
  23786311.9094   -2516921.41245  -1911089.33461
  23982736.886    -1745220.162 3  -1169349.63821
 91  4 12 21 25 59.9990000  0  6G19G 2G11G18G16G 6
  20766800.034    -1326740.944 6  -1033823.45423
  22196866.8864   -8389871.98546  -6537538.76362
  22780707.7304   -4619502.52346  -3599598.27961
  21381425.3234    3273583.24347   2521783.92562
  23782599.6674   -2536426.59045  -1926288.22361
  23975048.675    -1785621.662 3  -1200831.17021
 91  4 12 21 26 14.9990000  0  6G19G 2G11G18G16G 6
  20766100.480    -1330411.940 6  -1036683.98123
  22188661.0114   -8432983.05346  -6571131.70662
  22777856.6754   -4634491.01146  -3611277.58261
  21386840.3084    3302033.93647   2543953.20063
  23778914.987    -2555800.526 5  -1941384.82321
  23967361.378    -1826016.750 3  -1232307.69421
 91  4 12 21 26 29.9990000  0  6G19G 2G11G18G16G 6
  20765412.253    -1334036.455 6  -1039508.28723
  22180471.2924   -8476022.80646  -6604669.08062
  22775030.589    -4649332.066 6  -3622841.99221
  21392271.3704    3330580.69847   2566197.33663
  23775253.190    -2575042.530 5  -1956378.63021
  23959677.8704   -1866404.76944  -1263778.73361
 91  4 12 21 26 44.9990000  0  6G19G 2G11G18G16G 6
  20764728.933    -1337615.366 6  -1042297.06323
  22172294.3234   -8518992.04446  -6638151.51262
  22772235.7924   -4664026.43546  -3634292.12861
  21397722.7844    3359222.46947   2588515.50063
  23771615.9644   -2594153.39245  -1971270.24761
  23951990.894    -1906786.699 4  -1295245.00821
 91  4 12 21 26 59.9990000  0  6G19G 2G11G18G16G 6
  20764059.1514   -1341142.18446  -1045045.24263
  22164131.9404   -8561884.23846  -6671573.90762
  22769468.1054   -4678567.65846  -3645622.91061
  21403191.6284    3387965.21847   2610912.35863
  23768004.2694   -2613126.71045  -1986054.70461
  23944307.1124   -1947156.29345  -1326701.69561
 91  4 12 21 27 14.9990000  0  6G19G 2G11G18G16G 6
  20763394.894    -1344627.156 6  -1047760.81323
  22155983.5734   -8604709.74746  -6704944.34362
  22766729.1674   -4692965.91846  -3656842.31361
  21408677.5734    3416798.88847   2633380.05563
  23764419.737    -2631972.825 5  -2000740.04121
  23936629.3314   -1987523.73345  -1358156.67461
 91  4 12 21 27 29.9990000  0  6G19G 2G11G18G16G 6
  20762744.097    -1348063.025 6  -1050438.12723
  22147847.8474   -8647461.29346  -6738257.13562
  22764017.0114   -4707213.72646  -3667944.46361
  21414185.7844    3445730.27247   2655923.89363
  23760856.3004   -2650684.59045  -2015320.67561
  23928946.120    -2027881.874 5  -1389604.41321
 91  4 12 21 27 44.9990000  0  6G19G 2G11G18G16G 6
  20762094.394    -1351455.394 6  -1053081.54323
  22139725.2614   -8690144.45046  -6771516.63962
  22761333.9954   -4721316.70946  -3678933.77361
  21419706.8554    3474753.46247   2678539.27462
  23757319.581    -2669267.438 5  -2029800.85021
  23921268.011    -2068236.448 5  -1421049.37621
 91  4 12 21 27 59.9990000  0  6G19G 2G11G18G16G 6
  20761459.6444   -1354800.04046  -1055687.76563
  22131616.4484   -8732754.92446  -6804719.50662
  22758679.5584   -4735270.66946  -3689806.95261
  21425249.7534    3503872.57547   2701229.39363
  23753810.8474   -2687717.25945  -2044177.34861
  23913590.1984   -2108583.34345  -1452488.36061
 91  4 12 21 28 14.9990000  0  6G19G 2G11G18G16G 6
  20760830.855    -1358100.718 6  -1058259.73423
  22123519.9404   -8775296.39346  -6837868.60962
  22756051.4644   -4749079.16246  -3700566.78061
  21430807.0114    3533083.59347   2723991.12863
  23750323.855    -2706037.586 5  -2058452.97621
  23905912.9334   -2148926.43045  -1483924.36461
 91  4 12 21 28 29.9990000  0  6G19G 2G11G18G16G 6
  20760212.8234   -1361360.03146  -1060799.46262
  22115439.7534   -8817771.66946  -6870966.12662
  22753451.1284   -4762744.83546  -3711215.32761
  21436384.6124    3562383.53747   2746822.15862
  23746861.034    -2724231.598 5  -2072630.16321
  23898237.128    -2189268.372 5  -1515359.48021
 91  4 12 21 28 44.9990000  0  6G19G 2G11G18G16G 6
  20759599.784    -1364574.972 6  -1063304.62223
  22107369.0034   -8860177.89246  -6904009.83662
  22750877.5504   -4776264.69846  -3721750.24861
  21441976.6904    3591775.14747   2769724.61662
  23743423.534    -2742296.023 5  -2086706.35821
  23890557.519    -2229606.345 5  -1546791.49221
 91  4 12 21 28 59.9990000  0  6G19G 2G11G18G16G 6
  20758995.581    -1367749.350 6  -1065778.17323
  22099311.8474   -8902518.52446  -6937002.43562
  22748330.659    -4789642.404 6  -3732174.39121
  21447585.8944    3621254.48747   2792695.43562
  23740010.409    -2760234.892 5  -2100684.74421
  23882885.808    -2269944.207 5  -1578223.41821
 91  4 12 21 29 14.9990000  0  6G19G 2G11G18G16G 6
  20758399.3084   -1370876.02946  -1068214.55163
  22091269.448    -8944786.376 6  -6969938.32422
  22745813.753    -4802870.673 6  -3742482.09021
  21453212.6834    3650828.30947   2815739.87862
  23736622.144    -2778040.573 5  -2114559.34621
  23875210.4094   -2310274.94845  -1609649.79961
 91  4 12 21 29 29.9990000  0  6G19G 2G11G18G16G 6
  20757815.7614   -1373955.69046  -1070614.29263
  22083237.5034   -8986982.26046  -7002818.13562
  22743326.5584   -4815950.12546  -3752673.83661
  21458858.7694    3680496.02147   2838857.47662
  23733260.4644   -2795714.28545  -2128331.10061
  23867535.2374   -2350599.34044  -1641071.22561
 91  4 12 21 29 44.9990000  0  6G19G 2G11G18G16G 6
  20757237.151    -1376992.921 6  -1072980.97923
  22075222.7224   -9029110.70346  -7035645.39562
  22740863.8944   -4828885.50746  -3762753.31261
  21464521.8154    3710252.39347   2862044.15962
  23729919.933    -2813260.670 5  -2142003.64521
  23859858.4484   -2390922.06844  -1672491.35261
 91  4 12 21 29 59.9990000  0  6G19G 2G11G18G16G 6
  20756667.933    -1379984.640 6  -1075312.19623
  22067219.1834   -9071168.61746  -7068417.69962
  22738429.9014   -4841673.64646  -3772718.06261
  21470201.5504    3740100.34947   2885302.21162
  23726606.612    -2830676.723 5  -2155574.63821
  23852190.1444   -2431240.12643  -1703907.85861
 91  4 12 21 30 14.9990000  0  6G19G 2G11G18G16G 6
  20756106.1124   -1382930.38946  -1077607.59263
  22059228.7614   -9113155.45146  -7101134.61762
  22736027.0584   -4854314.05946  -3782567.70061
  21475899.6834    3770040.05147   2908631.75062
  23723316.378    -2847961.981 5  -2169043.70321
  23844518.0114   -2471553.15543  -1735320.41161
 91  4 12 21 30 29.9990000  0  6G19G 2G11G18G16G 6
  20755560.9804   -1385829.41046  -1079866.56963
  22051252.3084   -9155070.44546  -7133795.55362
  22733647.276    -4866805.972 6  -3792301.62021
  21481613.9094    3800072.17647   2932033.30762
  23720052.003    -2865115.658 5  -2182410.24721
  23836844.7534   -2511860.51643  -1766728.56761
 91  4 12 21 30 44.9990000  0  6G19G 2G11G18G16G 6
  20755012.276    -1388681.873 6  -1082089.28423
  22043290.3474   -9196913.98546  -7166400.81962
  22731298.1284   -4879149.44746  -3801919.87261
  21487345.9644    3830195.89347   2955506.23562
  23716811.886    -2882137.759 5  -2195674.22521
  23829177.901    -2552162.552 3  -1798132.57421
 91  4 12 21 30 59.9990000  0  6G19G 2G11G18G16G 6
  20754479.5264   -1391487.18146  -1084275.24663
  22035341.3084   -9238685.44246  -7198949.90662
  22728978.2844   -4891343.94146  -3811422.04561
  21493097.065     3860411.818 7   2979051.00822
  23713599.706    -2899028.038 5  -2208835.53221
  23821507.300    -2592458.785 3  -1829532.05721
 91  4 12 21 31 14.9990000  0  6G19G 2G11G18G16G 6
  20753953.7144   -1394248.13446  -1086426.64363
  22027404.1444   -9280387.57446  -7231444.97862
  22726685.948    -4903392.220 6  -3820810.26921
  21498864.480     3890716.563 7   3002664.99222
  23710409.464    -2915789.600 5  -2221896.53521
  23813839.2374   -2632752.09143  -1860929.27661
 91  4 12 21 31 29.9990000  0  6G19G 2G11G18G16G 6
  20753438.7614   -1396960.64446  -1088540.29263
  22019485.4724   -9322016.29546  -7263882.85062
  22724421.4404   -4915290.00246  -3830081.23061
  21504648.917     3921114.508 7   3026351.60122
  23707244.2454   -2932418.24745  -2234853.96761
  23806177.058    -2673038.513 4  -1892321.12521
 91  4 12 21 31 44.9990000  0  6G19G 2G11G18G16G 6
  20752931.495    -1399620.934 6  -1090613.25422
  22011576.7764   -9363567.77646  -7296260.52762
  22722186.8314   -4927033.50046  -3839231.97061
  21510451.1984    3951609.10547   3050113.52662
  23704108.2064   -2948910.10845  -2247704.80061
  23798512.1054   -2713314.16845  -1923704.58361
 91  4 12 21 31 59.9990000  0  6G19G 2G11G18G16G 6
  20752437.2224   -1402236.90846  -1092651.68363
  22003682.0894   -9405049.80046  -7328584.09062
  22719981.331    -4938630.565 6  -3848268.60421
  21516272.1364    3982192.09847   3073944.32962
  23700994.128    -2965273.069 5  -2260455.20121
  23790849.5974   -2753587.05645  -1955085.89661
 91  4 12 21 32 14.9990000  0  6G19G 2G11G18G16G 6
  20751944.6904   -1404797.47846  -1094646.93963
  21995803.4094   -9446451.36646  -7360844.95862
  22717804.6594   -4950070.13746  -3857182.51661
  21522111.011     4012874.237 7   3097852.38622
  23697907.722    -2981496.190 5  -2273096.62521
  23783187.8004   -2793846.38045  -1986456.63261
 91  4 12 21 32 29.9990000  0  6G19G 2G11G18G16G 6
  20751470.8474   -1407306.52946  -1096602.04862
  21987940.2144   -9487776.55746  -7393046.31062
  22715656.151    -4961356.382 6  -3865976.95421
  21527966.2764    4043651.18947   3121834.32362
  23694844.0264   -2997583.63045  -2285632.34061
  23775526.6364   -2834096.22845  -2017819.98461
 91  4 12 21 32 44.9990000  0  6G19G 2G11G18G16G 6
  20751000.456    -1409764.155 6  -1098517.09522
  21980090.7614   -9529025.33946  -7425188.12562
  22713536.980    -4972489.133 6  -3874651.78221
  21533841.487     4074522.857 7   3145890.06622
  23691813.9334   -3013535.48245  -2298062.37461
  23767871.394    -2874336.698 5  -2049176.02721
 91  4 12 21 32 59.9990000  0  6G19G 2G11G18G16G 6
  20750545.3704   -1412177.69346  -1100397.78263
  21972254.4094   -9570204.93947  -7457276.03762
  22711446.0114   -4983475.59146  -3883212.62061
  21539733.284     4105481.567 7   3170013.62922
  23688795.792    -3029359.421 5  -2310392.77621
  23760212.339    -2914575.052 5  -2080530.42521
 91  4 12 21 33 14.9990000  0  6G19G 2G11G18G16G 6
  20750091.1754   -1414540.94546  -1102239.28563
  21964431.9644   -9611309.21946  -7489305.25862
  22709384.0654   -4994309.63446  -3891654.70461
  21545641.534     4136533.069 7   3194209.50322
  23685811.495    -3045048.990 5  -2322618.44821
  23752556.315    -2954805.409 5  -2111878.59521
 91  4 12 21 33 29.9990000  0  6G19G 2G11G18G16G 6
  20749652.6674   -1416851.02746  -1104039.35363
  21956624.6984   -9652335.54946  -7521273.73762
  22707355.2614   -5004988.53546  -3899975.88061
  21551567.198     4167680.068 7   3218479.78922
  23682852.3784   -3060601.17345  -2334737.07461
  23744903.698    -2995024.981 5  -2143218.36421
 91  4 12 21 33 44.9990000  0  6G19G 2G11G18G16G 6
  20749222.2764   -1419108.42746  -1105798.37563
  21948833.0654   -9693284.25346  -7553181.72962
  22705349.4874   -5015512.79346  -3908176.56561
  21557513.433     4198921.544 7   3242823.69122
  23679920.5114   -3076016.87245  -2346749.36961
  23737250.269    -3035234.371 5  -2174550.17421
 91  4 12 21 33 59.9990000  0  6G19G 2G11G18G16G 6
  20748803.2924   -1421312.75046  -1107516.04163
  21941055.6674   -9734154.73146  -7585028.76362
  22703374.9334   -5025881.71946  -3916256.20961
  21563477.073     4230258.279 7   3267241.82322
  23677013.9564   -3091295.64545  -2358654.95561
  23729603.440    -3075433.076 5  -2205873.69521
 91  4 12 21 34 14.9990000  0  6G19G 2G11G18G16G 6
  20748392.2694   -1423471.53546  -1109198.21763
  21933289.9724   -9774954.84746  -7616820.97662
  22701431.792    -5036102.928 6  -3924220.73721
  21569456.433     4261682.094 7   3291727.80722
  23674133.862    -3106445.031 5  -2370459.71321
  23721955.190    -3115628.931 4  -2237194.95921
 91  4 12 21 34 29.9990000  0  6G19G 2G11G18G16G 6
  20747993.9404   -1425585.28246  -1110845.30063
  21925539.1754   -9815684.89546  -7648558.58662
  22699516.261    -5046176.914 6  -3932070.54821
  21575452.5584    4293192.22047   3316281.05062
  23671271.4724   -3121465.78545  -2382164.26161
  23714301.3944   -3155822.45643  -2268514.41161
 91  4 12 21 34 44.9990000  0  6G19G 2G11G18G16G 6
  20747595.097    -1427656.295 6  -1112459.08323
  21917802.6364   -9856347.29446  -7680243.48262
  22697626.5734   -5056105.90346  -3939807.39761
  21581465.831     4324786.204 7   3340899.63422
  23668436.440    -3136360.243 5  -2393770.38721
  23706654.925    -3196016.006 3  -2299833.88121
 91  4 12 21 34 59.9990000  0  6G19G 2G11G18G16G 6
  20747211.0504   -1429682.11046  -1114037.65063
  21910077.870    -9896939.454 6  -7711873.65022
  22695765.214    -5065887.422 6  -3947429.33221
  21587493.448     4356466.012 7   3365585.09022
  23665628.042    -3151125.752 5  -2405276.03521
  23699006.433    -3236207.070 3  -2331151.40121
 91  4 12 21 35 14.9990000  0  6G19G 2G11G18G16G 6
  20746833.0654   -1431659.24446  -1115578.28163
  21902367.1984   -9937457.86446  -7743446.34462
  22693931.5344   -5075518.06046  -3954933.69261
  21593540.339     4388235.109 7   3390340.12922
  23662844.9254   -3165759.34445  -2416678.89461
  23691361.2304   -3276392.44344  -2362464.49961
 91  4 12 21 35 29.9990000  0  6G19G 2G11G18G16G 6
  20746468.9644   -1433591.71046  -1117084.10463
  21894670.1204   -9977906.74746  -7774964.87262
  22692125.7304   -5085001.90446  -3962323.67161
  21599602.003     4420089.060 7   3415161.28122
  23660083.136    -3180265.034 5  -2427982.07221
  23683708.7534   -3316576.29945  -2393776.44661
 91  4 12 21 35 44.9990000  0  6G19G 2G11G18G16G 6
  20746107.1204   -1435477.05046  -1118553.20663
  21886986.0894  -10018283.86746  -7806427.47462
  22690350.433    -5094336.654 6  -3969597.47721
  21605680.073     4452029.999 7   3440050.21322
  23657346.456    -3194640.388 5  -2439183.72521
  23676064.448    -3356756.326 5  -2425085.38721
 91  4 12 21 35 59.9990000  0  6G19G 2G11G18G16G 6
  20745761.6674   -1437321.19246  -1119990.20663
  21879316.2374  -10058594.74246
  22688600.8314   -5103527.96846  -3976759.51261
  21611775.378     4484051.946 7   3465002.27322
  23654633.4954   -3208891.30045  -2450288.38461
  23668421.433    -3396938.431 5
 91  4 12 21 36 14.9990000  0  6G19G 2G11G18G16G 6
  20745413.0114   -1439123.69446  -1121394.76163
  21871656.940   -10098839.321 6
  22686878.6204   -5112575.50646  -3983809.51061
  21617882.808     4516154.731 7   3490017.32522
  23651946.6674   -3223017.58545  -2461295.93761
  23660774.597    -3437122.366 5
 91  4 12 21 36 29.9990000  0  6G19G 2G11G18G16G 6
  20745083.5114   -1440876.87046  -1122760.87463
  21864011.4874  -10139009.69946
  22685187.1204   -5121471.43146  -3990741.36161
  21624008.620     4548345.868 7   3515101.22122
  23649283.800    -3237011.529 5  -2472200.38621
  23653128.386    -3477300.374 5
 91  4 12 21 36 44.9990000  0  6G19G 2G11G18G16G 6
  20744755.1054   -1442583.67146  -1124090.85963
  21856384.0424  -10179108.85846  -7931745.29362
  22683520.5194   -5130218.75146  -3997557.41661
  21630150.058     4580622.209 7   3540251.50822
  23646645.933    -3250876.329 5  -2483004.17621
  23645483.0264   -3517475.65445
 91  4 12 21 36 59.9990000  0  6G19G 2G11G18G16G 6
  20744442.128    -1444244.137 6  -1125384.73823
  21848765.2224  -10219136.88246  -7962935.87362
  22681886.6054   -5138817.60246  -4004257.81361
  21636309.440     4612983.509 7   3565467.99422
  23644032.487    -3264612.031 5  -2493707.37521
  23637837.026    -3557648.356 5
 91  4 12 21 37 14.9990000  0  6G19G 2G11G18G16G 6
  20744134.2064   -1445854.25246  -1126639.38163
  21841162.823   -10259089.549 6  -7994067.74222
  22680278.3474   -5147263.97146  -4010839.36361
  21642482.542     4645433.222 7   3590753.37922
  23641443.1054   -3278214.78945  -2504306.98261
  23630194.8314   -3597814.47745        -0.07371
 91  4 12 21 37 29.9990000  0  6G19G 2G11G18G16G 6
  20743840.3784   -1447417.33346  -1127857.36863
  21833574.0814  -10298970.33246  -8025143.58862
  22678700.862    -5155561.199 6  -4017304.71621
  21648674.894     4677967.939 7   3616104.99822
  23638879.8314   -3291687.89645  -2514805.57161
  23622550.4254   -3637977.39045    -31295.69861
 91  4 12 21 37 44.9990000  0  6G19G 2G11G18G16G 6
  20743544.769    -1448933.848 6  -1129039.07523
  21825997.042   -10338779.747 6  -8056163.82922
  22677151.058    -5163709.783 7  -4023654.23821
  21654882.378     4710586.985 7   3641522.32622
  23636341.417    -3305032.150 5  -2525203.73821
  23614907.909    -3678137.861 5    -62589.41621
 91  4 12 21 37 59.9990000  0  6G19G 2G11G18G16G 6
  20743268.5974   -1450406.99846  -1130186.99363
  21818435.5114  -10378521.09246  -8087131.02262
  22675626.597    -5171712.921 6  -4029890.43321
  21661104.690     4743286.716 7   3667002.52622
  23633824.362    -3318250.514 5  -2535503.80221
  23607269.0114   -3718299.04445    -93883.67361
 91  4 12 21 38 14.9990000  0  6G19G 2G11G18G16G 6
  20742993.5734   -1451836.55746  -1131300.94563
  21810886.7764  -10418194.01846  -8118044.90762
  22674129.300    -5179570.430 6  -4036013.14721
  21667342.214     4776067.001 7   3692545.49322
  23631333.222    -3331343.057 4  -2545705.81121
  23599622.2224   -3758460.78845   -125178.38161
 91  4 12 21 38 29.9990000  0  6G19G 2G11G18G16G 6
  20742734.2924   -1453215.43346  -1132375.40063
  21803352.159   -10457791.531 7  -8148900.02722
  22672663.8314   -5187275.25546  -4042016.87362
  21673596.534     4808934.878 7   3718156.71222
  23628865.9404   -3344302.55844  -2555804.17561
  23591982.448    -3798616.114 5   -156468.09021
 91  4 12 21 38 44.9990000  0  6G19G 2G11G18G16G 6
  20742477.987    -1454550.022 6  -1133415.35023
  21795829.2144  -10497320.25847  -8179701.54662
  22671225.784    -5194833.998 6  -4047906.78021
  21679867.784     4841883.562 7   3743830.90122
  23626425.519    -3357136.245 5  -2565804.49521
  23584338.7304   -3838771.71145   -187757.99661
 91  4 12 21 38 59.9990000  0  6G19G 2G11G18G16G 6
  20742236.394    -1455835.954 6  -1134417.39122
  21788321.6204  -10536775.68747  -8210445.94662
  22669815.034    -5202242.108 6  -4053679.31521
  21686152.620     4874917.189 7   3769571.27822
  23624004.8864   -3369839.37145  -2575703.08161
  23576698.417    -3878923.083 5   -219044.62221
 91  4 12 21 39 14.9990000  0  6G19G 2G11G18G16G 6
  20741998.003    -1457075.023 6  -1135382.90823
  21780825.698   -10576159.478 7  -8241134.53222
  22668431.3314   -5209501.37846  -4059335.86061
  21692455.714     4908033.717 7   3795376.25022
  23621614.5034   -3382413.58545  -2585501.23061
  23569057.800    -3919072.144 5   -250329.44021
 91  4 12 21 39 29.9990000  0  6G19G 2G11G18G16G 6
  20741773.4954   -1458259.74946  -1136306.07963
  21773346.378   -10615464.548 7  -8271761.77322
  22667082.8394   -5216604.52746  -4064870.75861
  21698774.464     4941240.116 7   3821251.25222
  23619249.5734   -3394852.14544  -2595193.67961
  23561421.620    -3959211.689 5   -281606.84321
 91  4 12 21 39 44.9990000  0  6G19G 2G11G18G16G 6
  20741553.808    -1459400.669 6  -1137195.12123
  21765880.5654  -10654701.14347  -8302335.66162
  22665759.6514   -5223561.94446  -4070292.09761
  21705108.589     4974525.735 7   3847187.98322
  23616906.261    -3407165.564 4  -2604788.60321
  23553782.105    -3999352.237 5   -312885.03321
 91  4 12 21 39 59.9990000  0  6G19G 2G11G18G16G 6
  20741347.011    -1460498.373 6  -1138050.48823
  21758427.237   -10693869.868 7  -8332856.66222
  22664462.284    -5230374.183 6  -4075600.31321
  21711457.948     5007889.793 7   3873185.83922
  23614586.9724   -3419353.99044  -2614286.13161
  23546146.659    -4039494.297 5   -344164.39821
 91  4 12 21 40 14.9990000  0  6G19G 2G11G18G16G 6
  20741146.714    -1461547.402 6  -1138867.92423
  21750985.667   -10732965.322 7  -8363320.56922
  22663194.175    -5237035.963 6  -4080791.30321
  21717823.323     5041337.151 7   3899248.60022
  23612292.3474   -3431412.30444  -2623682.26661
  23538505.261    -4079632.665 5   -375440.89921
 91  4 12 21 40 29.9990000  0  6G19G 2G11G18G16G 6
  20740953.589    -1462558.745 6  -1139655.99823
  21743560.394   -10771998.512 7  -8393735.95922
  22661954.839    -5243558.262 6  -4085873.59621
  21724201.3394    5074856.73047   3925367.63662
  23610019.565    -3443351.665 4  -2632985.70721
  23530864.6364   -4119778.43945   -406723.17761
 91  4 12 21 40 44.9990000  0  6G19G 2G11G18G16G 6
  20740771.378    -1463520.576 6  -1140405.49523
  21736144.112   -10810957.776 6  -8424093.74522
  22660742.573    -5249929.362 6  -4090838.06521
  21730595.901     5108460.057 7   3951551.93222
  23607774.526    -3455160.581 4  -2642187.51021
  23523229.917    -4159919.852 5   -438002.03821
 91  4 12 21 40 59.9990000  0  6G19G 2G11G18G16G 6
  20740596.597    -1464434.533 6  -1141117.68323
  21728744.167   -10849844.785 7  -8454395.22922
  22659557.4254   -5256150.98546  -4095686.07861
  21737005.7064    5142144.93047   3977799.76662
  23605549.9334   -3466840.85345  -2651289.07761
  23515588.659    -4200058.801 5   -469278.97621
 91  4 12 21 41 14.9990000  0  6G19G 2G11G18G16G 6
  20740433.534    -1465293.390 6  -1141786.94023
  21721359.886   -10888652.325 7  -8484634.79522
  22658400.9564   -5262215.93346  -4100412.00761
  21743432.1904    5175918.34247   4004116.59362
  23603350.7374   -3478385.23045  -2660284.75961
  23507955.0894   -4240188.05645   -500548.40261
 91  4 12 21 41 29.9990000  0  6G19G 2G11G18G16G 6
  20740280.761    -1466104.343 6  -1142418.86423
  21713989.401   -10927387.590 7  -8514818.03922
  22657277.136    -5268131.445 6  -4105021.46821
  21749874.9484    5209772.82747   4030496.59062
  23601181.034    -3489801.230 5  -2669180.41221
  23500314.8704   -4280314.87945   -531815.87961
 91  4 12 21 41 44.9990000  0  6G19G 2G11G18G16G 6
  20740131.901    -1466871.728 6  -1143016.84923
  21706630.581   -10966054.875 7  -8544948.31222
  22656181.019    -5273901.913 6  -4109517.93121
  21756331.8944    5243704.03047   4056936.36462
  23599032.690    -3501093.154 5  -2677979.37821
  23492679.6444   -4320443.67245   -563084.92261
 91  4 12 21 41 59.9990000  0  6G19G 2G11G18G16G 6
  20739996.987    -1467595.640 6  -1143580.95523
  21699285.659   -11004654.367 7  -8575025.76122
  22655108.3394   -5279527.53546  -4113901.51761
  21762806.1124    5277711.35547   4083435.45862
  23596907.1514   -3512261.29445  -2686681.88661
  23485042.776    -4360574.859 5   -594355.81121
 91  4 12 21 42 14.9990000  0  6G19G 2G11G18G16G 6
  20739867.440    -1468269.374 6  -1144105.96122
  21691953.690   -11043179.348 7  -8605045.15522
  22654066.5654   -5285001.64746  -4118167.06061
  21769290.1054    5311801.17147   4109998.82862
  23594807.2614   -3523299.21145  -2695282.92161
  23477404.386    -4400701.637 5   -625623.28021
 91  4 12 21 42 29.9990000  0  6G19G 2G11G18G16G 6
  20739748.901    -1468895.438 6  -1144593.82523
  21684636.300   -11081632.563 7  -8635008.62122
  22653052.4564   -5290326.85546  -4122316.55861
  21775792.9174    5345970.68447   4136624.29962
  23592729.4334   -3534209.40245  -2703784.42661
  23469770.9174   -4440826.65745   -656889.37861
 91  4 12 21 42 44.9990000  0  6G19G 2G11G18G16G 6
  20739639.042    -1469474.620 6  -1145045.14923
  21677333.269   -11120014.691 7  -8664916.69122
  22652069.737    -5295503.883 6  -4126350.59621
  21782309.3234    5380218.86447   4163311.07362
  23590675.175    -3544992.784 5  -2712187.12121
  23462136.8084   -4480950.79845   -688154.78461
 91  4 12 21 42 59.9990000  0  6G19G 2G11G18G16G 6
  20739541.839    -1470003.728 6  -1145457.45923
  21670043.362   -11158322.599 7  -8694766.93022
  22651111.3704   -5300529.60446  -4130266.72161
  21788841.8474    5414548.50947   4190061.32562
  23588653.9334   -3555646.13845  -2720488.49161
  23454501.3624   -4521070.99345   -719417.13561
 91  4 12 21 43 14.9990000  0  6G19G 2G11G18G16G 6
  20739444.409    -1470487.376 6  -1145834.34423
  21662765.823   -11196560.976 7  -8724562.99023
  22650185.730    -5305408.669 6  -4134068.58121
  21795390.6204    5448954.74147   4216871.24862
  23586647.0894   -3566174.54045  -2728692.48661
  23446868.769    -4561191.938 5   -750680.05721
 91  4 12 21 43 29.9990000  0  6G19G 2G11G18G16G 6
  20739363.839    -1470919.446 6  -1146171.03323
  21655504.706   -11234723.749 7  -8754300.13523
  22649286.370    -5310135.261 6  -4137751.61521
  21801954.1594    5483443.43747   4243745.43462
  23584667.9874   -3576571.86345  -2736794.36061
  23439230.5814   -4601307.67745   -781938.91961
 91  4 12 21 43 44.9990000  0  6G19G 2G11G18G16G 6
  20739290.573    -1471306.126 6  -1146472.36123
  21648255.362   -11272817.068 7  -8783983.16823
  22648412.2304   -5314715.44946  -4141320.59061
  21808530.6444    5518008.16347   4270678.86262
  23582713.730    -3586844.432 5  -2744799.02221
  23431599.0654   -4641424.33745   -813198.50361
 91  4 12 21 43 59.9990000  0  6G19G 2G11G18G16G 6
  20739226.855    -1471642.696 6  -1146734.63722
  21641019.440   -11310836.258 7  -8813608.42623
  22647570.136    -5319144.543 6  -4144771.81221
  21815124.1904    5552653.13247   4297674.82062
  23580784.9014   -3596987.63345  -2752702.89161
  23423969.2534   -4681537.37145   -844455.26361
 91  4 12 21 44 14.9990000  0  6G19G 2G11G18G16G 6
  20739170.948    -1471933.354 6  -1146961.14123
  21633798.605   -11348785.428 7  -8843179.13423
  22646755.761    -5323426.750 6  -4148108.58121
  21821730.8554    5587374.04747   4324729.95462
  23578880.3314   -3607005.61845  -2760509.17161
  23416332.167    -4721651.032 4   -875712.50621
 91  4 12 21 44 29.9990000  0  6G19G 2G11G18G16G 6
  20739127.589    -1472179.468 6  -1147152.92922
  21626590.706   -11386666.161 7  -8872696.50823
  22645967.714    -5327563.677 6  -4151332.14121
  21828350.9404    5622169.12547   4351842.87562
  23576994.3864   -3616900.17645  -2768219.26661
  23408697.839    -4761766.824 4   -906971.40221
 91  4 12 21 44 44.9990000  0  6G19G 2G11G18G16G 6
  20739085.058    -1472375.372 6  -1147305.59723
  21619395.503   -11424472.793 7  -8902156.14523
  22645210.675    -5331549.718 6  -4154438.13321
  21834989.7694    5657043.70747   4379017.75262
  23575136.3234   -3626666.03345  -2775829.08461
  23401065.4564   -4801879.17645   -938227.62561
 91  4 12 21 44 59.9990000  0  6G19G 2G11G18G16G 6
  20739058.190    -1472526.534 6
  21612214.628   -11462210.732 7  -8931562.25423
  22644478.495    -5335390.285 6  -4157430.77321
  21841639.9874    5691992.36347   4406250.34762
  23573302.7844   -3636308.53045  -2783342.79161
  23393431.550    -4841993.580 5   -969485.45121
 91  4 12 21 45 14.9990000  0  6G19G 2G11G18G16G 6
  20739036.706    -1472639.164 6
  21605044.769   -11499886.303 7  -8960919.75923
  22643772.183    -5339091.630 6  -4160314.92321
  21848302.0974    5727008.40947   4433535.44862
  23571488.0974   -3645833.87745  -2790765.20161
  23385794.581    -4882116.372 5  -1000749.83021
 91  4 12 21 45 29.9990000  0  6G19G 2G11G18G16G 6
  20739028.800    -1472700.235 6
  21597888.894   -11537486.591 7  -8990218.60723
  22643100.034    -5342640.861 6  -4163080.55221
  21854982.183     5762104.306 7   4460882.77222
  23569701.1204   -3655229.34545  -2798086.40861
  23378160.0974   -4922234.63945  -1032010.70161
 91  4 12 21 45 44.9990000  0  6G19G 2G11G18G16G 6
  20739022.620    -1472712.332 6
  21590748.222   -11575014.078 7  -9019460.72823
  22642452.698    -5346040.697 6  -4165729.75321
  21861673.8944    5797277.14947   4488290.06062
  23567937.5584   -3664497.62345  -2805308.49761
  23370529.4484   -4962351.04245  -1063270.09261
 91  4 12 21 45 59.9990000  0  6G19G 2G11G18G16G 6
  20739030.222    -1472681.712 6
  21583619.558   -11612475.257 7  -9048651.17523
  22641831.2614   -5349297.47646  -4168267.50161
  21868383.3624    5832520.48847   4515752.27562
  23566198.1904   -3673644.92045  -2812436.33361
  23362893.815    -5002471.933 5  -1094533.00821
 91  4 12 21 46 14.9990000  0  6G19G 2G11G18G16G 6
  20739043.636    -1472598.595 6
  21576506.589   -11649860.125 7  -9077782.15823
  22641241.5424   -5352401.47046  -4170686.19561
  21875104.4334    5867843.79947   4543276.80662
  23564481.058    -3682661.822 5  -2819462.55721
  23355257.6834   -5042587.55745  -1125791.81661
 91  4 12 21 46 29.9990000  0  6G19G 2G11G18G16G 6
  20739069.737    -1472470.206 6
  21569403.917   -11687175.967 7  -9106859.35923
  22640677.065    -5355359.858 6  -4172991.41621
  21881839.8944    5903239.70547   4570857.90362
  23562789.808    -3691555.827 5  -2826393.01621
  23347623.5584   -5082705.19445  -1157052.18261
 91  4 12 21 46 44.9990000  0  6G19G 2G11G18G16G 6
  20739100.5654   -1472299.59946
  21562316.964   -11724426.233 7  -9135885.46223
  22640141.690    -5358176.130 6  -4175185.91021
  21888589.0584    5938704.36847   4598492.57562
  23561119.1284   -3700330.31145  -2833230.34161
  23339987.3234   -5122828.30845  -1188316.81361
 91  4 12 21 46 59.9990000  0  6G19G 2G11G18G16G 6
  20739145.3864   -1472083.21446
  21555239.511   -11761607.241 7  -9164857.59223
  22639635.714    -5360846.643 6  -4177266.81521
  21895351.4644    5974241.38547   4626183.63462
  23559471.815    -3708981.819 5  -2839971.85121
  23332354.995    -5162953.345 5  -1219582.94921
 91  4 12 21 47 14.9990000  0  6G19G 2G11G18G16G 6
  20739190.9874   -1471816.21746  -1146870.01263
  21548179.597   -11798714.187 7  -9193772.01823
  22639155.7224   -5363366.64846  -4179230.45761
  21902128.5114    6009855.45346   4653934.72462
  23557849.1674   -3717505.31445  -2846613.60061
  23324721.940    -5203075.347 5  -1250846.72221
 91  4 12 21 47 29.9990000  0  6G19G 2G11G18G16G 6
  20739254.136    -1471501.331 6  -1146624.65923
  21541130.495   -11835749.834 7  -9222630.88023
  22638702.011    -5365738.962 6  -4181078.99821
  21908919.3314    6045543.25847   4681743.27662
  23556252.190    -3725903.946 5  -2853158.05821
  23317086.565    -5243197.271 5  -1282110.44721
 91  4 12 21 47 44.9990000  0  6G19G 2G11G18G16G 6
  20739321.0894   -1471145.92246  -1146347.72462
  21534095.058   -11872721.537 7  -9251439.91823
  22638276.917    -5367970.969 6  -4182818.20921
  21915723.8784    6081297.02847   4709603.23462
  23554677.8624   -3734185.13545  -2859611.00161
  23309449.1124   -5283326.50045  -1313379.85161
 91  4 12 21 47 59.9990000  0  6G19G 2G11G18G16G 6
  20739399.628    -1470742.005 6  -1146032.99623
  21527074.980   -11909621.326 7  -9280192.91723
  22637881.7374   -5370054.73246  -4184441.90561
  21922542.519     6117124.596 7   4737520.68722
  23553126.2374   -3742341.18545  -2865966.43461
  23301812.730    -5323455.138 5  -1344648.80521
 91  4 12 21 48 14.9990000  0  6G19G 2G11G18G16G 6
  20739484.870    -1470286.087 6  -1145677.74322
  21520066.394   -11946445.589 7  -9308887.06923
  22637513.987    -5371986.717 6  -4185947.34021
  21929374.776     6153029.297 7   4765498.24022
  23551598.0424   -3750368.46045  -2872221.54061
  23294175.370    -5363579.508 5  -1375914.43821
 91  4 12 21 48 29.9990000  0  6G19G 2G11G18G16G 6
  20739583.5734   -1469784.53646  -1145286.93363
  21513071.909   -11983201.001 7  -9337527.57223
  22637175.1284   -5373773.72046  -4187339.79661
  21936221.0344    6189004.41847   4793530.68062
  23550094.9254   -3758273.61245  -2878381.45061
  23286538.292    -5403706.454 5  -1407182.09521
 91  4 12 21 48 44.9990000  0  6G19G 2G11G18G16G 6
  20739684.1124   -1469237.82546  -1144860.93363
  21506091.573   -12019888.216 7  -9366114.93323
  22636860.839    -5375416.356 6  -4188619.75921
  21943078.605     6225049.010 7   4821617.24721
  23548614.042    -3766057.667 5  -2884447.02521
  23278903.644    -5443836.499 5  -1438452.15021
 91  4 12 21 48 59.9990000  0  6G19G 2G11G18G16G 6
  20739800.3704   -1468642.81146  -1144397.29163
  21499124.089   -12056503.970 7  -9394646.61622
  22636575.7304   -5376911.50946  -4189784.81261
  21949950.6514    6261165.77547   4849760.05762
  23547154.831    -3773717.334 5  -2890415.67521
  23271267.886    -5483966.528 5  -1469722.20221
 91  4 12 21 49 14.9990000  0  6G19G 2G11G18G16G 6
  20739917.534    -1467997.559 6  -1143894.51023
  21492170.097   -12093046.582 7  -9423121.30423
  22636323.401    -5378257.508 6  -4190833.62821
  21956837.3234    6297356.43046   4877960.43961
  23545721.847    -3781251.159 5  -2896286.26421
  23263630.2614   -5524094.86545  -1500990.90461
 91  4 12 21 49 29.9990000  0  6G19G 2G11G18G16G 6
  20740055.222    -1467307.469 6  -1143356.79223
  21485228.901   -12129521.107 7  -9451542.94223
  22636092.480    -5379459.553 6  -4191770.26521
  21963737.628     6333615.448 6   4906214.08722
  23544311.8154   -3788664.32745  -2902062.82361
  23255994.917    -5564226.644 5  -1532262.27921
 91  4 12 21 49 44.9990000  0  6G19G 2G11G18G16G 6
  20740189.894    -1466573.826 6  -1142785.13022
  21478300.964   -12165929.071 7  -9479912.70523
  22635888.800    -5380519.222 6  -4192595.96721
  21970648.9954    6369940.99346   4934519.58062
  23542923.144    -3795958.663 5  -2907746.80221
  23248354.6054   -5604363.58645  -1563537.67761
 91  4 12 21 49 59.9990000  0  6G19G 2G11G18G16G 6
  20740345.886    -1465792.990 6  -1142176.69923
  21471384.651   -12202267.171 7  -9508228.03223
  22635713.5584   -5381432.88846  -4193307.91361
  21977576.0734    6406336.44846   4962879.54662
  23541557.776    -3803130.638 5  -2913335.42721
  23240717.964    -5644502.004 5  -1594814.23121
 91  4 12 21 50 14.9990000  0  6G19G 2G11G18G16G 6
  20740498.394    -1464962.551 6  -1141529.61823
  21464484.167   -12238532.631 7  -9536486.75723
  22635567.565    -5382198.254 6  -4193904.28121
  21984516.136     6442804.109 6   4991295.77322
  23540216.230    -3810178.060 5  -2918827.00021
  23233079.6054   -5684639.49345  -1626090.07761
 91  4 12 21 50 29.9990000  0  6G19G 2G11G18G16G 6
  20740668.401    -1464079.606 6  -1140841.62223
  21457597.198   -12274722.711 7  -9564686.74923
  22635452.7454   -5382812.40846  -4194382.83361
  21991471.6514    6479346.25446   5019770.04662
  23538900.097    -3817098.043 5  -2924219.25921
  23225443.5344   -5724773.21445  -1657362.98961
 91  4 12 21 50 44.9990000  0  6G19G 2G11G18G16G 6
  20740843.4724   -1463146.40246  -1140114.46163
  21450725.003   -12310839.685 7  -9592829.76423
  22635364.151    -5383277.849 6  -4194745.50521
  21998436.831     6515960.421 6   5048300.43422
  23537606.0974   -3823893.14445  -2929514.19961
  23217804.8084   -5764905.62345  -1688634.87761
 91  4 12 21 50 59.9990000  0  6G19G 2G11G18G16G 6
  20741029.5894   -1462168.07346  -1139352.13263
  21443864.190   -12346888.820 7  -9620919.92623
  22635304.9254   -5383599.79746  -4194996.35661
  22005418.925     6552641.229 6   5076882.75021
  23536334.7844   -3830568.70445  -2934716.01061
  23210168.4644   -5805041.93645  -1719909.82761
 91  4 12 21 51 14.9990000  0  6G19G 2G11G18G16G 6
  20741222.6674   -1461142.77446  -1138553.20863
  21437018.940   -12382868.449 7  -9648955.92623
  22635273.3704   -5383776.59346
  22012408.894     6589390.100 6   5105518.10122
  23535092.4804   -3837122.92345  -2939823.25961
  23202528.7614   -5845180.40345  -1751186.42161
 91  4 12 21 51 29.9990000  0  6G19G 2G11G18G16G 6
  20741430.3474   -1460061.90446  -1137710.98563
  21430185.987   -12418770.043 7  -9676931.12122
  22635267.065    -5383799.719 6
  22019418.737     6626215.262 6   5134212.89622
  23533869.1364   -3843547.33445  -2944829.38561
  23194892.0504   -5885312.54545  -1782458.10061
 91  4 12 21 51 44.9990000  0  6G19G 2G11G18G16G 6
  20741644.065    -1458933.442 6  -1136831.67123
  21423366.948   -12454601.521 7  -9704851.68122
  22635287.534    -5383677.309 6
  22026440.870     6663108.500 6   5162960.73822
  23532668.753    -3849850.249 5  -2949740.81921
  23187252.7844   -5925446.27945  -1813731.03261
 91  4 12 21 51 59.9990000  0  6G19G 2G11G18G16G 6
  20741867.3624   -1457761.28146  -1135918.31563
  21416561.9404  -12490366.87847  -9732720.72062
  22635343.105    -5383413.434 6
  22033472.855     6700065.590 6   5191758.34222
  23531490.1904   -3856036.01745  -2954560.97861
  23179616.300    -5965585.761 5  -1845008.40221
 91  4 12 21 52 14.9990000  0  6G19G 2G11G18G16G 6
  20742102.347    -1456535.069 6  -1134962.83823
  21409769.886   -12526055.882 7  -9760530.26222
  22635417.4724   -5382997.89546  -4194527.26461
  22040519.448     6737096.593 6   5220613.53822
  23530335.886    -3862094.209 5  -2959281.69821
  23171979.5894   -6005720.64445  -1876282.19961
 91  4 12 21 52 29.9990000  0  6G19G 2G11G18G16G 6
  20742344.097    -1455263.062 6  -1133971.68423
  21402991.7924  -12561676.66947  -9788286.65062
  22635527.4804   -5382439.06746  -4194091.81561
  22047577.253     6774193.020 6   5249519.70622
  23529208.933    -3868033.163 5  -2963909.55421
  23164342.4094   -6045859.24345  -1907558.90061
 91  4 12 21 52 44.9990000  0  6G19G 2G11G18G16G 6
  20742592.948    -1453949.354 6  -1132948.02822
  21396225.339   -12597233.431 7  -9815993.14322
  22635656.503    -5381740.956 6  -4193547.81621
  22054649.565     6811350.564 6   5278473.49321
  23528101.3314   -3873857.35245  -2968447.96561
  23156702.4564   -6086005.63545  -1938841.68361
 91  4 12 21 52 59.9990000  0  6G19G 2G11G18G16G 6
  20742854.636    -1452583.120 6  -1131883.44723
  21389471.917   -12632715.363 7  -9843641.33323
  22635819.347    -5380892.955 6  -4192887.02821
  22061734.269     6848579.480 6   5307482.90821
  23527017.269    -3879555.958 5  -2972888.52621
  23149061.9724   -6126149.20145  -1970122.24461
 91  4 12 21 53 14.9990000  0  6G19G 2G11G18G16G 6
  20743119.261    -1451170.881 6  -1130783.01523
  21382733.019   -12668129.138 7  -9871236.41123
  22636008.456    -5379901.978 6  -4192114.82521
  22068830.503     6885872.714 6   5336542.42822
  23525951.7064   -3885136.06445  -2977236.71861
  23141424.097    -6166296.636 5  -2001405.82221
 91  4 12 21 53 29.9990000  0  6G19G 2G11G18G16G 6
  20743401.487    -1449708.242 6  -1129643.31523
  21376009.175   -12703470.498 7  -9898775.06023
  22636225.7304   -5378763.59846  -4191227.76861
  22075940.651     6923234.439 6   5365655.32721
  23524916.1364   -3890593.45745  -2981489.30361
  23133782.589    -6206443.573 5  -2032689.02121
 91  4 12 21 53 44.9990000  0  6G19G 2G11G18G16G 6
  20743688.315    -1448201.318 6  -1128469.10822
  21369296.269   -12738745.674 7  -9926262.13623
  22636467.495    -5377484.194 6  -4190230.79721
  22083063.237     6960658.272 6   5394816.62021
  23523899.190    -3895934.462 5  -2985651.20321
  23126140.730    -6246596.283 5  -2063976.70221
 91  4 12 21 53 59.9990000  0  6G19G 2G11G18G16G 6
  20743986.503    -1446641.007 6
  21362598.495   -12773945.298 7  -9953690.34223
  22636737.847    -5376054.526 6
  22090197.034     6998153.217 6   5424033.32221
  23522907.5344   -3901149.84345  -2989715.21261
  23118501.034    -6286745.594 5  -2095261.74221
 91  4 12 21 54 14.9990000  0  6G19G 2G11G18G16G 6
  20744290.6364   -1445032.74646
  21355913.7844  -12809075.16547  -9981064.19663
  22637040.386    -5374480.497 6
  22097345.909     7035713.238 6   5453300.73121
  23521938.167    -3906245.305 5  -2993685.75921
  23110861.5814   -6326897.10545  -2126548.50761
 91  4 12 21 54 29.9990000  0  6G19G 2G11G18G16G 6
  20744608.230    -1443373.440 6  -1124707.17323
  21349242.5814  -12844132.06947 -10008381.19263
  22637364.620    -5372758.866 6  -4186548.69221
  22104503.667     7073341.281 6   5482621.15021
  23520989.9014   -3911217.90045  -2997560.59561
  23103221.261    -6367047.639 5  -2157834.48621
 91  4 12 21 54 44.9990000  0  6G19G 2G11G18G16G 6
  20744929.542    -1441670.582 6  -1123380.28923
  21342582.2374  -12879123.60047 -10035647.25263
  22637720.3084   -5370897.24846  -4185098.08461
  22111677.925     7111029.437 6   5511988.40721
  23520064.9564   -3916075.43645  -3001345.78861
  23095577.487    -6407204.741 5  -2189125.59121
 91  4 12 21 54 59.9990000  0  6G19G 2G11G18G16G 6
  20745263.378    -1439917.970 6  -1122014.63823
  21335937.5974  -12914043.61847 -10062857.59062
  22638104.214    -5368889.740 6  -4183533.77721
  22118861.761     7148783.428 6   5541406.96421
  23519164.1364   -3920812.07645  -3005036.74361
  23087936.276    -6447362.447 5  -2220417.17121
 91  4 12 21 55 14.9990000  0  6G19G 2G11G18G16G 6
  20745604.573    -1438120.188 6  -1120613.78722
  21329304.6444  -12948896.69047 -10090015.76063
  22638511.8314   -5366741.06546  -4181859.48061
  22126058.206     7186598.472 6   5570873.09221
  23518288.073    -3925432.613 5  -3008637.25421
  23080294.0034   -6487525.43245  -2251712.87761
 91  4 12 21 55 29.9990000  0  6G19G 2G11G18G16G 6
  20745962.831    -1436269.325 6  -1119171.57222
  21322686.7614  -12983675.42547 -10117116.00863
  22638950.784    -5364443.722 6  -4180069.32921
  22133266.042     7224481.744 6   5600392.39121
  23517434.612    -3929929.654 5  -3012141.51921
  23072650.5034   -6527686.11045  -2283006.78661
 91  4 12 21 55 44.9990000  0  6G19G 2G11G18G16G 6
  20746318.784    -1434370.168 6  -1117691.73223
  21316081.5424  -13018384.48147 -10144161.95662
  22639413.8554   -5362002.33846  -4178166.93261
  22140488.909     7262428.586 6   5629961.21621
  23516597.6984   -3934307.57245  -3015552.97061
  23065006.2064   -6567849.07145  -2314302.47461
 91  4 12 21 55 59.9990000  0  6G19G 2G11G18G16G 6
  20746689.362    -1432425.747 6  -1116176.62123
  21309489.9014  -13053026.88147 -10171155.97462
  22639905.5504   -5359420.11346  -4176154.80761
  22147721.917     7300435.616 6   5659576.94821
  23515787.261    -3938569.877 5  -3018874.34921
  23057363.0734   -6608017.48745  -2345602.41661
 91  4 12 21 56 14.9990000  0  6G19G 2G11G18G16G 6
  20747069.378    -1430432.319 6  -1114623.31923
  21302910.7534  -13087598.79547 -10198095.06563
  22640423.730    -5356693.490 6  -4174030.15021
  22154965.026     7338506.313 6   5689242.28521
  23514999.487    -3942712.972 4  -3022102.80921
  23049717.8234   -6648187.59445  -2376903.66161
 91  4 12 21 56 29.9990000  0  6G19G 2G11G18G16G 6
  20747458.237    -1428391.362 6  -1113032.98323
  21296344.9174  -13122102.05647 -10224980.65463
  22640971.0974   -5353824.18346  -4171794.31861
  22162223.269     7376638.515 6   5718955.54821
  23514233.425    -3946738.752 4  -3025239.86621
  23042073.612    -6688361.118 5  -2408207.56921
 91  4 12 21 56 44.9990000  0  6G19G 2G11G18G16G 6
  20747854.394    -1426298.930 6  -1111402.53223
  21289792.4094  -13156532.68647 -10251809.65063
  22641544.5344   -5350808.33946  -4169444.31661
  22169492.362     7414836.094 6   5748719.75521
  23513490.440    -3950643.495 4  -3028282.62421
  23034431.644    -6728534.136 5  -2439511.08921
 91  4 12 21 56 59.9990000  0  6G19G 2G11G18G16G 6
  20748267.9334   -1424158.00546  -1109734.29062
  21283253.9094  -13190893.68447 -10278584.38963
  22642143.7454   -5347649.07546  -4166982.54261
  22176771.9564    7453095.88646   5778532.44161
  23512766.7304   -3954430.27144  -3031233.41761
  23026783.831    -6768709.608 5  -2470816.50621
 91  4 12 21 57 14.9990000  0  6G19G 2G11G18G16G 6
  20748677.339    -1421969.485 6  -1108028.96523
  21276729.2694  -13225186.12947 -10305305.70963
  22642775.315    -5344347.594 6  -4164409.95021
  22184064.292     7491416.421 6   5808392.45421
  23512070.8004   -3958100.07044  -3034093.09261
  23019137.292    -6808888.695 5  -2502124.74921
 91  4 12 21 57 29.9990000  0  6G19G 2G11G18G16G 6
  20749104.839    -1419730.903 6  -1106284.62922
  21270217.1054  -13259407.50447 -10331971.64463
  22643429.8704   -5340901.44846  -4161724.63361
  22191368.4334    7529799.78446   5838301.42561
  23511390.776    -3961650.745 4  -3036859.94421
  23011491.4874   -6849068.84545  -2533433.82161
 91  4 12 21 57 44.9990000  0  6G19G 2G11G18G16G 6
  20749539.433    -1417443.553 6  -1104502.29523
  21263717.1284  -13293559.17947 -10358583.27163
  22644111.3624   -5337312.19046  -4158927.80261
  22198683.6444    7568244.24646   5868258.00161
  23510745.9014   -3965083.89644  -3039535.21461
  23003845.8004   -6889251.48145  -2564744.83861
 91  4 12 21 57 59.9990000  0  6G19G 2G11G18G16G 6
  20749987.847    -1415115.052 6  -1102687.89222
  21257232.1204  -13327648.80647 -10385146.55163
  22644821.839    -5333587.528 7  -4156025.49321
  22206010.042     7606742.351 6   5898256.38721
  23510106.1834   -3968407.44744  -3042125.11961
  22996197.651    -6929444.113 5  -2596063.67221
 91  4 12 21 58 14.9990000  0  6G19G 2G11G18G16G 6
  20750436.894    -1412736.824 6  -1100834.74022
  21250756.3084  -13361667.94947 -10411654.91163
  22645555.417    -5329719.081 6  -4153011.09521
  22213349.0654    7645301.95346   5928302.68661
  23509495.9724   -3971612.89544  -3044622.95261
  22988547.6284   -6969638.47245  -2627383.85361
 91  4 12 21 58 29.9990000  0  6G19G 2G11G18G16G 6
  20750899.862    -1410312.264 6  -1098945.48923
  21244295.5344  -13395619.95447 -10438110.95363
  22646319.644    -5325710.248 6  -4149887.34921
  22220695.9804    7683919.46446   5958394.10461
  23508912.792    -3974703.530 4  -3047031.34521
  22980898.8624   -7009837.70145  -2658707.80661
 91  4 12 21 58 44.9990000  0  6G19G 2G11G18G16G 6
  20751368.589    -1407831.729 6  -1097012.62022
  21237850.6364  -13429495.27047 -10464507.23763
  22647112.487    -5321551.594 6  -4146646.82821
  22228057.2454    7722604.29146   5988537.97761
  23508343.769    -3977670.294 4  -3049343.20021
  22973249.1984   -7050032.51345  -2690028.29161
 91  4 12 21 58 59.9990000  0  6G19G 2G11G18G16G 6
  20751851.347    -1405305.703 6  -1095044.30322
  21231415.6754  -13463304.59547 -10490852.10163
  22647930.0504   -5317253.90746  -4143297.99361
  22235430.4334    7761345.30546   6018725.63561
  23507802.776    -3980524.003 4  -3051566.97121
  22965596.8944   -7090233.40345  -2721353.50961
 91  4 12 21 59 14.9990000  0  6G19G 2G11G18G16G 6
  20752339.433    -1402727.185 6  -1093035.08723
  21224996.0974  -13497040.74147 -10517139.93963
  22648777.776    -5312810.354 6  -4139835.48021
  22242814.3084    7800149.51946   6048962.54061
  23507283.175    -3983257.922 5  -3053697.38721
  22957949.065    -7130433.445 5  -2752678.05921
 91  4 12 21 59 29.9980000  0  6G19G 2G11G18G16G 6
  20752844.975    -1400098.542 6  -1090986.81222
  21218589.1394  -13530704.02147 -10543370.99963
  22649648.1474   -5308223.69546  -4136261.45561
  22250209.2794    7839011.45446   6079244.41961
  23506782.3504   -3985874.25144  -3055736.18761
  22950301.3974   -7170632.37245  -2784001.77561
 91  4 12 21 59 44.9980000  0  6G19G 2G11G18G16G 6
  20753350.693    -1397425.458 6  -1088903.90923
  21212196.1864  -13564305.05847 -10569553.56763
  22650547.717    -5303499.502 6  -4132580.25921
  22257617.139     7877929.983 6   6109570.39621
  23506308.5924   -3988379.43145  -3057688.37061
  22942645.9364   -7210841.45345  -2815333.44561
 91  4 12 21 59 59.9980000  0  6G19G 2G11G18G16G 6
  20753867.607    -1394707.884 6  -1086786.33223
  21205815.1934  -13597841.44547 -10595685.75063
  22651471.9904   -5298637.96846  -4128792.04061
  22265033.6234    7916902.47946   6139938.42361
  23505854.0454   -3990773.59045  -3059554.03961
  22934997.529    -7251058.099 5  -2846671.00321
 91  4 12 22  0 14.9980000  0  6G19G 2G11G18G16G 6
  20754397.897    -1391944.442 6  -1084633.02223
  21199443.8574  -13631311.86047 -10621766.52563
  22652422.6394   -5293637.93346  -4124895.91861
  22272458.9824    7955929.93846   6170349.29161
  23505419.326    -3993055.592 5  -3061332.32721
  22927342.576    -7291280.826 5  -2878013.27521
 91  4 12 22  0 29.9980000  0  6G19G 2G11G18G16G 6
  20754930.654    -1389130.632 6  -1082440.46223
  21193088.4514  -13664711.69247 -10647792.30763
  22653401.982    -5288495.067 6  -4120888.47521
  22279898.7484    7995016.76546   6200806.40861
  23505007.1074   -3995221.04245  -3063019.78161
  22919685.537    -7331505.137 5  -2909356.72521
 91  4 12 22  0 44.9980000  0  6G19G 2G11G18G16G 6
  20755476.373    -1386268.199 6  -1080210.00823
  21186745.9434  -13698042.95047 -10673764.64663
  22654408.0684   -5283211.28947  -4116771.25561
  22287345.8574    8034160.70246   6231308.02861
  23504619.7254   -3997271.72645  -3064617.81361
  22912031.0454   -7371732.93045  -2940702.89861
 91  4 12 22  0 59.9980000  0  6G19G 2G11G18G16G 6
  20756032.936    -1383355.829 6  -1077940.64823
  21180417.1934  -13731304.47847 -10699682.65663
  22655441.451    -5277785.552 6  -4112543.38821
  22294807.326     8073362.689 6   6261854.88021
  23504247.834    -3999206.884 5  -3066125.82721
  22904376.7324   -7411963.04046  -2972050.90361
 91  4 12 22  1 14.9980000  0  6G19G 2G11G18G16G 6
  20756593.4904   -1380394.67946  -1075633.26963
  21174101.3344  -13764497.51047 -10725547.29763
  22656499.3114   -5272219.26646  -4108206.02761
  22302278.1624    8112621.02546   6292445.64461
  23503902.2324   -4001028.24245  -3067545.16761
  22896721.045    -7452196.842 6  -3003401.79621
 91  4 12 22  1 29.9980000  0  6G19G 2G11G18G16G 6
  20757168.225    -1377382.549 6  -1073286.17523
  21167796.9204  -13797619.90647 -10751356.88563
  22657584.4204   -5266510.30846  -4103757.50261
  22309759.4434    8151937.60246   6323081.78961
  23503577.2404   -4002733.19945  -3068873.79661
  22889064.717    -7492432.004 5  -3034753.76621
 91  4 12 22  1 44.9980000  0  6G19G 2G11G18G16G 6
  20757750.803    -1374320.570 6  -1070900.23323
  21161506.8264  -13830672.74947 -10777112.28463
  22658697.3734   -5260659.88346  -4099198.72861
  22317252.0454    8191311.33046   6353762.46661
  23503275.615    -4004323.294 5  -3070112.93621
  22881406.0534   -7532669.56545  -3066107.63061
 91  4 12 22  1 59.9980000  0  6G19G 2G11G18G16G 6
  20758344.459    -1371206.430 6  -1068473.64623
  21155232.0144  -13863653.99647 -10802811.88763
  22659837.2874   -5254666.10546  -4094528.25061
  22324755.2874    8230743.59346   6384488.75761
  23502996.0534   -4005796.65645  -3071261.11261
  22873748.615    -7572907.561 5  -3097461.77421
 91  4 12 22  2 14.9980000  0  6G19G 2G11G18G16G 6
  20758944.576    -1368044.538 6  -1066009.85422
  21148968.1474  -13896567.91847 -10828459.03363
  22661006.1934   -5248533.36646  -4089749.49261
  22332268.8654    8270229.96046   6415257.19061
  23502737.3654   -4007158.04645  -3072322.03561
  22866091.451    -7613150.250 6  -3128819.56421
 91  4 12 22  2 29.9980000  0  6G19G 2G11G18G16G 6
  20759557.561    -1364831.181 6  -1063505.96323
  21142718.6154  -13929410.76047 -10854050.79663
  22662201.506    -5242258.114 6  -4084859.67321
  22339796.5224    8309774.12846   6446070.68261
  23502499.623    -4008403.536 5  -3073292.64421
  22858434.3894   -7653393.94646  -3160178.16761
 91  4 12 22  2 44.9980000  0  6G19G 2G11G18G16G 6
  20760176.654    -1361567.410 6  -1060962.78423
  21136483.5454  -13962183.62747 -10879588.03063
  22663421.4434   -5235841.72446  -4079859.88661
  22347330.8974    8349374.45846   6476927.92561
  23502283.5684   -4009534.80645  -3074174.24361
  22850773.5224   -7693639.82946  -3191538.47561
 91  4 12 22  2 59.9980000  0  6G19G 2G11G18G16G 6
  20760806.451    -1358256.139 6  -1058382.59123
  21130258.2324  -13994889.97047 -10905073.42663
  22664669.0144   -5229287.52746  -4074752.71661
  22354875.139     8389027.560 6   6507826.28721
  23502090.2794   -4010555.15545  -3074969.41761
  22843113.311    -7733891.187 5  -3222903.04021
 91  4 12 22  3 14.9980000  0  6G19G 2G11G18G16G 6
  20761446.748    -1354899.479 6  -1055767.02622
  21124046.7794  -14027531.90947 -10930508.63463
  22665938.0374   -5222597.73746  -4069539.91261
  22362432.5924    8428730.87346   6538763.78461
  23501915.9434   -4011466.71945  -3075679.83661
  22835452.748    -7774150.098 5  -3254273.49021
 91  4 12 22  3 29.9980000  0  6G19G 2G11G18G16G 6
  20762093.951    -1351485.254 6  -1053106.61323
  21117849.0764  -14060097.05347 -10955884.00763
  22667244.4284   -5215760.41746  -4064212.15661
  22369998.5224    8468496.36546   6569749.73061
  23501766.0684   -4012257.73545  -3076296.30661
  22827792.709    -7814404.331 5  -3285640.30321
 91  4 12 22  3 44.9980000  0  6G19G 2G11G18G16G 6
  20762753.014    -1348022.682 6  -1050408.51822
  21111663.8504  -14092594.87347 -10981206.92263
  22668568.6544   -5208784.96246  -4058776.70461
  22377577.0684    8508314.55346   6600776.73161
  23501637.311    -4012937.653 5  -3076826.21021
  22820131.647    -7854663.152 6  -3317010.72021
 91  4 12 22  3 59.9980000  0  6G19G 2G11G18G16G 6
  20763421.912    -1344509.102 6  -1047670.67822
  21105494.9984  -14125022.94747 -11006475.48963
  22669925.5144   -5201668.73847  -4053231.63561
  22385164.2254    8548187.44146   6631846.35861
  23501529.5454   -4013503.87045  -3077267.52361
  22812470.795    -7894924.028 6  -3348382.73221
 91  4 12 22  4 14.9980000  0  6G19G 2G11G18G16G 6
  20764098.459    -1340946.193 6  -1044894.40223
  21099335.5294  -14157382.70947 -11031690.82463
  22671306.2404   -5194413.47646  -4047578.13161
  22392761.6474    8588113.44146   6662957.37261
  23501440.647    -4013958.026 5  -3077621.52321
  22804807.5844   -7935188.51745  -3379757.53761
 91  4 12 22  4 29.9980000  0  6G19G 2G11G18G16G 6
  20764787.272    -1337327.582 6  -1042074.72422
  21093191.8344  -14189667.97547 -11056848.11463
  22672712.982    -5187013.279 6  -4041811.77121
  22400369.8184    8628098.48746   6694114.39461
  23501380.350    -4014294.646 5  -3077883.92221
  22797145.717    -7975450.476 5  -3411130.35121
 91  4 12 22  4 44.9980000  0  6G19G 2G11G18G16G 6
  20765486.936    -1333656.683 6  -1039214.30323
  21087063.0454  -14221882.33447 -11081950.14563
  22674147.662    -5179471.771 6  -4035935.26021
  22407990.912     8668138.700 6   6725314.40021
  23501336.3894   -4014517.02745  -3078057.30761
  22789484.5454   -8015713.38745  -3442503.89961
 91  4 12 22  4 59.9980000  0  6G19G 2G11G18G16G 6
  20766195.615    -1329930.467 6  -1036310.77522
  21080945.6074  -14254022.84547 -11106994.63163
  22675609.8344   -5171786.00246  -4029946.35061
  22415617.3344    8708236.90146   6756559.59761
  23501317.568    -4014622.633 5
  22781820.0534   -8055974.16145  -3473875.79061
 91  4 12 22  5 14.9980000  0  6G19G 2G11G18G16G 6
  20766914.850    -1326157.113 6  -1033370.51622
  21074843.7644  -14286097.82947 -11131988.06263
  22677101.0684   -5163964.61346  -4023851.76461
  22423259.725     8748384.300 6   6787843.12621
  23501313.967    -4014619.987 5
  22774160.9044   -8096241.16646  -3505252.59761
 91  4 12 22  5 29.9980000  0  6G19G 2G11G18G16G 6
  20767641.647    -1322330.268 6  -1030388.57222
  21068752.2254  -14318100.96347 -11156925.50263
  22678612.365    -5156001.321 6  -4017646.61721
  22430912.3034    8788586.98546   6819169.74761
  23501339.998    -4014502.727 5
  22766500.389    -8136508.110 6  -3536629.34921
 91  4 12 22  5 44.9980000  0  6G19G 2G11G18G16G 6
  20768380.8654   -1318452.75246  -1027367.14762
  21062675.9514  -14350035.09847 -11181809.18063
  22680157.225    -5147899.098 7  -4011333.20321
  22438568.436     8828842.018 6   6850537.14021
  23501383.670    -4014274.122 5
  22758836.068    -8176777.725 5  -3568008.17821
 91  4 12 22  5 59.9980000  0  6G19G 2G11G18G16G 6
  20769127.553    -1314517.383 6  -1024300.63822
  21056611.7254  -14381893.39647 -11206633.75763
  22681727.1624   -5139651.14746  -4004906.18261
  22446245.1154    8869156.19146   6881950.62761
  23501448.061    -4013927.275 5
  22751173.303    -8217043.098 5  -3599383.66121
 91  4 12 22  6 14.9980000  0  6G19G 2G11G18G16G 6
  20769887.256    -1310529.288 6  -1021193.04822
  21050563.7564  -14413680.89447 -11231403.17063
  22683320.975    -5131262.621 6  -3998369.70621
  22453926.803     8909523.972 6   6913405.88221
  23501537.670    -4013467.627 5  -3077240.23921
  22743507.928    -8257309.274 5  -3630759.74821
 91  4 12 22  6 29.9980000  0  6G19G 2G11G18G16G 6
  20770654.014    -1306491.308 6  -1018046.58922
  21044526.8184  -14445400.34047 -11256119.55563
  22684947.1004   -5122736.67046  -3991726.11261
  22461612.9204    8949941.96546   6944900.26461
  23501642.9434   -4012898.37345  -3076796.76461
  22735844.951    -8297579.166 5  -3662138.74321
 91  4 12 22  6 44.9980000  0  6G19G 2G11G18G16G 6
  20771435.225    -1302396.313 6  -1014855.69822
  21038506.7014  -14477044.80447 -11280777.51763
  22686595.8504   -5114066.44046  -3984970.08061
  22469319.178     8990417.256 6   6976439.29821
  23501775.8814   -4012212.24745  -3076262.22461
  22728185.115    -8337845.698 6  -3693515.16521
 91  4 12 22  6 59.9980000  0  6G19G 2G11G18G16G 6
  20772222.764    -1298249.516 6  -1011624.44622
  21032497.8894  -14508619.54447 -11305381.14863
  22688271.693    -5105257.250 6  -3978105.80121
  22477033.1934    9030944.16246   7008018.53861
  23501928.389    -4011414.828 5  -3075640.96621
  22720522.7254   -8378114.13846  -3724893.06761
 91  4 12 22  7 14.9980000  0  6G19G 2G11G18G16G 6
  20773023.498    -1294050.358 6  -1008352.39422
  21026503.5844  -14540124.38147 -11329930.30963
  22689977.3504   -5096308.97647  -3971133.12061
  22484750.248     9071522.603 6   7039637.94321
  23502099.326    -4010505.938 5  -3074932.82521
  22712858.014    -8418384.057 5  -3756272.11321
 91  4 12 22  7 29.9980000  0  6G19G 2G11G18G16G 6
  20773832.873    -1289800.869 6  -1005041.12122
  21020519.0924  -14571561.34447 -11354426.57863
  22691701.3654   -5087223.75246  -3964053.71761
  22492483.584     9112150.453 6   7071295.84721
  23502294.6544   -4009487.99945  -3074139.74961
  22705193.6704   -8458657.54745  -3787653.93361
 91  4 12 22  7 44.9980000  0  6G19G 2G11G18G16G 6
  20774652.662    -1285500.118 6  -1001689.90722
  21014551.4284  -14602929.34847 -11378869.12463
  22693459.3894   -5078000.86647  -3956867.06761
  22500226.303     9152828.340 6   7102992.74121
  23502508.201    -4008360.298 5  -3073261.11921
  22697531.1004   -8498933.66145  -3819037.79161
 91  4 12 22  7 59.9980000  0  6G19G 2G11G18G16G 6
  20775482.826    -1281141.943 6   -998293.94222
  21008596.4044  -14634222.37047 -11403253.23363
  22695239.600    -5068634.436 6  -3949568.55621
  22507975.6314    9193562.07146   7134733.14961
  23502745.0224   -4007116.85545  -3072292.30461
  22689867.014    -8539206.263 6  -3850418.92021
 91  4 12 22  8 14.9980000  0  6G19G 2G11G18G16G 6
  20776319.584    -1276732.265 6   -994857.85522
  21002652.7404  -14665446.64447 -11427583.77563
  22697049.5294   -5059130.55546  -3942162.96761
  22515739.232     9234345.349 6   7166512.16821
  23503002.451    -4005764.001 5  -3071238.23821
  22682204.787    -8579481.373 6  -3881802.02021
 91  4 12 22  8 29.9980000  0  6G19G 2G11G18G16G 6
  20777168.951    -1272266.866 6   -991378.34722
  20996724.9044  -14696597.92147 -11451857.43763
  22698882.959    -5049485.363 6  -3934647.21221
  22523509.631     9275182.065 6   7198332.81121
  23503283.272    -4004297.857 5  -3070095.89421
  22674539.842    -8619754.873 6  -3913183.85521
 91  4 12 22  8 44.9980000  0  6G19G 2G11G18G16G 6
  20778030.029    -1267750.886 6   -987859.42022
  20990811.1314  -14727681.58147 -11476078.40863
  22700746.522    -5039704.218 6  -3927025.56421
  22531289.850     9316066.407 6   7230190.58021
  23503584.443    -4002723.732 5  -3068869.39921
  22666875.053    -8660031.969 5  -3944568.48821
 91  4 12 22  8 59.9980000  0  6G19G 2G11G18G16G 6
  20778896.381    -1263181.045 6   -984298.52422
  20984908.4364  -14758694.20947 -11500244.03263
  22702631.2954   -5029783.94746  -3919295.47661
  22539075.014     9357001.621 6   7262087.98721
  23503903.475    -4001038.666 5  -3067556.47621
  22659209.2724   -8700309.38145  -3975953.36761
 91  4 12 22  9 14.9980000  0  6G19G 2G11G18G16G 6
  20779778.912    -1258556.919 6   -980695.32622
  20979021.1314  -14789635.46547 -11524354.04163
  22704547.7954   -5019724.37046  -3911456.85861
  22546878.607     9397987.863 6   7294025.15221
  23504241.123    -3999242.252 4  -3066156.77421
  22651545.553    -8740586.710 6  -4007338.18721
 91  4 12 22  9 29.9980000  0  6G19G 2G11G18G16G 6
  20780669.170    -1253881.406 6   -977052.09722
  20973146.2874  -14820508.28547 -11548410.72563
  22706487.1864   -5009528.60046  -3903512.10561
  22554689.186     9439021.939 6   7325999.58621
  23504610.295    -3997337.878 4  -3064672.95221
  22643880.1394   -8780866.83546  -4038725.20561
 91  4 12 22  9 44.9980000  0  6G19G 2G11G18G16G 6
  20781569.459    -1249151.510 6   -973366.48122
  20967285.8424  -14851309.86447 -11572411.89163
  22708453.639    -4999193.884 6  -3895459.10021
  22562507.990     9480106.312 6   7358013.21821
  23504992.9754   -3995323.26744  -3063103.23161
  22636214.459    -8821146.919 6  -4070112.18021
 91  4 12 22  9 59.9980000  0  6G19G 2G11G18G16G 6
  20782476.725    -1244368.780 6   -969639.69822
  20961437.4904  -14882042.02247 -11596358.96463
  22710448.1704   -4988722.10247  -3887299.32261
  22570329.4904    9521238.89146   7390064.41361
  23505391.8814   -3993199.79044  -3061448.68861
  22628547.779    -8861428.605 5  -4101500.39421
 91  4 12 22 10 14.9980000  0  6G19G 2G11G18G16G 6
  20783400.740    -1239532.121 6   -965870.89622
  20955601.4364  -14912703.83447 -11620251.22063
  22712467.420    -4978112.603 7  -3879032.13421
  22578168.623     9562420.573 6   7422153.87121
  23505818.4364   -3990966.70344  -3059708.72461
  22620880.8424   -8901710.89745  -4132889.06461
 91  4 12 22 10 29.9980000  0  6G19G 2G11G18G16G 6
  20784331.131    -1234636.431 6   -962056.09823
  20949781.5764  -14943290.19447 -11644084.68463
  22714510.3734   -4967360.35946  -3870653.76261
  22586017.897     9603656.144 6   7454285.31221
  23506266.8184   -3988619.34044  -3057879.72861
  22613220.1394   -8941988.63645  -4164274.18261
 91  4 12 22 10 44.9980000  0  6G19G 2G11G18G16G 6
  20785271.576    -1229689.609 6   -958201.45722
  20943974.1154  -14973808.96947 -11667865.48363
  22716584.912    -4956473.496 6  -3862170.52021
  22593874.115     9644937.334 6   7486452.29821
  23506728.9434   -3986165.90144  -3055968.07761
  22605553.6934   -8982269.97546  -4195662.14461
 91  4 12 22 10 59.9980000  0  6G19G 2G11G18G16G 6
  20786221.428    -1224689.356 6   -954305.17522
  20938179.4754  -15004258.09547 -11691592.00963
  22718681.4594   -4945449.92646  -3853580.72061
  22601736.4754    9686265.95646   7518656.25461
  23507220.139    -3983604.396 4  -3053972.22921
  22597887.6314   -9022552.39346  -4227050.97061
 91  4 12 22 11 14.9980000  0  6G19G 2G11G18G16G 6
  20787186.647    -1219629.518 6   -950362.46923
  20932400.5374  -15034631.46347 -11715259.50163
  22720806.428    -4934283.596 6  -3844879.71721
  22609609.1474    9727648.09746   7550901.93161
  23507733.7874   -3980928.60144  -3051887.29061
  22590223.5924   -9062829.73145  -4258435.82361
 91  4 12 22 11 29.9980000  0  6G19G 2G11G18G16G 6
  20788156.717    -1214516.319 6   -946378.18022
  20926633.4984  -15064935.30847 -11738872.82863
  22722958.7484   -4922981.11446  -3836072.57461
  22617495.1784    9769077.10946   7583184.09361
  23508260.225    -3978145.201 4  -3049718.52221
  22582555.4674   -9103108.39045  -4289821.65961
 91  4 12 22 11 44.9980000  0  6G19G 2G11G18G16G 6
  20789142.514    -1209345.217 6   -942348.77022
  20920880.2094  -15095165.27647 -11762428.58563
  22725132.998    -4911538.288 6  -3827156.10521
  22625388.904     9810556.908 6   7615505.85121
  23508807.772    -3975249.988 4  -3047462.64521
  22574893.1784   -9143384.06245  -4321205.14161
 91  4 12 22 11 59.9980000  0  6G19G 2G11G18G16G 6
  20790140.803    -1204115.794 6   -938273.92022
  20915142.0454  -15125321.16447 -11785926.61663
  22727340.115    -4899955.031 6  -3818130.21721
  22633291.904     9852087.627 6   7647867.27621
  23509386.373    -3972243.009 3  -3045119.64721
  22567231.053    -9183656.217 6  -4352585.93021
 91  4 12 22 12 14.9980000  0  6G19G 2G11G18G16G 6
  20791145.225    -1198835.019 6   -934159.05022
  20909415.9754  -15155409.85347 -11809372.28763
  22729567.998    -4888238.437 6  -3809000.37721
  22641204.014     9893662.031 6   7680262.75021
  23509972.9514   -3969131.48943  -3042695.19561
  22559567.2404   -9223931.79346  -4383969.40861
 91  4 12 22 12 29.9980000  0  6G19G 2G11G18G16G 6
  20792157.373    -1193499.987 6   -930001.90022
  20903704.3974  -15185428.51647 -11832763.39263
  22731822.178    -4876385.927 6  -3799764.66821
  22649122.2564    9935283.09846   7712694.58861
  23510587.1864   -3965912.44243  -3040186.98161
  22551902.803    -9264207.923 6  -4415353.32521
 91  4 12 22 12 44.9980000  0  6G19G 2G11G18G16G 6
  20793184.178    -1188114.056 6   -925805.08622
  20898002.6624  -15215380.83447 -11856102.79263
  22734105.186    -4864401.082 6  -3790425.85321
  22657051.311     9976946.551 6   7745159.45021
  23511215.2254   -3962590.33444  -3037598.42861
  22544235.8504   -9304488.20945  -4446740.44961
 91  4 12 22 12 59.9980000  0  6G19G 2G11G18G16G 6
  20794219.475    -1182676.113 6   -921567.74822
  20892316.2014  -15245265.65647 -11879389.60263
  22736411.8504   -4852282.97346  -3780983.17261
  22664987.9674   10018653.26246   7777658.01761
  23511870.1544   -3959163.55644  -3034928.33061
  22536570.951    -9344771.403 6  -4478129.80021
 91  4 12 22 13 14.9980000  0  6G19G 2G11G18G16G 6
  20795264.248    -1177181.101 6   -917285.94422
  20886644.7644  -15275078.00647 -11902619.94163
  22738742.2954   -4840026.84346  -3771432.98061
  22672933.9754   10060407.86846   7810193.91261
  23512543.514    -3955627.663 4  -3032173.17921
  22528905.334    -9385052.629 6  -4509517.64821
 91  4 12 22 13 29.9980000  0  6G19G 2G11G18G16G 6
  20796322.647    -1171627.019 6   -912958.11022
  20880985.2564  -15304815.90747 -11925792.26863
  22741102.8894   -4827630.86746  -3761773.78761
  22680891.037    10102212.225 6   7842768.56121
  23513242.3034   -3951981.10744  -3029331.82561
  22521242.061    -9425329.643 6  -4540902.23321
 91  4 12 22 13 44.9980000  0  6G19G 2G11G18G16G 6
  20797389.709    -1166020.770 6   -908589.62222
  20875339.3344  -15334486.37047 -11948912.04863
  22743485.100    -4815102.273 6  -3752011.26821
  22688851.3734   10144059.10346   7875376.34161
  23513955.3974   -3948230.94545  -3026409.71961
  22513574.959    -9465609.552 6  -4572289.07721
 91  4 12 22 13 59.9980000  0  6G19G 2G11G18G16G 6
  20798467.311    -1160359.216 6   -904178.04022
  20869706.4284  -15364086.51647 -11971977.03963
  22745894.975    -4802438.313 6  -3742143.27821
  22696826.0764   10185951.07646   7908019.26861
  23514688.342    -3944374.398 5  -3023404.73021
  22505910.3574   -9505889.38345  -4603675.83861
 91  4 12 22 14 14.9980000  0  6G19G 2G11G18G16G 6
  20799551.998    -1154654.085 6   -899732.50122
  20864084.8974  -15393628.00947 -11994996.32363
  22748329.6474   -4789650.89046  -3732179.06861
  22704800.397    10227876.138 6   7940687.97921
  23515438.6074   -3940423.56545  -3020326.26361
  22498243.4984   -9546180.79446  -4635071.60961
 91  4 12 22 14 29.9980000  0  6G19G 2G11G18G16G 6
  20800648.764    -1148895.520 6   -895245.32622
  20858476.3264  -15423101.05147 -12017962.26963
  22750787.3424   -4776730.34946  -3722111.10661
  22712789.139    10269843.913 6   7973389.97221
  23516212.4044   -3936368.65945  -3017166.73661
  22490577.4904   -9586473.92446  -4666468.75561
 91  4 12 22 14 44.9980000  0  6G19G 2G11G18G16G 6
  20801753.873    -1143079.512 6   -890713.39322
  20852881.6314  -15452502.01647 -12040872.04663
  22753273.1624   -4763673.15946  -3711936.70861
  22720780.022    10311858.011 6   8006128.06421
  23517003.607    -3932206.096 5  -3013923.29021
  22482909.5374   -9626764.84546  -4697864.18161
 91  4 12 22 14 59.9980000  0  6G19G 2G11G18G16G 6
  20802871.881    -1137204.772 6   -886135.69822
  20847301.3264  -15481829.70847 -12063724.73463
  22755784.936    -4750478.229 6  -3701654.94321
  22728788.037    10353919.108 6   8038902.78121
  23517815.756    -3927934.939 5  -3010595.23921
  22475241.2724   -9667052.34145  -4729256.88961
 91  4 12 22 15 14.9980000  0  6G19G 2G11G18G16G 6
  20804000.553    -1131274.824 6   -881514.98122
  20841732.3734  -15511087.62647 -12086523.05163
  22758317.5924   -4737149.27346  -3691268.76561
  22736800.5454   10396023.62646   8071711.30861
  23518650.232    -3923559.039 5  -3007185.55521
  22467575.4124   -9707340.06046  -4760649.74561
 91  4 12 22 15 29.9980000  0  6G19G 2G11G18G16G 6
  20805140.201    -1125288.210 6   -876850.11322
  20836178.6074  -15540274.51247 -12109266.02063
  22760882.8184   -4723685.19546  -3680777.29961
  22744824.3734   10438172.50046   8104554.41961
  23519502.5844   -3919077.21245  -3003693.31661
  22459910.756    -9747626.413 6  -4792041.62221
 91  4 12 22 15 44.9980000  0  6G19G 2G11G18G16G 6
  20806290.670    -1119243.025 6   -872139.59822
  20830639.240   -15569388.343 7 -12131952.06523
  22763469.4364   -4710084.16046  -3670179.10761
  22752851.857    10480367.453 6   8137433.42221
  23520374.943    -3914487.710 5  -3000117.21821
  22452243.3654   -9787909.51046  -4823431.00461
 91  4 12 22 15 59.9980000  0  6G19G 2G11G18G16G 6
  20807449.9124   -1113142.98946   -867386.35462
  20825111.1934  -15598432.98047 -12154584.19563
  22766084.6704   -4696350.19546  -3659477.33161
  22760891.1624   10522604.30346   8170345.08361
  23521267.5454   -3909794.69545  -2996460.41161
  22444576.5454   -9828193.06345  -4854820.68661
 91  4 12 22 16 14.9980000  0  6G19G 2G11G18G16G 6
  20808621.7724   -1106986.40746   -862589.04262
  20819597.381   -15627407.088 7 -12177161.36823
  22768720.5844   -4682482.00846  -3648670.97061
  22768933.8654   10564884.35146   8203290.39761
  23522180.4284   -3904996.89645  -2992721.98661
  22436910.7254   -9868475.70045  -4886209.57061
 91  4 12 22 16 29.9980000  0  6G19G 2G11G18G16G 6
  20809804.693    -1100771.632 6   -857746.38322
  20814097.7644  -15656308.86247 -12199682.17563
  22771388.7794   -4668478.35746  -3637759.05961
  22776986.0534   10607208.78046   8236270.30661
  23523114.529    -3900092.913 5  -2988900.81221
  22429248.4124   -9908755.70746  -4917596.44561
 91  4 12 22 16 44.9980000  0  6G19G 2G11G18G16G 6
  20810998.443    -1094499.665 6   -852859.15422
  20808611.0844  -15685139.40147 -12222147.46363
  22774077.1784   -4654340.35746  -3626742.44261
  22785049.4364   10649576.41846   8269283.87261
  23524068.0614   -3895083.97545  -2984997.87261
  22421583.920    -9949033.910 6  -4948981.98721
 91  4 12 22 16 59.9980000  0  6G19G 2G11G18G16G 6
  20812201.389    -1088171.609 6   -847928.22522
  20803138.6704  -15713900.04747 -12244558.30163
  22776795.561    -4640069.306 6  -3615622.17621
  22793119.897    10691985.898 6   8302330.04921
  23525044.475    -3889971.605 5  -2981014.30621
  22413917.9204   -9989311.71046  -4980367.22561
 91  4 12 22 17 14.9980000  0  6G19G 2G11G18G16G 6
  20813417.279    -1081788.588 6   -842954.46922
  20797677.9754  -15742592.20847 -12266915.77163
  22779534.264    -4625666.575 6  -3604399.27321
  22801198.272    10734435.696 6   8335407.63221
  23526033.9044   -3884757.50445  -2976951.48661
  22406251.217   -10029590.149 5  -5011752.89721
 91  4 12 22 17 29.9980000  0  6G19G 2G11G18G16G 6
  20814643.2014   -1075347.26446   -837935.27962
  20792231.568   -15771212.326 7 -12289217.10823
  22782301.1704   -4611129.15746  -3593071.45861
  22809288.232    10776928.721 6   8368518.88121
  23527046.6624   -3879438.30245  -2972806.76861
  22398588.920   -10069865.738 6  -5043136.32421
 91  4 12 22 17 44.9980000  0  6G19G 2G11G18G16G 6
  20815880.959    -1068847.244 6   -832870.35523
  20786799.193   -15799760.128 7 -12311462.09723
  22785091.373    -4596456.971 6  -3581638.60021
  22817380.881    10819464.954 6   8401663.82421
  23528078.412    -3874013.702 5  -2968579.92421
  22390926.6624  -10110138.26546  -5074517.42261
 91  4 12 22 17 59.9980000  0  6G19G 2G11G18G16G 6
  20817125.053    -1062294.922 6   -827764.67622
  20781378.842   -15828242.333 7 -12333655.96723
  22787908.8734   -4581656.84346  -3570106.05861
  22825485.514    10862037.672 6   8434837.18421
  23529129.803    -3868490.929 5  -2964276.57221
  22383261.443   -10150414.193 6  -5105901.18821
 91  4 12 22 18 14.9980000  0  6G19G 2G11G18G16G 6
  20818384.529    -1055688.653 6   -822616.95322
  20775972.342   -15856657.366 7 -12355797.49823
  22790751.1864   -4566727.38246  -3558472.71061
  22833593.0064   10904648.10046   8468039.92361
  23530199.154    -3862868.441 5  -2959895.52521
  22375593.584   -10190692.012 5  -5137286.39621
 91  4 12 22 18 29.9980000  0  6G19G 2G11G18G16G 6
  20819652.9824   -1049019.15946   -817419.97862
  20770579.8344  -15884996.11747 -12377879.58963
  22793616.3654   -4551659.62346  -3546731.63661
  22841709.9204   10947305.05446   8501278.94261
  23531290.639    -3857137.366 5  -2955429.87821
  22367933.3264  -10230962.41946  -5168665.80161
 91  4 12 22 18 44.9980000  0  6G19G 2G11G18G16G 6
  20820932.6864   -1042291.99446   -812178.06062
  20765199.975   -15913264.270 7 -12399906.66323
  22796509.857    -4536459.387 6  -3534887.31421
  22849835.451    10990002.723 6   8534549.66321
  23532396.193    -3851303.784 5  -2950884.34021
  22360271.061   -10271231.028 6  -5200043.82721
 91  4 12 22 18 59.9980000  0  6G19G 2G11G18G16G 6
  20822224.686    -1035509.255 6   -806892.83122
  20759834.334   -15941464.061 7 -12421880.47323
  22799428.123    -4521129.010 6  -3522941.59521
  22857967.8734   11032738.59846   8567850.17661
  23533528.857    -3845370.102 5  -2946260.80721
  22352606.4594  -10311499.84846  -5231422.02861
 91  4 12 22 19 14.9980000  0  6G19G 2G11G18G16G 6
  20823525.693    -1028667.139 6   -801561.33922
  20754482.389   -15969591.268 7 -12443797.72123
  22802368.904    -4505664.843 6  -3510891.59721
  22866105.397    11075516.327 6   8601183.27921
  23534678.162    -3839332.234 5  -2941556.10921
  22344943.818   -10351765.040 6  -5262797.40021
 91  4 12 22 19 29.9980000  0  6G19G 2G11G18G16G 6
  20824837.678    -1021765.983 6   -796183.83822
  20749142.8344  -15997646.64047 -12465658.99363
  22805340.3734   -4490067.60346  -3498737.92661
  22874253.0454   11118335.43246   8634548.62861
  23535844.5454   -3833190.95445  -2936770.80061
  22337283.482   -10392026.876 6  -5294170.14421
 91  4 12 22 19 44.9980000  0  6G19G 2G11G18G16G 6
  20826162.850    -1014813.806 6   -790766.57422
  20743815.897   -16025638.445 7 -12487470.73523
  22808330.0064   -4474345.63446  -3486487.03961
  22882408.0224   11161187.12946   8667939.39461
  23537031.4204   -3826955.00845  -2931911.74961
  22329620.1004  -10432293.67746  -5325546.77461
 91  4 12 22 19 59.9980000  0  6G19G 2G11G18G16G 6
  20827496.115    -1007797.875 6   -785299.64122
  20738503.170   -16053554.009 7 -12509223.06823
  22811347.014    -4458486.517 6  -3474129.34121
  22890575.740    11204083.884 6   8701365.24621
  23538243.084    -3820612.029 5  -2926969.29621
  22321959.303   -10472552.590 6  -5356917.25621
 91  4 12 22 20 14.9980000  0  6G19G 2G11G18G16G 6
  20828843.053    -1000722.891 6   -779786.69622
  20733204.490   -16081398.000 7 -12530919.63223
  22814391.436    -4442495.073 6  -3461668.48521
  22898745.475    11247020.811 6   8734822.41721
  23539468.865    -3814166.712 5  -2921947.08921
  22314299.1474  -10512808.26846  -5388285.19461
 91  4 12 22 20 29.9980000  0  6G19G 2G11G18G16G 6
  20830201.529     -993592.053 6   -774230.22322
  20727919.850   -16109173.783 7 -12552563.04523
  22817457.904    -4426374.971 6  -3449107.39021
  22906922.107    11289994.079 6   8768307.88821
  23540714.3424   -3807622.72345  -2916848.00361
  22306638.3894  -10553064.11546  -5419653.28761
 91  4 12 22 20 44.9980000  0  6G19G 2G11G18G16G 6
  20831568.9754    -986400.13446   -768626.15662
  20722647.686   -16136876.484 7 -12574149.51123
  22820552.022    -4410121.411 6  -3436442.28821
  22915106.334    11333008.356 6   8801825.30921
  23541977.2014   -3800975.27145  -2911668.30461
  22298979.9044  -10593314.89946  -5451017.46361
 91  4 12 22 20 59.9980000  0  6G19G 2G11G18G16G 6
  20832947.4754    -979149.98446   -762976.72162
  20717390.701   -16164508.845 7 -12595681.16823
  22823670.381    -4393737.301 6  -3423675.47421
  22923297.818    11376060.992 6   8835372.64021
  23543263.5534   -3794227.34445  -2906410.30461
  22291317.7254  -10633563.32246  -5482379.77561
 91  4 12 22 21 14.9980000  0  6G19G 2G11G18G16G 6
  20834339.732     -971841.232 6   -757281.61722
  20712144.725   -16192070.580 7 -12617157.78923
  22826810.2174   -4377222.46646  -3410806.81161
  22931496.725    11419151.950 6   8868949.82721
  23544565.4204   -3787378.98545  -2901074.06061
  22283659.2484  -10673809.11746  -5513740.00461
 91  4 12 22 21 29.9980000  0  6G19G 2G11G18G16G 6
  20835739.1864    -964476.65746   -751543.01662
  20706913.006   -16219564.686 7 -12638581.71923
  22829981.482    -4360580.169 6  -3397838.80921
  22939705.4984   11462277.77746   8902554.17261
  23545887.8504   -3780433.39244  -2895662.02061
  22276002.342   -10714055.123 6  -5545100.41621
 91  4 12 22 21 44.9980000  0  6G19G 2G11G18G16G 6
  20837155.2794    -957047.27046   -745753.91162
  20701695.303   -16246982.353 7 -12659946.08023
  22833171.076    -4343801.749 6  -3384764.74021
  22947921.2254   11505447.29346   8936192.55561
  23547225.662    -3773381.996 4  -2890167.55521
  22268344.4904  -10754292.41646  -5576454.08661
 91  4 12 22 21 59.9980000  0  6G19G 2G11G18G16G 6
  20838579.936     -949559.940 6   -739919.65422
  20696490.482   -16274330.318 7 -12681256.12823
  22836390.2094   -4326894.33346  -3371590.13961
  22956141.0684   11548653.23246   8969859.33461
  23548589.6234   -3766231.96044  -2884596.21461
  22260686.3184  -10794527.86946  -5607806.30161
 91  4 12 22 22 14.9980000  0  6G19G 2G11G18G16G 6
  20840017.0764    -942010.91446   -734037.31862
  20691299.795   -16301604.987 7 -12702509.06723
  22839630.8114   -4309854.57746  -3358312.42461
  22964372.0374   11591898.98545   9003557.14461
  23549969.553    -3758979.869 4  -2878945.37021
  22253033.7564  -10834757.71046  -5639154.10861
 91  4 12 22 22 29.9980000  0  6G19G 2G11G18G16G 6
  20841462.443     -934406.726 6   -728112.00922
  20686121.631   -16328813.206 7 -12723710.22423
  22842898.256    -4292689.374 6  -3344936.98921
  22972607.3264   11635177.52645   9037280.49161
  23551367.6154   -3751632.62844  -2873220.38461
  22245377.365   -10874988.637 6  -5670502.76721
 91  4 12 22 22 44.9980000  0  6G19G 2G11G18G16G 6
  20842921.232     -926745.989 6   -722142.62722
  20680957.170   -16355953.593 7 -12744858.52423
  22846188.0064   -4275397.66046  -3331462.91861
  22980850.037    11678489.871 5   9071030.16921
  23552785.6394   -3744189.16744  -2867420.42361
  22237721.412   -10915219.118 6  -5701851.12221
 91  4 12 22 22 59.9980000  0  6G19G 2G11G18G16G 6
  20844391.717     -919025.978 6   -716127.05522
  20675807.139   -16383023.459 7 -12765951.87823
  22849503.482    -4257976.814 6  -3317888.29221
  22989097.4594   11721838.62045   9104808.20361
  23554224.709    -3736646.836 4  -2861543.39821
  22230065.248   -10955446.350 6  -5733196.94321
 91  4 12 22 23 14.9980000  0  6G19G 2G11G18G16G 6
  20845870.9364    -911244.37446   -710063.49462
  20670669.943   -16410020.726 7 -12786988.65323
  22852842.311    -4240424.764 6  -3304211.39321
  22997356.0454   11765225.80045   9138616.21461
  23555673.529    -3729003.780 4  -2855587.91921
  22222411.162   -10995668.127 6  -5764538.48421
 91  4 12 22 23 29.9980000  0  6G19G 2G11G18G16G 6
  20847363.2094    -903396.83146
  20665546.990   -16436941.237 7 -12807965.62523
  22856210.561    -4222737.534 6  -3290429.14721
  23005619.6314   11808655.24945   9172457.15961
  23557149.779    -3721255.762 4
  22214761.287   -11035880.183 6  -5795872.44221
 91  4 12 22 23 44.9980000  0  6G19G 2G11G18G16G 6
  20848870.529     -895487.711 6
  20660437.951   -16463789.303 7 -12828886.14523
  22859600.8574   -4204919.88546  -3276545.29561
  23013892.334    11852122.103 5   9206327.20921
  23558643.162    -3713407.911 4
  22207109.8184  -11076086.62646  -5827202.04361
 91  4 12 22 23 59.9980000  0  6G19G 2G11G18G16G 6
  20850384.756     -887519.000 6
  20655343.014   -16490566.882 7 -12849751.73923
  22863014.6074   -4186973.95146  -3262561.48561
  23022170.654    11895624.296 5   9240224.85421
  23560154.654    -3705462.254 4
  22199457.0294  -11116289.62946  -5858528.96761
 91  4 12 22 24 14.9980000  0  6G19G 2G11G18G16G 6
  20851914.037     -879492.807 6
  20650260.490   -16517276.286 7 -12870564.20723
  22866453.717    -4168902.251 6  -3248479.66521
  23030456.3184   11939159.48545   9274148.15261
  23561683.701    -3697421.504 4
  22191808.029   -11156491.288 6  -5889854.83021
 91  4 12 22 24 29.9980000  0  6G19G 2G11G18G16G 6
  20853454.436     -871406.850 6
  20645190.240   -16543915.389 7 -12891321.89723
  22869914.8424   -4150702.81146  -3234298.32461
  23038743.748    11982729.183 5   9308098.39421
  23563233.459    -3689283.716 4
  22184160.529   -11196689.374 6  -5921177.93421
 91  4 12 22 24 44.9980000  0  6G19G 2G11G18G16G 6
  20855002.5374    -863261.30046   -672674.24462
  20640134.350   -16570484.653 7 -12912025.17123
  22873404.3424   -4132376.28146  -3220017.93561
  23047046.0294   12026333.03646   9342075.18261
  23564797.9984   -3681049.27944  -2818221.57861
  22176510.514   -11236884.050 6  -5952498.37321
 91  4 12 22 24 59.9980000  0  6G19G 2G11G18G16G 6
  20856562.9754    -855052.12646   -666277.51262
  20635091.959   -16596980.138 7 -12932670.95023
  22876918.6154   -4113918.84246  -3205635.52361
  23055348.9754   12069974.55945   9376081.38661
  23566383.943    -3672714.646 4  -2811727.17421
  22168863.584   -11277071.450 6  -5983813.12821
 91  4 12 22 25 14.9980000  0  6G19G 2G11G18G16G 6
  20858138.428     -846780.698 6   -659832.26922
  20630063.420   -16623403.087 7 -12953260.20723
  22880454.2484   -4095332.19046  -3191152.44961
  23063665.0924   12113651.95345   9410115.50561
  23567992.4754   -3664281.63144  -2805156.13961
  22161214.2254  -11317252.83946  -6015123.17761
 91  4 12 22 25 29.9980000  0  6G19G 2G11G18G16G 6
  20859725.2724    -838452.27046   -653342.61162
  20625049.068   -16649758.998 7 -12973797.23323
  22884013.545    -4076621.870 6  -3176573.01021
  23071980.6784   12157360.07846   9444173.57161
  23569613.4044   -3655755.63544  -2798512.63361
  22153572.6314  -11357433.42846  -6046432.62361
 91  4 12 22 25 44.9980000  0  6G19G 2G11G18G16G 6
  20861321.522     -830058.889 6   -646802.34222
  20620046.951   -16676039.999 7 -12994275.88623
  22887598.8264   -4057780.18246  -3161891.20961
  23080303.6704   12201106.41645   9478261.42861
  23571257.600    -3647129.102 4  -2791790.78921
  22145925.6394  -11397605.25146  -6077735.27961
 91  4 12 22 25 59.9980000  0  6G19G 2G11G18G16G 6
  20862931.537     -821601.209 6   -640211.96922
  20615059.967   -16702246.735 7 -13014696.67023
  22891209.873    -4038807.998 6  -3147107.71021
  23088637.272    12244889.998 5   9512378.31221
  23572917.1394   -3638402.70444  -2784991.13561
  22138282.0144  -11437768.98146  -6109031.60561
 91  4 12 22 26 14.9980000  0  6G19G 2G11G18G16G 6
  20864550.881     -813079.060 6   -633571.35722
  20610087.154   -16728379.432 7 -13035059.76323
  22894845.4594   -4019705.68346  -3132222.82061
  23096976.662    12288710.508 5   9546523.95021
  23574596.9044   -3629576.76244  -2778113.90161
  22130641.170   -11477924.466 6  -6140321.49221
 91  4 12 22 26 29.9980000  0  6G19G 2G11G18G16G 6
  20866185.8424    -804497.11846   -626884.15662
  20605128.772   -16754442.610 7 -13055368.68123
  22898502.3184   -4000478.16846  -3117240.36461
  23105317.7874   12332562.79245   9580694.34661
  23576292.1004   -3620656.51444  -2771163.17861
  22122999.029   -11518076.368 6  -6171608.57921
 91  4 12 22 26 44.9980000  0  6G19G 2G11G18G16G 6
  20867828.5454    -795857.54246   -620152.05162
  20600180.107   -16780438.769 7 -13075625.37823
  22902186.662    -3981127.856 6  -3102162.23021
  23113668.8184   12376444.39645   9614887.59961
  23578010.7324   -3611644.50244  -2764140.95361
  22115360.3574  -11558226.85646  -6202894.58961
 91  4 12 22 26 59.9980000  0  6G19G 2G11G18G16G 6
  20869486.154     -787152.543 6   -613368.95722
  20595248.365   -16806360.190 7 -13095823.83523
  22905894.490    -3961647.217 6  -3086982.53021
  23122027.139    12420362.811 5   9649109.53821
  23579741.8654   -3602533.37144  -2757041.54161
  22107719.920   -11598368.128 6  -6234173.42221
 91  4 12 22 27 14.9980000  0  6G19G 2G11G18G16G 6
  20871154.5614    -778386.59546   -606538.37962
  20590328.459   -16832211.291 7 -13115967.50223
  22909624.1864   -3942041.23446  -3071705.18261
  23130389.2174   12464313.13045   9683356.32961
  23581490.498    -3593327.587 5  -2749868.30021
  22100083.412   -11638504.690 6  -6265448.56121
 91  4 12 22 27 29.9980000  0  6G19G 2G11G18G16G 6
  20872835.326     -769562.375 6   -599662.38522
  20585421.881   -16857995.060 7 -13136058.69923
  22913380.0144   -3922312.97646  -3056332.54861
  23138759.4904   12508292.17345   9717625.48761
  23583262.397    -3584030.401 5  -2742623.88621
  22092445.1394  -11678639.23246  -6296722.12561
 91  4 12 22 27 44.9980000  0  6G19G 2G11G18G16G 6
  20874523.5224    -760672.59946   -592735.31362
  20580531.029   -16883704.243 7 -13156091.77523
  22917158.850    -3902455.330 6  -3040859.07521
  23147135.0924   12552307.29645   9751922.78561
  23585051.7724   -3574634.94445  -2735302.89461
  22084808.1074  -11718764.39846  -6327988.42461
 91  4 12 22 27 59.9980000  0  6G19G 2G11G18G16G 6
  20876227.7794    -751722.76646   -585761.45662
  20575649.998   -16909344.414 7 -13176071.07823
  22920959.389    -3882474.134 6  -3025289.34721
  23155514.8504   12596352.63045   9786243.61661
  23586855.225    -3565146.661 5  -2727909.54621
  22077173.5064  -11758885.68946  -6359251.68161
 91  4 12 22 28 14.9980000  0  6G19G 2G11G18G16G 6
  20877941.803     -742709.732 6   -578738.33722
  20570784.162   -16934912.825 7 -13195994.46623
  22924784.6074   -3862366.75246  -3009621.29661
  23163902.193    12640430.434 5   9820589.71721
  23588681.881    -3555563.342 5  -2720442.13221
  22069539.943   -11799000.138 6  -6390509.58021
 91  4 12 22 28 29.9980000  0  6G19G 2G11G18G16G 6
  20879667.7174    -733641.47146   -571672.18762
  20565932.756   -16960417.437 7 -13215868.14123
  22928634.115    -3842141.404 6  -2993861.32921
  23172293.514    12684532.697 5   9854954.92121
  23590523.0144   -3545893.25245  -2712907.11061
  22061907.061   -11839115.668 6  -6421768.32821
 91  4 12 22 28 44.9980000  0  6G19G 2G11G18G16G 6
  20881406.357     -724504.824 6   -564552.74522
  20561094.068   -16985845.017 7 -13235681.79223
  22932508.9984   -3821785.11846  -2977999.29161
  23180695.779    12728672.404 5   9889349.29221
  23592377.357    -3536123.133 5  -2705294.17421
  22054277.811   -11879218.952 6  -6453017.56021
 91  4 12 22 28 59.9980000  0  6G19G 2G11G18G16G 6
  20883156.5224    -715308.21046   -557386.59162
  20556267.186   -17011204.202 7 -13255442.14923
  22936406.873    -3801306.650 6  -2962042.08821
  23189103.8814   12772840.45645   9923765.70661
  23594259.6864   -3526261.87445  -2697610.25161
  22046644.2014  -11919318.55746  -6484263.91761
 91  4 12 22 29 14.9980000  0  6G19G 2G11G18G16G 6
  20884918.5374    -706046.91646   -550170.03062
  20551456.834   -17036490.385 7 -13275145.62323
  22940326.467    -3780701.725 6  -2945986.32821
  23197515.662    12817041.229 5   9958207.65721
  23596147.100    -3516305.355 5  -2689852.01221
  22039014.873   -11959409.748 6  -6515503.69421
 91  4 12 22 29 29.9980000  0  6G19G 2G11G18G16G 6
  20886691.5764    -696720.44646   -542902.68462
  20546656.490   -17061703.307 7 -13294792.00823
  22944271.482    -3759970.381 6  -2929832.07521
  23205933.3114   12861274.73945   9992675.10861
  23598066.8264   -3506253.49545  -2682019.52461
  22031389.404   -11999492.118 6  -6546736.63021
 91  4 12 22 29 44.9980000  0  6G19G 2G11G18G16G 6
  20888481.8734    -687332.83346   -535587.69562
  20541873.881   -17086847.020 7 -13314384.46323
  22948240.0924   -3739116.74646  -2913582.53061
  23214352.4754   12905536.95945  10027164.94561
  23599994.561    -3496110.761 5  -2674116.21721
  22023760.881   -12039569.474 6  -6577965.67521
 91  4 12 22 29 59.9980000  0  6G19G 2G11G18G16G 6
  20890277.6074    -677883.13246   -528224.32762
  20537102.545   -17111920.476 7 -13333922.17123
  22952230.803    -3718140.145 6  -2897237.14321
  23222784.482    12949828.429 5  10061677.52021
  23601943.436    -3485876.549 5  -2666141.64921
  22016136.022   -12079640.928 6  -6609190.08421
 91  4 12 22 30 14.9980000  0  5G19G 2G11G18G 6
  20892088.857     -668377.098 6   -520817.05922
  20532343.318   -17136929.756 7 -13353409.87523
  22956244.0924   -3697046.51446  -2880800.57561
  23231215.365    12994143.073 5  10096208.24221
  22008511.8114  -12119712.07946  -6640414.26061
 91  4 12 22 30 29.9980000  0  5G19G 2G11G18G 6
  20893904.6004    -658811.55346   -513363.41462
  20527596.147   -17161871.692 7 -13372845.10223
  22960283.561    -3675833.306 6  -2864270.84121
  23239651.920    13038483.556 5  10130759.02921
  22000886.8034  -12159779.94046  -6671635.89561
 91  4 12 22 30 44.9980000  0  5G19G 2G11G18G 6
  20895741.4824    -649176.67646   -505855.75262
  20522865.107   -17186736.534 7 -13392220.25823
  22964343.9594   -3654490.91046  -2847640.43961
  23248100.4284   13082859.66045  10165337.57661
  21993264.7874  -12199834.68446  -6702847.30561
 91  4 12 22 30 59.9980000  0  5G19G 2G11G18G 6
  20897584.7644    -639482.04546   -498301.52262
  20518145.920   -17211534.239 7 -13411543.09723
  22968429.053    -3633029.067 6  -2830916.96121
  23256550.3654   13127261.33945  10199936.08161
  21985643.0224  -12239885.52946  -6734055.65961
 91  4 12 22 31 14.9980000  0  5G19G 2G11G18G 6
  20899444.2254    -629725.65946   -490699.18262
  20513439.959   -17236262.856 7 -13430812.10023
  22972533.8974   -3611446.30146  -2814099.24661
  23265003.420    13171690.017 5  10234555.57921
  21978023.4824  -12279930.84046  -6765259.70561
 91  4 12 22 31 29.9980000  0  5G19G 2G11G18G 6
  20901311.4434    -619901.54246   -483044.05662
  20508747.193   -17260916.484 7 -13450022.66923
  22976667.2724   -3589737.11346  -2797183.03761
  23273463.068    13216151.198 5  10269200.40221
  21970405.8654  -12319964.65346  -6796454.79461
 91  4 12 22 31 44.9980000  0  5G19G 2G11G18G 6
  20903193.428     -610016.603 6   -475341.53022
  20504068.889   -17285502.167 7 -13469180.29323
  22980819.0374   -3567908.56746  -2780173.77961
  23281930.943    13260638.161 5  10303865.35921
  21962787.9044  -12359993.58946  -6827646.08161
 91  4 12 22 31 59.9980000  0  5G19G 2G11G18G 6
  20905086.4904    -600068.28846   -467589.62862
  20499404.576   -17310017.409 7 -13488283.03323
  22984997.701    -3545958.334 6  -2763069.79321
  23290402.7564   13305152.88245  10338551.98061
  21955170.9204  -12400015.26246  -6858831.73261
 91  4 12 22 32 14.9980000  0  5G19G 2G11G18G 6
  20906991.7324    -590059.03446   -459790.24462
  20494752.553   -17334464.667 7 -13507332.79523
  22989195.6934   -3523889.27846  -2745873.13061
  23298875.3184   13349692.56845  10373257.94661
  21947555.0064  -12440031.93246  -6890013.46961
 91  4 12 22 32 29.9980000  0  5G19G 2G11G18G 6
  20908907.3734    -579981.04146   -451937.29062
  20490114.725   -17358836.341 7 -13526323.65923
  22993419.967    -3501693.980 6  -2728578.11721
  23307356.873    13394264.719 5  10407989.31521
  21939942.0144  -12480035.85346  -6921185.25061
 91  4 12 22 32 44.9980000  0  5G19G 2G11G18G 6
  20910839.6624    -569840.89646   -444035.91062
  20485489.545   -17383139.243 7 -13545260.94223
  22997666.850    -3479379.497 6  -2711190.26521
  23315845.272    13438861.930 5  10442740.11821
  21932333.576   -12520033.689 6  -6952352.31421
 91  4 12 22 32 59.9980000  0  5G19G 2G11G18G 6
  20912781.0224    -559638.18246   -436085.77562
  20480878.061   -17407373.039 7 -13564144.37423
  23001935.8814   -3456945.66546  -2693709.36261
  23324340.193    13483484.608 5  10477510.79321
  21924720.912   -12560025.038 6  -6983514.33521
 91  4 12 22 33 14.9980000  0  5G19G 2G11G18G 6
  20914734.1004    -549373.02546   -428086.98962
  20476279.381   -17431537.898 7 -13582974.08723
  23006226.3034   -3434392.98146  -2676135.85961
  23332831.9594   13528132.27445  10512300.98461
  21917113.5924  -12600009.90146  -7014671.25661
 91  4 12 22 33 29.9980000  0  5G19G 2G11G18G 6
  20916697.3734    -539046.48546   -420040.36762
  20471696.459   -17455635.100 7 -13601751.08223
  23010540.4594   -3411722.83246  -2658470.90261
  23341333.561    13572803.417 5  10547109.42521
  21909505.2644  -12639989.34046  -7045823.96461
 91  4 12 22 33 44.9980000  0  5G19G 2G11G18G 6
  20918676.2014    -528656.50346   -411944.30762
  20467122.889   -17479662.701 7 -13620473.84323
  23014879.061    -3388933.457 6  -2640712.95121
  23349834.889    13617499.830 5  10581937.58221
  21901899.2724  -12679961.26846  -7076970.86661
 91  4 12 22 33 59.9980000  0  5G19G 2G11G18G 6
  20920664.0534    -518200.97146   -403797.17462
  20462562.615   -17503618.631 7 -13639140.75523
  23019238.029    -3366023.237 6  -2622860.85521
  23358346.6864   13662223.15445  10616786.71261
  21894293.8574  -12719923.77946  -7108110.40361
 91  4 12 22 34 14.9980000  0  5G19G 2G11G18G 6
  20922668.4984    -507686.74846   -395604.30362
  20458016.873   -17527509.948 7 -13657757.32623
  23023619.295    -3342999.369 6  -2604920.24621
  23366865.311    13706966.261 5  10651651.18321
  21886691.1394  -12759883.58246  -7139247.79761
 91  4 12 22 34 29.9980000  0  5G19G 2G11G18G 6
  20924679.5764    -497110.43346   -387363.04562
  20453482.623   -17551333.374 7 -13676320.99024
  23028023.5764   -3319858.61046  -2586888.49661
  23375384.0764   13751732.18845  10686533.50461
  21879087.975   -12799837.015 6  -7170380.25221
 91  4 12 22 34 44.9980000  0  5G19G 2G11G18G 6
  20926705.9434    -486467.97246   -379070.25562
  20448963.029   -17575084.845 7 -13694828.58123
  23032448.6704   -3296597.18246  -2568762.72661
  23383905.8344   13796524.85745  10721436.66161
  21871484.8264  -12839780.10646  -7201504.67361
 91  4 12 22 34 59.9980000  0  5G19G 2G11G18G 6
  20928739.3114    -475764.39146   -370729.83862
  20444456.365   -17598769.534 7 -13713284.14623
  23036897.186    -3273220.655 6  -2550547.31221
  23392435.9514   13841338.77245  10756356.35661
  21863886.381   -12879717.935 6  -7232624.96421
 91  4 12 22 35 14.9980000  0  5G19G 2G11G18G 6
  20930789.6004    -465001.83846   -362343.46962
  20439962.678   -17622389.660 7 -13731689.38923
  23041368.4984   -3249731.34346  -2532243.96661
  23400964.9434   13886171.49545  10791290.72761
  21856287.4904  -12919652.47846  -7263742.68761
 91  4 12 22 35 29.9980000  0  5G19G 2G11G18G 6
  20932850.8114    -454175.57646   -353907.45262
  20435479.912   -17645940.649 7 -13750040.76624
  23045858.7954   -3226124.97546  -2513849.43661
  23409503.2874   13931027.44945  10826243.17661
  21848690.029   -12959578.998 6  -7294854.18921
 91  4 12 22 35 44.9980000  0  5G19G 2G11G18G 6
  20934921.7644    -443282.86946   -345419.66762
  20431011.147   -17669419.921 7 -13768336.25723
  23050375.3974   -3202399.16946  -2495361.85661
  23418045.3734   13975908.78645  10861215.36761
  21841092.6074  -12999494.91546  -7325957.40361
 91  4 12 22 35 59.9980000  0  5G19G 2G11G18G 6
  20937005.7954    -432326.07146   -336881.94262
  20426557.022   -17692829.812 7 -13786577.68823
  23054912.7174   -3178556.55246  -2476783.17161
  23426589.9984   14020812.90245  10896205.43561
  21833497.5684  -13039402.31146  -7357053.97461
 91  4 12 22 36 14.9980000  0  5G19G 2G11G18G 6
  20939105.2874    -421303.34846   -328292.84362
  20422115.998   -17716168.589 7 -13804763.70024
  23059470.7404   -3154595.51846  -2458112.27561
  23435138.2324   14065741.52545  10931214.45561
  21825907.522   -13079299.221 6  -7388142.40721
 91  4 12 22 36 29.9980000  0  5G19G 2G11G18G 6
  20941212.4674    -410220.51246   -319656.90562
  20417686.787   -17739442.389 7 -13822899.08523
  23064053.537    -3130522.368 6  -2439354.03621
  23443690.8344   14110688.28745  10966237.69061
  21818316.295   -13119191.574 6  -7419227.27421
 91  4 12 22 36 44.9980000  0  5G19G 2G11G18G 6
  20943336.0454    -399069.08146   -310967.51362
  20413272.436   -17762642.649 7 -13840977.16824
  23068655.092    -3106329.003 6  -2420502.08121
  23452251.232    14155661.451 5  11001281.47121
  21810727.389   -13159070.962 6  -7450302.03921
 91  4 12 22 36 59.9980000  0  5G19G 2G11G18G 6
  20945471.6934    -387853.72946   -302228.31562
  20408869.162   -17785774.234 7 -13859001.73423
  23073282.9124   -3082020.51646  -2401560.45161
  23460807.6074   14200655.70745  11036341.69461
  21803139.522   -13198942.074 6  -7481370.35421
 91  4 12 22 37 14.9980000  0  5G19G 2G11G18G 6
  20947617.850     -376575.247 6   -293439.93322
  20404480.537   -17808838.273 7 -13876973.66624
  23077929.732    -3057598.074 6  -2382529.98821
  23469381.8654   14245669.93845  11071417.49161
  21795553.7404  -13238805.70946  -7512432.83661
 91  4 12 22 37 29.9980000  0  5G19G 2G11G18G 6
  20949772.9284    -365230.72846   -284600.07662
  20400105.982   -17831831.779 7 -13894890.63824
  23082599.1934   -3033058.99746  -2363408.66261
  23477948.5374   14290706.77645  11106510.89761
  21787970.811   -13278658.716 6  -7543487.04321
 91  4 12 22 37 44.9980000  0  5G19G 2G11G18G 6
  20951946.881     -353817.093 6   -275706.37622
  20395743.482   -17854751.745 7 -13912750.30824
  23087293.4824   -3008400.62046  -2344194.41361
  23486525.537    14335769.226 5  11141624.22521
  21780388.975   -13318498.018 6  -7574530.59021
 91  4 12 22 37 59.9980000  0  5G19G 2G11G18G 6
  20954132.1784    -342341.56546   -266764.43762
  20391395.873   -17877605.543 7 -13930558.41624
  23092005.1074   -2983630.44746  -2324893.00161
  23495101.186    14380849.597 5  11176751.61421
  21772807.7794  -13358330.82846  -7605569.05561
 91  4 12 22 38 14.9970000  0  5G19G 2G11G18G 6
  20956326.0564    -330800.71346   -257771.60262
  20387059.032   -17900387.684 7 -13948310.69224
  23096739.985    -2958746.356 6  -2305502.86121
  23503688.142    14425948.614 5  11211893.41921
  21765232.548   -13398150.291 6  -7636597.09521
 91  4 12 22 38 29.9970000  0  5G19G 2G11G18G 6
  20958537.8534    -319193.26446   -248726.87862
  20382737.173   -17923101.505 7 -13966009.73023
  23101498.1654   -2933745.55546  -2286021.71261
  23512272.0404   14471071.84445  11247054.17161
  21757657.0094  -13437961.65646  -7667618.86861
 91  4 12 22 38 44.9970000  0  5G19G 2G11G18G 6
  20960755.7284    -307524.40246   -239634.28862
  20378427.618   -17945749.939 7 -13983657.81823
  23106276.0874   -2908634.48046  -2266454.67861
  23520863.517    14516211.462 5  11282227.64821
  21750080.493   -13477766.945 6  -7698635.93321
 91  4 12 22 38 59.9970000  0  5G19G 2G11G18G 6
  20962990.4704    -295790.27946   -230490.85462
  20374131.478   -17968329.414 7 -14001252.17224
  23111076.8064   -2883409.86846  -2246799.19461
  23529452.3764   14561370.60745  11317416.35461
  21742504.7594  -13517562.35446  -7729645.25161
 91  4 12 22 39 14.9970000  0  5G19G 2G11G18G 6
  20965236.5094    -283988.57546   -221294.75562
  20369847.267   -17990837.674 7 -14018791.03323
  23115900.2904   -2858069.63946  -2227053.60061
  23538052.8994   14606551.55245  11352622.05561
  21734938.0564  -13557345.31346  -7760644.85562
 91  4 12 22 39 29.9970000  0  5G19G 2G11G18G 6
  20967495.556     -272123.686 6   -212049.43822
  20365576.8454  -18013279.13747 -14036277.84663
  23120741.993    -2832618.503 6  -2207221.57321
  23546652.618    14651749.719 5  11387841.16921
  21727369.017   -13597120.163 6  -7791638.16321
 91  4 12 22 39 44.9970000  0  5G19G 2G11G18G 6
  20969763.6574    -260191.38846   -202751.58562
  20361320.7744  -18035649.80547 -14053709.49664
  23125607.212    -2807052.693 6  -2187300.18521
  23555259.5794   14696968.97845  11423076.70061
  21719800.9464  -13636882.85446  -7822622.00161
 91  4 12 22 39 59.9970000  0  5G19G 2G11G18G 6
  20972048.9074    -248192.83346   -193402.09962
  20357076.978   -18057950.856 7 -14071086.89823
  23130491.5564   -2781373.49946  -2167290.48561
  23563872.056    14742207.914 5  11458327.60621
  21712237.6494  -13676634.18546  -7853597.01061
 91  4 12 22 40 14.9970000  0  5G19G 2G11G18G 6
  20974341.6734    -236132.32046   -184004.32962
  20352845.478   -18080186.908 7 -14088413.64724
  23135400.7514   -2755585.76146  -2147196.18661
  23572481.4154   14787461.59045  11493589.96061
  21704673.767   -13716378.465 6  -7884566.50822
 91  4 12 22 40 29.9970000  0  5G19G 2G11G18G 6
  20976648.8844    -224005.68146   -174555.03562
  20348627.399   -18102353.737 7 -14105686.45523
  23140329.173    -2729685.672 6  -2127014.30521
  23581090.0714   14832733.70345  11528866.72661
  21697112.087   -13756111.837 6  -7915527.47321
 91  4 12 22 40 44.9970000  0  5G19G 2G11G18G 6
  20978971.6814    -211815.74746   -165056.42162
  20344420.493   -18124454.140 7 -14122907.50124
  23145280.024    -2703676.331 6  -2106747.34221
  23589712.196    14878021.289 5  11564155.51621
  21689553.0644  -13795836.75346  -7946481.86361
 91  4 12 22 40 59.9970000  0  5G19G 2G11G18G 6
  20981299.8454    -199559.94846   -155506.48462
  20340228.501   -18146485.852 7 -14140075.03724
  23150248.8844   -2677555.50746  -2086393.48961
  23598340.5644   14923326.48245  11599458.00861
  21681996.9624  -13835550.39246  -7977427.53861
 91  4 12 22 41 14.9970000  0  5G19G 2G11G18G 6
  20983647.009     -187239.637 6   -145906.29022
  20336049.587   -18168450.356 7 -14157190.17724
  23155241.2284   -2651325.04546  -2065954.19361
  23606956.6344   14968647.70445  11634773.02261
  21674439.774   -13875254.571 6  -8008365.79521
 91  4 12 22 41 29.9970000  0  5G19G 2G11G18G 6
  20986003.4704    -174847.61446   -136250.20462
  20331883.478   -18190340.375 7 -14174247.29023
  23160255.6894   -2624978.06946  -2045424.11761
  23615586.509    15013991.795 5  11670105.84521
  21666886.9394  -13914941.75346  -8039290.76361
 91  4 12 22 41 44.9970000  0  5G19G 2G11G18G 6
  20988375.4704    -162385.59646   -126539.58162
  20327731.212   -18212157.904 7 -14191247.91524
  23165289.1894   -2598516.59446  -2024804.81361
  23624224.095    15059356.866 5  11705455.01421
  21659340.868   -13954613.611 6  -8070203.82421
 91  4 12 22 41 59.9970000  0  5G19G 2G11G18G 6
  20990757.9234    -149857.26246   -116777.28362
  20323593.564   -18233906.738 7 -14208195.01423
  23170345.251    -2571944.656 6  -2004099.46421
  23632853.6894   15104738.73644  11740817.30961
  21651790.532   -13994273.866 6  -8101107.86821
 91  4 12 22 42 14.9970000  0  5G19G 2G11G18G 6
  20993154.7434    -137271.57246   -106970.29162
  20319466.571   -18255595.986 7 -14225095.68323
  23175421.970    -2545271.633 6  -1983315.30521
  23641495.439    15150127.972 5  11776185.24721
  21644246.2124  -14033931.36346  -8132009.73261
 91  4 12 22 42 29.9970000  0  5G19G 2G11G18G 6
  20995564.9154    -124613.29346    -97106.72762
  20315352.118   -18277210.392 7 -14241938.02924
  23180521.0564   -2518482.49846  -1962440.68861
  23650137.3214   15195539.53545  11811570.70261
  21636702.454   -14073570.582 6  -8162897.34221
 91  4 12 22 42 44.9970000  0  5G19G 2G11G18G 6
  20997987.3764    -111888.25646    -87191.15062
  20311252.587   -18298755.958 7 -14258726.73724
  23185638.056    -2491583.609 6  -1941480.56921
  23658784.618    15240967.362 5  11846968.72821
  21629161.579   -14113197.484 6  -8193775.39621
 91  4 12 22 42 59.9970000  0  5G19G 2G11G18G 6
  21000416.9234     -99103.17346    -77228.78162
  20307165.165   -18320239.442 7 -14275467.07423
  23190777.1184   -2464581.92046  -1920440.32561
  23667428.673    15286404.514 5  11882374.10021
  21621620.009   -14152818.712 6  -8224649.03621
 91  4 12 22 43 14.9970000  0  5G19G 2G11G18G 6
  21002862.9154     -86256.00146    -67218.04162
  20303088.7594  -18341659.04147 -14292157.62963
  23195935.5014   -2437475.89146  -1899318.79361
  23676076.032    15331852.438 5  11917787.78821
  21614084.3144  -14192432.31146  -8255516.68462
 91  4 12 22 43 29.9970000  0  5G19G 2G11G18G 6
  21005318.9154     -73348.25046    -57160.09262
  20299023.603   -18363016.467 7 -14308799.73724
  23201113.1814   -2410267.35546  -1878117.38261
  23684726.9704   15377309.19945  11953208.44961
  21606546.462   -14232039.677 6  -8286379.48022
 91  4 12 22 43 44.9970000  0  4G19G 2G11G 6
  21007789.0644     -60371.34646    -47048.25762
  20294973.962   -18384303.106 7 -14325386.68424
  23206310.7984   -2382947.98446  -1856829.58261
  21599010.649   -14271632.054 6  -8317230.60021
 91  4 12 22 43 59.9970000  0  4G19G 2G11G 6
  21010269.196      -47330.123 6    -36886.30822
  20290935.3064  -18405523.72947 -14341922.19163
  23211530.7904   -2355522.79246  -1835459.38161
  21591482.196   -14311214.015 6  -8348073.62721
 91  4 12 22 44 14.9970000  0  4G19G 2G11G 6
  21012765.829      -34225.030 6    -26674.59422
  20286909.6104  -18426679.05947 -14358406.82364
  23216771.0874   -2327992.84946  -1814007.47561
  21583949.446   -14350786.089 6  -8378908.98022
 91  4 12 22 44 29.9970000  0  4G19G 2G11G 6
  21015270.7044     -21053.39146    -16411.01562
  20282895.8764  -18447766.56347 -14374838.60664
  23222026.540    -2300355.807 6  -1792472.18121
  21576420.368   -14390345.782 6  -8409734.60922
 91  4 12 22 44 44.9970000  0  4G19G 2G11G 6
  21017790.626       -7814.625 6     -6095.14022
  20278896.1424  -18468785.98947 -14391217.34764
  23227308.3684   -2272611.74746  -1770853.48461
  21568895.548   -14429892.422 6  -8440550.06721
 91  4 12 22 44 59.9970000  0  4G19G 2G11G 6
  21020319.587        5485.992 6      4268.93122
  20274908.845   -18489742.664 7 -14407547.17624
  23232606.2284   -2244766.27546  -1749155.73961
  21561371.6574  -14469431.05546  -8471359.37361
 91  4 12 22 45 14.9970000  0  4G19G 2G11G 6
  21022863.782       18853.810 6     14685.37322
  20270933.1104  -18510631.23247 -14423823.94564
  23237926.384    -2216814.222 6  -1727374.96821
  21553849.478   -14508956.476 6  -8502158.34122
 91  4 12 22 45 29.9970000  0  4G19G 2G11G 6
  21025423.821       32290.372 6     25155.37022
  20266970.7904  -18531450.34947 -14440046.59764
  23243264.3534   -2188754.46246  -1705510.24961
  21546331.5954  -14548466.89446  -8532945.55062
 91  4 12 22 45 44.9970000  0  4G19G 2G11G 6
  21027993.0244      45792.39146     35676.38962
  20263022.2594  -18552203.26047 -14456217.65764
  23248625.649    -2160590.387 5  -1683564.28421
  21538815.7674  -14587965.54646  -8563723.64061
 91  4 12 22 45 59.9970000  0  4G19G 2G11G 6
  21030571.064       59356.238 6     46245.56622
  20259086.860   -18572893.741 7 -14472340.06224
  23254003.3604   -2132326.26546  -1661540.32261
  21531299.103   -14627456.039 6  -8594495.41521
 91  4 12 22 46 14.9970000  0  4G19G 2G11G 6
  21033167.2514      72984.75346     56865.14862
  20255160.7354  -18593519.05747 -14488411.69664
  23259402.7514   -2103959.49446  -1639436.33361
  21523787.4934  -14666935.46646  -8625258.52961
 91  4 12 22 46 29.9970000  0  4G19G 2G11G 6
  21035770.142       86682.751 6     67538.86822
  20251248.915   -18614074.443 8 -14504428.83924
  23264820.079    -2075485.516 6  -1617248.91921
  21516278.2984  -14706398.66446  -8656008.97362
 91  4 12 22 46 44.9970000  0  4G19G 2G11G 6
  21038393.064      100444.938 6     78262.60022
  20247350.9934  -18634565.45047 -14520395.81764
  23270259.0174   -2046910.09146  -1594982.40461
  21508769.485   -14745851.091 6  -8686751.05021
 91  4 12 22 46 59.9970000  0  4G19G 2G11G 6
  21041023.1574     114270.16046     89035.46462
  20243462.6734  -18654993.31348 -14536313.59163
  23275710.876    -2018234.715 5  -1572637.93921
  21501264.564   -14785293.699 6  -8717485.47722
 91  4 12 22 47 14.9970000  0  4G19G 2G11G 6
  21043666.220      128162.619 6     99860.70922
  20239587.4934  -18675353.98448 -14552179.01064
  23281191.6034   -1989455.61046  -1550212.75761
  21493761.696   -14824722.406 6  -8748209.06022
 91  4 12 22 47 29.9970000  0  4G19G 2G11G 6
  21046320.290      142118.622 6    110735.46922
  20235725.540   -18695651.132 7 -14567994.93024
  23286686.517    -1960576.846 6  -1527709.87921
  21486259.470   -14864140.765 6  -8778924.58021
 91  4 12 22 47 44.9970000  0  4G19G 2G11G 6
  21048989.814      156143.902 6    121664.21322
  20231876.4314  -18715879.16947 -14583756.99964
  23292203.1654   -1931593.01745  -1505125.09461
  21478762.5874  -14903542.82746  -8809627.42062
 91  4 12 22 47 59.9970000  0  4G19G 2G11G 6
  21051674.595      170232.838 6    132642.55622
  20228039.4464  -18736043.73047 -14599469.60464
  23297738.634    -1902510.138 6  -1482463.15421
  21471264.423   -14942934.147 6  -8840321.87621
 91  4 12 22 48 14.9970000  0  4G19G 2G11G 6
  21054365.798      184392.306 6    143675.86222
  20224214.9154  -18756138.09147 -14615127.51064
  23303290.4154   -1873321.85446  -1459719.09861
  21463773.095   -14982307.944 6  -8871002.64121
 91  4 12 22 48 29.9970000  0  4G19G 2G11G 6
  21057070.501      198613.401 6    154757.18722
  20220403.3294  -18776171.45847 -14630737.89364
  23308861.970    -1844037.300 5  -1436900.00521
  21456284.524   -15021672.921 7  -8901676.59722
 91  4 12 22 48 44.9970000  0  4G19G 2G11G 6
  21059791.9394     212903.19946    165892.05662
  20216603.0714  -18796136.69347 -14646295.17964
  23314456.3374   -1814649.69046  -1414000.56761
  21448792.564   -15061021.781 6  -8932337.97722
 91  4 12 22 48 59.9970000  0  4G19G 2G11G 6
  21062522.181      227262.147 6    177080.79922
  20212817.8924  -18816033.55947 -14661799.19464
  23320068.470    -1785159.092 6  -1391020.93321
  21441310.1264  -15100354.27846  -8962986.53562
 91  4 12 22 49 14.9970000  0  4G19G 2G11G 6
  21065271.384      241692.597 6    188325.25622
  20209045.5174  -18835860.04147 -14677248.36664
  23325699.423    -1755563.587 6  -1367959.55921
  21433829.6344  -15139668.00346  -8993620.53661
 91  4 12 22 49 29.9970000  0  4G19G 2G11G 6
  21068030.8064     256187.80346    199620.18162
  20205283.0714  -18855622.85647 -14692647.92964
  23331350.1264   -1725870.08446  -1344821.79061
  21426349.087   -15178969.348 6  -9024244.89721
 91  4 12 22 49 44.9970000  0  4G19G 2G11G 6
  21070800.360      270745.202 6    210963.55322
  20201535.0404  -18875324.65947 -14707999.95164
  23337019.306    -1696081.609 6  -1321609.96621
  21418874.196   -15218260.957 6  -9054861.64622
 91  4 12 22 49 59.9970000  0  4G19G 2G11G 6
  21073581.821      285373.073 6    222361.84922
  20197798.6424  -18894957.06647 -14723297.89764
  23342705.423    -1666190.389 6  -1298318.14921
  21411398.5954  -15257534.48446  -9085464.31262
 91  4 12 22 50 14.9970000  0  4G19G 2G11G 6
  21076378.431      300069.909 6    233813.88522
  20194075.3994  -18914521.76247 -14738543.08264
  23348414.157    -1636198.069 5  -1274947.61021
  21403928.540   -15296791.268 7  -9116053.92321
 91  4 12 22 50 29.9970000  0  4G19G 2G11G 6
  21079191.415      314837.699 6    245321.20122
  20190366.0014  -18934016.81847 -14753733.99964
  23354142.626    -1606103.162 6  -1251497.09321
  21396462.9074  -15336029.22446  -9146628.89861
 91  4 12 22 50 44.9970000  0  4G19G 2G11G 6
  21082011.720      329666.659 6    256876.18822
  20186666.9464  -18953452.16647 -14768878.38764
  23359887.0244   -1575915.79046  -1227974.41461
  21388998.6964  -15375257.98346  -9177196.66862
 91  4 12 22 50 59.9970000  0  4G19G 2G11G 6
  21084849.259      344562.706 6    268483.44422
  20182980.0014  -18972821.88647 -14783971.64364
  23365648.6654   -1545630.31245  -1204375.42961
  21381534.790   -15414471.589 6  -9207752.64422
 91  4 12 22 51 14.9970000  0  4G19G 2G11G 6
  21087692.939      359522.614 6    280140.46322
  20179307.8064  -18992129.58347 -14799016.56763
  23371429.564    -1515250.611 6  -1180703.03321
  21374075.814   -15453673.240 6  -9238299.30321
 91  4 12 22 51 29.9970000  0  4G19G 2G11G 6
  21090553.1104     374542.45646    291844.17562
  20175644.5874  -19011379.19448 -14814016.23164
  23377227.5564   -1484780.74845  -1156960.29861
  21366616.2124  -15492866.73146  -9268839.61962
 91  4 12 22 51 44.9970000  0  4G19G 2G11G 6
  21093423.2044     389630.46146    303601.02262
  20171994.1734  -19030562.52348 -14828964.24664
  23383045.5954   -1454212.75745  -1133141.12461
  21359160.439   -15532043.737 6  -9299367.07421
 91  4 12 22 51 59.9970000  0  4G19G 2G11G 6
  21096308.923      404785.863 6    315410.38322
  20168354.9784  -19049680.65747 -14843861.45764
  23388881.212    -1423548.067 6  -1109246.61321
  21351709.048   -15571204.917 6  -9329882.21022
 91  4 12 22 52 14.9970000  0  4G19G 2G11G 6
  21099205.439      420010.261 6    327273.49222
  20164730.7354  -19068731.96148 -14858706.59664
  23394733.8294   -1392785.26945  -1085275.65961
  21344259.4314  -15610348.71546  -9360383.78662
 91  4 12 22 52 29.9970000  0  4G19G 2G11G 6
  21102114.274      435298.578 6    339186.42122
  20161116.4854  -19087721.57148 -14873503.66464
  23400606.689    -1361929.624 5  -1061232.37621
  21336814.689   -15649479.761 6  -9390875.41922
 91  4 12 22 52 44.9970000  0  4G19G 2G11G 6
  21105035.056      450655.860 6    351153.08722
  20157515.7044  -19106644.37347 -14888248.67364
  23406496.407    -1330976.627 6  -1037113.15421
  21329372.892   -15688593.003 7  -9421353.22822
 91  4 12 22 52 59.9970000  0  4G19G 2G11G 6
  21107972.259      466086.266 6    363176.73522
  20153928.2744  -19125496.52548 -14902938.62964
  23412404.8454   -1299922.55245  -1012915.24061
  21321931.415   -15727684.259 6  -9451813.86822
 91  4 12 22 53 14.9970000  0  4G19G 2G11G 6
  21110920.7674     481587.40946    375255.49562
  20150353.4854  -19144280.65748 -14917575.57964
  23418334.751    -1268770.248 6   -988640.80421
  21314496.790   -15766755.885 6  -9482259.20621
 91  4 12 22 53 29.9970000  0  4G19G 2G11G 6
  21113882.134      497150.608 6    387382.61022
  20146790.6814  -19163005.35847 -14932166.22364
  23424280.892    -1237528.604 5   -964296.68521
  21307064.4074  -15805816.38847  -9512695.90862
 91  4 12 22 53 44.9970000  0  4G19G 2G11G 6
  21116856.5244     512778.79746    399560.38362
  20143238.7674  -19181667.72348 -14946708.29464
  23430241.0644   -1206194.91145   -939880.87161
  21299633.3684  -15844862.67546  -9543121.51762
 91  4 12 22 53 59.9970000  0  4G19G 2G11G 6
  21119842.5564     528475.13846    411791.24162
  20139699.3454  -19200264.74248 -14961199.44464
  23436222.0644   -1174766.65646   -915391.36561
  21292206.384   -15883891.543 6  -9573533.54522
 91  4 12 22 54 14.9970000  0  4G19G 2G11G 6
  21122844.110      544236.534 6    424072.80322
  20136172.9234  -19218799.68548 -14975642.22264
  23442219.7284   -1143247.38645   -890830.92261
  21284782.579   -15922906.168 6  -9603934.47322
 91  4 12 22 54 29.9970000  0  4G19G 2G11G 6
  21125854.532      560068.770 6    436409.56122
  20132659.4464  -19237266.87448 -14990032.20464
  23448237.735    -1111631.429 5   -866195.17921
  21277360.9234  -15961900.45946  -9634319.56662
 91  4 12 22 54 44.9970000  0  4G19G 2G11G 6
  21128882.2124     575963.51046    448795.01562
  20129155.5174  -19255674.71348 -15004375.94064
  23454270.4074   -1079927.60546   -841490.98661
  21269943.7674  -16000882.63246  -9664695.22762
 91  4 12 22 54 59.9970000  0  4G19G 2G11G 6
  21131918.368      591929.794 6    461236.22322
  20125666.2904  -19274014.14548 -15018666.37464
  23460320.720    -1048127.266 5   -816711.52121
  21262529.665   -16039843.693 6  -9695054.40922
 91  4 12 22 55 14.9970000  0  4G19G 2G11G 6
  21134968.149      607958.038 6    473725.72522
  20122186.8214  -19292295.16948 -15032911.29464
  23466387.774    -1016240.302 5   -791864.60821
  21255118.9234  -16078792.86147  -9725404.34962
 91  4 12 22 55 29.9970000  0  4G19G 2G11G 6
  21138032.212      624057.964 6    486271.06422
  20118720.5014  -19310508.26448 -15047103.27964
  23472476.321     -984257.655 6   -766943.13721
  21247708.9074  -16117720.74346  -9755737.70662
 91  4 12 22 55 44.9970000  0  4G19G 2G11G 6
  21141108.368      640227.522 6    498870.67122
  20115268.1344  -19328655.37648 -15061243.85164
  23478578.595     -952181.425 5   -741948.72221
  21240306.0244  -16156628.87146  -9786055.66362
 91  4 12 22 55 59.9970000  0  4G19G 2G11G 6
  21144198.196      656462.658 6    511521.37722
  20111826.2354  -19346740.72448 -15075336.30064
  23484699.540     -920016.026 5   -716884.86621
  21232904.1894  -16195521.29546  -9816361.38062
 91  4 12 22 56 14.9970000  0  4G19G 2G11G 6
  21147303.571      672771.418 6    524229.44822
  20108398.1264  -19364756.33748 -15089374.40864
  23490840.2824    -887753.77946   -691745.51661
  21225507.3994  -16234389.89346  -9846648.53662
 91  4 12 22 56 29.9970000  0  4G19G 2G11G 6
  21150416.7044     689144.74346    536987.83462
  20104981.1034  -19382711.16948 -15103365.15064
  23496994.1104    -855404.09145   -666537.99961
  21218114.3924  -16273243.45046  -9876923.97062
 91  4 12 22 56 44.9970000  0  4G19G 2G11G 6
  21153545.884      705582.812 6    549796.66622
  20101576.7204  -19400605.16548 -15117308.49564
  23503168.485     -822967.216 5   -641262.59621
  21210724.290   -16312081.622 6  -9907187.43122
 91  4 12 22 56 59.9970000  0  4G19G 2G11G 6
  21156685.860      722086.810 6    562656.87522
  20098182.6654  -19418437.24848 -15131203.59164
  23509356.649     -790442.422 5   -615918.63821
  21203336.0564  -16350903.31246  -9937438.05162
 91  4 12 22 57 14.9970000  0  4G19G 2G11G 6
  21159843.7284     738669.92646    575578.73062
  20094803.2204  -19436194.39148 -15145040.29564
  23515563.4934    -757816.69945   -590496.01961
  21195955.954   -16389695.132 6  -9967665.37122
 91  4 12 22 57 29.9970000  0  4G19G 2G11G 6
  21163010.040      755322.284 6    588554.53522
  20091437.3604  -19453886.53248 -15158826.35064
  23521791.501     -725100.341 5   -565002.83421
  21188576.017   -16428466.873 6  -9997877.03622
 91  4 12 22 57 44.9970000  0  4G19G 2G11G 6
  21166195.368      772051.446 6    601590.20822
  20088084.2514  -19471506.14248 -15172555.88364
  23528035.6424    -692286.24646   -539433.44661
  21181204.649   -16467210.722 7 -10028067.00022
 91  4 12 22 57 59.9970000  0  4G19G 2G11G 6
  21169393.2984     788852.19246    614681.63962
  20084744.0174  -19489058.76248 -15186233.22063
  23534298.2514    -659380.15245   -513792.37061
  21173835.2434  -16505932.06346 -10058239.42362
 91  4 12 22 58 14.9970000  0  4G19G 2G11G 6
  21172602.8684     805715.39446    627821.74062
  20081414.0174  -19506553.68548 -15199865.59564
  23540573.704     -626391.459 5   -488086.98921
  21166469.657   -16544639.771 6 -10088401.19322
 91  4 12 22 58 29.9970000  0  4G19G 2G11G 6
  21175821.103      822647.934 6    641015.88122
  20078097.5714  -19523984.08448 -15213447.69364
  23546869.993     -593313.659 6   -462312.13621
  21159108.485   -16583326.795 6 -10118546.87122
 91  4 12 22 58 44.9970000  0  4G19G 2G11G 6
  21179060.2594     839658.08046    654270.48162
  20074794.2984  -19541341.65948 -15226973.04564
  23553183.0954    -560138.84945   -436461.65761
  21151751.5014  -16621984.82547 -10148669.97262
 91  4 12 22 58 59.9970000  0  4G19G 2G11G 6
  21182310.821      856739.616 6    667580.71622
  20071504.5404  -19558632.47548 -15240446.37564
  23559513.9074    -526873.39045   -410540.57261
  21144398.9464  -16660619.66646 -10178774.97362
 91  4 12 22 59 14.9970000  0  4G19G 2G11G 6
  21185574.321      873889.985 6    680944.59322
  20068227.4544  -19575859.48948 -15253869.99164
  23565861.040     -493520.464 6   -384551.37321
  21137050.782   -16699233.967 6 -10208863.95922
 91  4 12 22 59 29.9970000  0  4G19G 2G11G 6
  21188853.134      891107.711 6    694360.94322
  20064959.5644  -19593024.37248 -15267245.19364
  23572223.860     -460082.018 5   -358495.49321
  21129706.657   -16737829.185 6 -10238938.10122
 91  4 12 22 59 44.9970000  0  4G19G 2G11G 6
  21192143.485      908399.316 6    707834.87122
  20061706.7904  -19610120.45048 -15280566.78564
  23578603.259     -426551.647 5   -332367.97021
  21122365.626   -16776398.480 6 -10268992.05822
 91  4 12 22 59 59.9970000  0  4G19G 2G11G 6
  21195443.8454     925761.57346    721363.83962
  20058465.0564  -19627151.15748 -15293837.44264
  23585001.790     -392932.979 5   -306171.65621
  21115032.470   -16814944.970 6 -10299028.21022
 91  4 12 23  0 14.9970000  0  4G19G 2G11G 6
  21198765.103      943196.762 6    734949.65122
  20055237.8924  -19644114.31348 -15307055.44964
  23591415.978     -359224.091 5   -279905.04021
  21107701.6424  -16853466.24646 -10329044.72162
 91  4 12 23  0 29.9970000  0  4G19G 2G11G 6
  21202097.204      960702.904 6    748590.74822
  20052022.6034  -19661012.00448 -15320222.45264
  23597847.0714    -325427.36345   -253569.99761
  21100374.868   -16891964.204 6 -10359043.08922
 91  4 12 23  0 44.9970000  0  4G19G 2G11G 6
  21205437.032      978274.925 6    762283.16122
  20048818.1654  -19677849.44448 -15333342.50664
  23604294.6424    -291548.18445   -227170.71061
  21093051.5324  -16930443.64546 -10389026.99862
 91  4 12 23  0 59.9970000  0  4G19G 2G11G 6
  21208795.814      995914.323 6    776028.09222
  20045625.3994  -19694625.26948 -15346414.54464
  23610756.4854    -257585.63145   -200706.41161
  21085733.8534  -16968903.10047 -10418995.34062
 91  4 12 23  1 14.9970000  0  4G19G 2G11G 6
  21212166.735     1013627.467 6    789830.49922
  20042445.8604  -19711332.82248 -15359433.38664
  23617236.220     -223533.446 5   -174172.26321
  21078419.8994  -17007335.86246 -10448942.88662
 91  4 12 23  1 29.9970000  0  4G19G 2G11G 6
  21215549.2984    1031411.11946    803687.82662
  20039279.1184  -19727975.85848 -15372401.95864
  23623733.2674    -189395.36045   -147571.21561
  21071112.5954  -17045745.14247 -10478872.13362
 91  4 12 23  1 44.9970000  0  4G19G 2G11G 6
  21218949.2044    1049268.53246    817602.62262
  20036125.009   -19744551.059 8 -15385317.67024
  23630246.595     -155168.572 5   -120901.06421
  21063809.103   -17084127.541 7 -10508780.45522
 91  4 12 23  1 59.9970000  0  4G19G 2G11G 6
  21222361.9074    1067194.99546    831571.24161
  20032983.5954  -19761063.01648 -15398184.10163
  23636774.8924    -120858.01845    -94165.60361
  21056509.1814  -17122487.62346 -10538671.36262
 91  4 12 23  2 14.9970000  0  4G19G 2G11G 6
  21225786.0484    1085191.46646    845594.41162
  20029852.5174  -19777510.99548 -15411000.68264
  23643321.993      -86463.153 5    -67364.42721
  21049211.392   -17160824.285 6 -10568544.00822
 91  4 12 23  2 29.9970000  0  4G19G 2G11G 6
  21229224.0094    1103259.80746    859673.56462
  20026735.7284  -19793893.18048 -15423765.99364
  23649883.3214     -51982.45645    -40496.35661
  21041922.610   -17199135.514 7 -10598396.87122
 91  4 12 23  2 44.9970000  0  4G19G 2G11G 6
  21232673.6344    1121399.69946    873808.48262
  20023629.8534  -19810210.41648 -15436480.69364
  23656460.368      -17416.781 5    -13562.14421
  21034636.2124  -17237421.59946 -10628230.12762
 91  4 12 23  2 59.9970000  0  3G19G 2G 6
  21236141.001     1139610.216 6    887998.44021
  20020537.8144  -19826463.55548 -15449145.44464
  21027356.360   -17275683.361 7 -10658044.41122
 91  4 12 23  3 14.9970000  0  3G19G 2G 6
  21239620.4784    1157890.32346    902242.62762
  20017457.0954  -19842653.58748 -15461761.03064
  21020079.501   -17313921.624 7 -10687840.41322
 91  4 12 23  3 29.9970000  0  3G19G 2G 6
  21243113.024     1176239.640 6    916540.71822
  20014388.0484  -19858780.88848 -15474327.72864
  21012806.7904  -17352136.47946 -10717618.17162
 91  4 12 23  3 44.9970000  0  3G19G 2G 6
  21246616.165     1194656.911 6    930891.76221
  20011331.064   -19874846.785 8 -15486846.58324
  21005538.915   -17390329.067 7 -10747378.54822
 91  4 12 23  3 59.9970000  0  3G19G 2G 6
  21250134.415     1213142.767 6    945296.27221
  20008285.9784  -19890851.00948 -15499317.37864
  20998275.040   -17428498.732 7 -10777121.08922
 91  4 12 23  4 14.9970000  0  3G19G 2G 6
  21253664.7124    1231699.15946    959755.74362
  20005251.954   -19906791.488 8 -15511738.50324
  20991017.071   -17466643.225 6 -10806844.02722
 91  4 12 23  4 29.9970000  0  3G19G 2G 6
  21257211.6104    1250322.11946    974267.05162
  20002228.7434  -19922672.16948 -15524113.03064
  20983762.446   -17504766.433 7 -10836550.36322
 91  4 12 23  4 44.9970000  0  3G19G 2G 6
  21260766.954     1269019.743 6    988836.54921
  19999220.806   -19938484.968 8 -15536434.66724
  20976513.579   -17542859.979 7 -10866233.58922
 91  4 12 23  4 59.9970000  0  3G19G 2G 6
  21264339.899     1287783.749 6   1003457.81521
  19996222.353   -19954238.601 8 -15548710.19824
  20969266.7124  -17580932.24446 -10895900.23462
 91  4 12 23  5 14.9970000  0  3G19G 2G 6
  21267920.774     1306620.770 6   1018135.94522
  19993237.189   -19969926.779 8 -15560934.72924
  20962030.251   -17618976.501 7 -10925545.05422
 91  4 12 23  5 29.9970000  0  3G19G 2G 6
  21271518.2824    1325519.37846   1032862.03362
  19990262.1964  -19985560.68248 -15573116.96764
  20954793.220   -17657003.663 6 -10955176.56422
 91  4 12 23  5 44.9970000  0  3G19G 2G 6
  21275129.728     1344494.614 6   1047647.87221
  19987299.892   -20001125.042 8 -15585245.01024
  20947562.6814  -17694998.65446 -10984782.97362
 91  4 12 23  5 59.9970000  0  3G19G 2G 6
  21278751.3214    1363540.05846   1062488.42861
  19984350.532   -20016626.620 8 -15597324.14024
  20940337.3454  -17732967.67646 -11014369.18262
 91  4 12 23  6 14.9970000  0  3G19G 2G 6
  21282389.712     1382647.764 6   1077377.46722
  19981410.634   -20032073.496 8 -15609360.64324
  20933114.884   -17770918.634 6 -11043941.30822
 91  4 12 23  6 29.9970000  0  3G19G 2G 6
  21286039.2744    1401830.00946   1092324.59861
  19978484.157   -20047453.400 8 -15621344.96224
  20925899.1574  -17808839.05946 -11073489.62162
 91  4 12 23  6 44.9970000  0  3G19G 2G 6
  21289703.7744    1421078.92246   1107323.69362
  19975569.048   -20062774.204 8 -15633283.22924
  20918686.868   -17846736.542 6 -11103020.07522
 91  4 12 23  6 59.9970000  0  3G19G 2G 6
  21293378.2674    1440395.52546   1122375.52062
  19972664.814   -20078034.988 8 -15645174.72724
  20911479.6034  -17884609.93846 -11132531.74962
 91  4 12 23  7 14.9970000  0  3G19G 2G 6
  21297069.9234    1459787.25946   1137485.90261
  19969773.9624  -20093228.46148 -15657013.77064
  20904280.1574  -17922451.59746 -11162018.69162
 91  4 12 23  7 29.9970000  0  3G19G 2G 6
  21300772.079     1479248.669 6   1152650.56521
  19966894.579   -20108360.370 8 -15668804.84324
  20897083.157   -17960267.023 7 -11191485.19922
 91  4 12 23  7 44.9970000  0  3G19G 2G 6
  21304491.2674    1498782.03746   1167871.29461
  19964027.368   -20123428.324 8 -15680546.08424
  20889892.274   -17998053.614 6 -11220929.25022
 91  4 12 23  7 59.9970000  0  3G19G 2G 6
  21308219.1964    1518378.28946   1183141.04262
  19961168.978   -20138441.733 8 -15692244.82324
  20882705.579   -18035820.481 6 -11250357.92722
 91  4 12 23  8 14.9970000  0  3G19G 2G 6
  21311960.978     1538046.838 6   1198467.10822
  19958325.103   -20153390.940 8 -15703893.53424
  20875524.7984  -18073557.83946 -11279763.59362
 91  4 12 23  8 29.9970000  0  3G19G 2G 6
  21315714.7354    1557785.10046   1213847.50961
  19955491.478   -20168278.614 8 -15715494.30224
  20868348.0794  -18111268.18346 -11309148.21262
 91  4 12 23  8 44.9970000  0  3G19G 2G 6
  21319488.610     1577597.829 6   1229285.92321
  19952670.142   -20183100.246 8 -15727043.60324
  20861176.876   -18148946.596 6 -11338507.96122
 91  4 12 23  8 59.9970000  0  3G19G 2G 6
  21323272.3064    1597480.00746   1244778.46161
  19949862.735   -20197860.716 7 -15738545.24924
  20854013.6734  -18186597.81047 -11367846.52762
 91  4 12 23  9 14.9970000  0  3G19G 2G 6
  21327067.4784    1617428.99146   1260323.06261
  19947064.509   -20212562.996 8 -15750001.54924
  20846852.095   -18224224.392 6 -11397165.89422
 91  4 12 23  9 29.9970000  0  3G19G 2G 6
  21330877.899     1637454.637 6   1275927.37921
  19944279.735   -20227197.142 8 -15761404.75724
  20839700.399   -18261816.355 7 -11426458.25022
 91  4 12 23  9 44.9970000  0  3G19G 2G 6
  21334702.3994    1657547.12446   1291583.80361
  19941505.985   -20241772.982 8 -15772762.53324
  20832551.024   -18299383.098 7 -11455730.99422
 91  4 12 23  9 59.9970000  0  3G19G 2G 6
  21338536.8604    1677704.98546   1307291.16061
  19938742.407   -20256292.005 8 -15784076.03624
  20825407.8924  -18336926.02647 -11484985.17062
 91  4 12 23 10 14.9970000  0  3G19G 2G 6
  21342390.329     1697941.002 6   1323059.40721
  19935993.712   -20270741.692 8 -15795335.51324
  20818269.845   -18374432.170 6 -11514210.68022
 91  4 12 23 10 29.9970000  0  3G19G 2G 6
  21346255.4784    1718248.53546   1338883.38962
  19933255.454   -20285128.784 8 -15806546.21724
  20811138.0404  -18411908.14847 -11543412.67562
 91  4 12 23 10 44.9970000  0  3G19G 2G 6
  21350130.524     1738623.558 6   1354759.95922
  19930528.274   -20299457.435 8 -15817711.38324
  20804012.204   -18449357.604 7 -11572594.01822
 91  4 12 23 10 59.9970000  0  3G19G 2G 6
  21354019.4464    1759066.24946   1370689.25661
  19927813.470   -20313727.396 8 -15828830.81224
  20796890.399   -18486780.329 7 -11601754.52722
 91  4 12 23 11 14.9970000  0  3G19G 2G 6
  21357926.5094    1779587.46046   1386679.73861
  19925110.860   -20327927.770 8 -15839896.01824
  20789776.626   -18524165.166 7 -11630885.51522
 91  4 12 23 11 29.9970000  0  3G19G 2G 6
  21361841.9544    1800171.90246   1402719.50262
  19922419.087   -20342073.974 8 -15850919.01624
  20782666.0644  -18561527.17447 -11659998.69862
 91  4 12 23 11 44.9970000  0  3G19G 2G 6
  21365773.235     1820827.260 6   1418814.50521
  19919739.462   -20356158.524 8 -15861893.97524
  20775559.454   -18598858.631 6 -11689088.10422
 91  4 12 23 11 59.9970000  0  3G19G 2G 6
  21369719.0794    1841555.22146   1434966.09161
  19917071.774   -20370180.051 8 -15872819.82524
  20768465.6264  -18636157.69047 -11718152.24162
 91  4 12 23 12 14.9970000  0  3G19G 2G 6
  21373677.7674    1862355.10646   1451173.73561
  19914415.853   -20384139.058 8 -15883696.95324
  20761373.5174  -18673424.79947 -11747191.51562
 91  4 12 23 12 29.9970000  0  3G19G 2G 6
  21377647.384     1883227.870 6   1467438.14522
  19911770.009   -20398034.709 8 -15894524.71524
  20754287.3294  -18710658.94747 -11776205.07062
 91  4 12 23 12 44.9970000  0  3G19G 2G 6
  21381633.259     1904168.696 6   1483755.59621
  19909137.579   -20411871.947 8 -15905306.96324
  20747208.087   -18747864.647 7 -11805196.47422
 91  4 12 23 12 59.9970000  0  3G19G 2G 6
  21385629.978     1925174.258 6   1500123.49421
  19906514.728   -20425653.843 8 -15916046.08324
  20740132.282   -18785044.897 7 -11834168.05222
 91  4 12 23 13 14.9970000  0  4G19G 2G15G 6
  21389641.751     1946252.464 6   1516547.98521
  19903904.040   -20439372.775 8 -15926736.14424
  23308671.8534         -0.06355
  20733062.321   -18822191.563 7 -11863113.45122
 91  4 12 23 13 29.9970000  0  4G19G 2G15G 6
  21393663.8844    1967398.27446   1533025.17661
  19901305.071   -20453033.846 8 -15937381.12224
  23301927.0714     -35437.03345
  20725999.431   -18859309.426 7 -11892036.40922
 91  4 12 23 13 44.9970000  0  4G19G 2G15G 6
  21397703.595     1988616.450 6   1549558.74321
  19898716.251   -20466632.353 8 -15947977.34324
  23295201.0954     -70786.90645
  20718942.0564  -18896393.75647 -11920933.24962
 91  4 12 23 13 59.9970000  0  4G19G 2G15G 6
  21401752.251     2009902.300 6   1566145.03221
  19896140.603   -20480172.994 8 -15958528.47124
  23288489.384     -106053.701 5        -0.30131
  20711890.274   -18933448.987 7 -11949807.40022
 91  4 12 23 14 14.9970000  0  4G19G 2G15G 6
  21405818.3214    2031260.69946   1582787.88061
  19893573.970   -20493650.883 8 -15969030.70724
  23281797.7594    -141232.19745    -27412.00061
  20704846.681   -18970469.990 7 -11978654.88322
 91  4 12 23 14 29.9970000  0  4G19G 2G15G 6
  21409898.1964    2052689.03846   1599485.20761
  19891022.728   -20507068.959 8 -15979486.33124
  23275115.3144    -176324.88845    -54756.82961
  20697806.962   -19007459.353 7 -12007477.72422
 91  4 12 23 14 44.9970000  0  4G19G 2G15G 6
  21413989.8994    2074192.39146   1616240.99561
  19888480.954   -20520421.962 8 -15989891.24824
  23268455.5644    -211326.20345    -82030.46361
  20690776.189   -19044411.556 7 -12036271.59722
 91  4 12 23 14 59.9970000  0  4G19G 2G15G 6
  21418091.8764    2095769.23546   1633054.03762
  19885951.587   -20533711.400 8 -16000246.63724
  23261811.689     -246237.530 5   -109233.97821
  20683751.110   -19081327.884 7 -12065037.52322
 91  4 12 23 15 14.9970000  0  4G19G 2G15G 6
  21422215.595     2117417.894 6   1649923.04521
  19883435.228   -20546939.049 8 -16010553.87324
  23255185.2124    -281060.03145   -136368.27461
  20676732.5874  -19118209.81747 -12093776.64662
 91  4 12 23 15 29.9970000  0  5G19G 2G15G13G 6
  21426346.7514    2139128.11746   1666840.03961
  19880927.103   -20560115.699 8 -16020821.37324
  23248575.5954    -315803.67045   -163441.11761
  23094483.9464         -0.68355
  20669719.290   -19155067.821 7 -12122497.13122
 91  4 12 23 15 44.9970000  0  5G19G 2G15G13G 6
  21430490.001     2160908.568 6   1683811.74021
  19878430.9394  -20573232.60848 -16031042.31364
  23241981.235     -350459.371 5   -190445.42921
  23081208.9314     -69765.25045
  20662709.5484  -19191892.98047 -12151192.00062
 91  4 12 23 15 59.9970000  0  5G19G 2G15G13G 6
  21434651.548     2182765.222 6   1700842.80921
  19875947.243   -20586283.719 8 -16041211.99024
  23235404.1574    -385020.82345   -217376.32561
  23067938.1264    -139494.07644
  20655710.4074  -19228678.88947 -12179856.30162
 91  4 12 23 16 14.9970000  0  5G19G 2G15G13G 6
  21438821.5324    2204692.05446   1717928.59161
  19873476.173   -20599274.904 8 -16051334.97324
  23228845.524     -419493.493 5   -244238.03621
  23054675.0094    -209192.81045
  20648717.7744  -19265431.28447 -12208494.49262
 91  4 12 23 16 29.9970000  0  5G19G 2G15G13G 6
  21443009.306     2226686.786 6   1735067.26221
  19871014.634   -20612208.607 8 -16061413.16024
  23222299.2824    -453879.18245   -271031.95661
  23041416.501     -278863.437 5
  20641730.462   -19302152.231 7 -12237108.17122
 91  4 12 23 16 44.9970000  0  5G19G 2G15G13G 6
  21447207.2124    2248749.25046   1752258.70261
  19868563.853   -20625085.377 8 -16071446.98724
  23215775.0874    -488177.90945   -297758.13761
  23028166.853     -348505.803 5
  20634744.853   -19338841.913 7 -12265697.48723
 91  4 12 23 16 59.9970000  0  5G19G 2G15G13G 6
  21451417.2904    2270877.21846   1769501.21461
  19866123.470   -20637907.429 8 -16081438.17524
  23209262.814     -522391.820 5   -324418.22121
  23014918.0484    -418121.40345        -0.17671
  20627770.6264  -19375502.10447 -12294263.80662
 91  4 12 23 17 14.9960000  0  5G19G 2G15G13G 6
  21455637.715     2293066.684 6   1786791.64421
  19863694.207   -20650676.281 8 -16091387.91024
  23202765.801     -556520.494 5   -351011.87121
  23001676.738     -487707.876 5    -54223.13721
  20620800.754   -19412132.881 7 -12322807.22822
 91  4 12 23 17 29.9960000  0  5G19G 2G15G13G 6
  21459877.574     2315331.686 6   1804140.90821
  19861276.887   -20663382.803 8 -16101289.07424
  23196292.4814    -590557.36945   -377534.00161
  22988440.8564    -557263.03644   -108421.65861
  20613836.3244  -19448727.74447 -12351322.66662
 91  4 12 23 17 44.9960000  0  5G19G 2G15G13G 6
  21464127.2384    2337669.56446   1821546.97961
  19858870.871   -20676027.124 8 -16111141.76924
  23189830.926     -624500.700 5   -403983.24021
  22975210.895     -626783.013 4   -162592.84121
  20606879.3014  -19485285.24747 -12379808.99662
 91  4 12 23 17 59.9960000  0  5G19G 2G15G13G 6
  21468391.910     2360075.181 6   1839005.83221
  19856474.324   -20688614.487 8 -16120950.08324
  23183385.9884    -658355.37945   -430363.38361
  22961987.527     -696272.446 5   -216740.17221
  20599929.426   -19521810.134 7 -12408269.88922
 91  4 12 23 18 14.9960000  0  5G19G 2G15G13G 6
  21472667.660     2382548.022 6   1856517.05721
  19854089.926   -20701145.560 8 -16130714.53924
  23176962.793     -692121.425 5   -456674.47421
  22948770.715     -765731.687 5   -270863.99421
  20592985.2624  -19558302.96547 -12436705.82162
 91  4 12 23 18 29.9960000  0  5G19G 2G15G13G 6
  21476955.613     2405091.401 6   1874083.25521
  19851716.324   -20713617.064 8 -16140432.56724
  23170556.379     -725795.154 5   -482913.63221
  22935558.2544    -835156.72545   -324961.15061
  20586047.6064  -19594759.98547 -12465113.84563
 91  4 12 23 18 44.9960000  0  5G19G 2G15G13G 6
  21481259.9814    2427703.14546   1891702.70961
  19849354.356   -20726031.434 8 -16150106.07824
  23164162.824     -759378.416 5   -509082.30421
  22922353.363     -904549.498 5   -379033.16321
  20579116.246   -19631183.406 7 -12493495.68922
 91  4 12 23 18 59.9960000  0  5G19G 2G15G13G 6
  21485574.512     2450381.065 6   1909373.74121
  19847002.277   -20738390.714 8 -16159736.66624
  23157790.9024    -792873.01645   -535181.88661
  22909153.316     -973911.648 5   -433081.30821
  20572190.934   -19667574.851 7 -12521852.61822
 91  4 12 23 19 14.9960000  0  5G19G 2G15G13G 6
  21489903.551     2473126.783 6   1927097.61321
  19844661.246   -20750693.195 8 -16169322.99524
  23151433.1374    -826277.03745   -561210.88761
  22895959.707    -1043241.183 5   -487104.07221
  20565272.106   -19703932.603 7 -12550183.27923
 91  4 12 23 19 29.9960000  0  5G19G 2G15G13G 6
  21494243.473     2495936.646 6   1944871.43921
  19842330.856   -20762942.816 8 -16178868.13224
  23145093.0514    -859594.11545   -587172.14061
  22882771.840    -1112541.681 4   -541104.23221
  20558360.137   -19740260.248 7 -12578490.49223
 91  4 12 23 19 44.9960000  0  5G19G 2G15G13G 6
  21498600.1684    2518821.40746   1962703.65661
  19840010.910   -20775128.654 8 -16188363.57124
  23138770.551     -892812.940 5   -613056.82921
  22869594.7704   -1181801.74445   -595072.83161
  20551456.285   -19776546.704 7 -12606765.60822
 91  4 12 23 19 59.9960000  0  5G19G 2G15G13G 6
  21502967.3014    2541776.43246   1980590.59861
  19837703.988   -20787255.373 8 -16197812.94324
  23132466.8794    -925937.62145   -638868.15561
  22856420.215    -1251025.198 5   -649012.95421
  20544556.965   -19812796.198 7 -12635011.91722
 91  4 12 23 20 14.9960000  0  5G19G 2G15G13G 6
  21507350.3094    2564798.78746   1998530.00861
  19835407.137   -20799326.024 8 -16207218.62624
  23126177.957     -958970.737 5   -664608.13921
  22843252.473    -1320214.875 5   -702926.72921
  20537664.9884  -19849011.61247 -12663231.68363
 91  4 12 23 20 29.9960000  0  5G19G 2G15G13G 6
  21511742.106     2587888.958 6   2016522.26821
  19833120.340   -20811340.330 8 -16216580.40724
  23119914.3324    -991911.74645   -690276.33061
  22830091.918    -1389370.047 5   -756813.59821
  20530779.7464  -19885192.29547 -12691424.38463
 91  4 12 23 20 44.9960000  0  5G19G 2G15G13G 6
  21516150.621     2611049.667 6   2034569.50321
  19830846.168   -20823295.639 8 -16225896.21424
  23113665.3484   -1024757.39745   -715870.22861
  22816943.856    -1458487.498 5   -810671.10821
  20523902.1374  -19921335.28047 -12719587.71163
 91  4 12 23 20 59.9960000  0  5G19G 2G15G13G 6
  21520570.301     2634277.392 6   2052668.91721
  19828580.871   -20835195.443 8 -16235168.77424
  23107434.7384   -1057510.98945   -741392.41661
  22803795.9734   -1527570.32445   -864501.62461
  20517030.137   -19957443.850 7 -12747724.20923
 91  4 12 23 21 14.9960000  0  5G19G 2G15G13G 6
  21525003.926     2657578.047 6   2070825.18621
  19826327.426   -20847033.840 8 -16244393.49024
  23101216.4734   -1090166.08245   -766837.84861
  22790653.3014   -1596612.17845   -918300.25261
  20510167.8164  -19993511.81947 -12775829.09162
 91  4 12 23 21 29.9960000  0  5G19G 2G15G13G 6
  21529450.4264    2680951.14746   2089037.89761
  19824086.973   -20858811.264 8 -16253570.68024
  23095020.793    -1122722.622 5   -792206.47721
  22777524.520    -1665613.168 5   -972066.96421
  20503312.8634  -20029539.42847 -12803902.51063
 91  4 12 23 21 44.9960000  0  5G19G 2G15G13G 6
  21533914.9414    2704395.53346   2107306.16261
  19821856.504   -20870529.066 8 -16262701.42224
  23088843.3164   -1155181.53845   -817499.04361
  22764404.0744   -1734574.11245  -1025802.52261
  20496462.7704  -20065527.53547 -12831945.16563
 91  4 12 23 21 59.9960000  0  5G19G 2G15G13G 6
  21538387.7074    2727909.82946   2125628.89661
  19819638.379   -20882188.615 8 -16271786.76624
  23082685.6294   -1187543.84845   -842716.35361
  22751284.8014   -1803495.87545  -1079507.56461
  20489622.082   -20101477.363 7 -12859957.96923
 91  4 12 23 22 14.9960000  0  5G19G 2G15G13G 6
  21542874.5664    2751490.36246   2144003.24961
  19817429.176   -20893793.738 8 -16280829.70624
  23076545.4734   -1219812.85345   -867860.91361
  22738178.4344   -1872381.65545  -1133184.50461
  20482787.3324  -20137392.41247 -12887943.68263
 91  4 12 23 22 29.9960000  0  5G19G 2G15G13G 6
  21547374.0824    2775132.58846   2162425.66361
  19815231.074   -20905348.977 8 -16289833.77224
  23070423.106    -1251992.910 5   -892936.20921
  22725075.191    -1941235.736 5  -1186836.79121
  20475958.6994  -20173276.89847 -12915905.57863
 91  4 12 23 22 44.9960000  0  5G19G 2G15G13G 6
  21551887.426     2798847.366 6   2180904.62721
  19813044.520   -20916843.522 8 -16298790.54624
  23064318.5434   -1284072.69745   -917933.34561
  22711982.1374   -2010046.89245  -1240455.59761
  20469137.8794  -20209119.71747 -12943835.01763
 91  4 12 23 22 59.9960000  0  5G19G 2G15G13G 6
  21556415.3164    2822631.43245   2199437.58061
  19810866.856   -20928280.580 8 -16307702.52324
  23058230.5434   -1316055.26545   -942854.71561
  22698891.559    -2078817.852 5  -1294043.06921
  20462324.199   -20244923.826 7 -12971734.28023
 91  4 12 23 23 14.9960000  0  5G19G 2G15G13G 6
  21560953.7384    2846489.85446   2218028.46161
  19808702.832   -20939655.426 8 -16316566.02424
  23052164.434    -1347935.203 5   -967696.11221
  22685813.5904   -2147543.37345  -1347595.15861
  20455520.559   -20280684.348 7 -12999599.57723
 91  4 12 23 23 29.9960000  0  5G19G 2G15G13G 6
  21565502.6134    2870412.86446   2236669.68661
  19806548.715   -20950977.715 8 -16325388.57624
  23046116.824    -1379722.012 5   -992464.94221
  22672744.481    -2216232.361 5  -1401118.78421
  20448721.660   -20316410.633 7 -13027438.19523
 91  4 12 23 23 44.9960000  0  5G19G 2G15G13G 6
  21570071.6134    2894406.65845   2255366.05861
  19804405.043   -20962241.232 8 -16334165.32624
  23040081.0984   -1411408.94945  -1017155.94261
  22659680.2314   -2284878.32945  -1454608.86661
  20441930.8714  -20352096.02247 -13055244.95063
 91  4 12 23 23 59.9960000  0  5G19G 2G15G13G 6
  21574646.4494    2918462.84546   2274111.05561
  19802270.949   -20973454.243 8 -16342902.72424
  23034072.8404   -1443003.90645  -1041775.28761
  22646622.5594   -2353489.09745  -1508071.51761
  20435145.6604  -20387748.56147 -13083026.11463
 91  4 12 23 24 14.9960000  0  5G19G 2G15G13G 6
  21579241.1524    2942589.73546   2292911.13261
  19800147.926   -20984608.432 8 -16351594.28524
  23028080.496    -1474498.246 5  -1066316.21321
  22633573.160    -2422056.206 5  -1561500.18921
  20428370.129   -20423359.880 7 -13110775.15123
 91  4 12 23 24 29.9960000  0  5G19G 2G15G13G 6
  21583844.871     2966783.401 6   2311763.26021
  19798035.879   -20995707.924 8 -16360243.22524
  23022103.316    -1505895.647 5  -1090781.60621
  22620536.566    -2490583.199 5  -1614897.55621
  20421601.3874  -20458933.64247 -13138494.92363
 91  4 12 23 24 44.9960000  0  5G19G 2G15G13G 6
  21588463.285     2991043.279 6   2330666.97421
  19795934.973   -21006753.569 8 -16368850.20624
  23016147.207    -1537196.319 5  -1115171.63521
  22607503.0984   -2559070.20645  -1668263.77861
  20414836.1914  -20494470.25747 -13166185.75463
 91  4 12 23 24 59.9960000  0  5G19G 2G15G13G 6
  21593087.1214    3015372.29246   2349624.56361
  19793843.449   -21017742.328 8 -16377412.86424
  23010213.316    -1568397.185 5  -1139483.89621
  22594476.379    -2627513.884 5  -1721596.25521
  20408082.832   -20529966.516 7 -13193845.12723
 91  4 12 23 25 14.9960000  0  5G19G 2G15G13G 6
  21597733.8714    3039768.43946   2368634.45661
  19791761.973   -21028676.052 8 -16385932.63424
  23004294.660    -1599499.754 5  -1163719.56421
  22581461.4104   -2695915.56345  -1774895.98761
  20401335.6524  -20565424.06947 -13221474.35363
 91  4 12 23 25 29.9960000  0  5G19G 2G15G13G 6
  21602389.527     3064230.087 5   2387695.39521
  19789692.145   -21039556.626 8 -16394410.98724
  22998392.6214   -1630505.40645  -1187879.72061
  22568450.566    -2764276.657 5  -1828164.10721
  20394595.223   -20600844.310 7 -13249074.49923
 91  4 12 23 25 44.9960000  0  5G19G 2G15G13G 6
  21607056.3014    3088757.94045   2406807.91361
  19787632.4264  -21050383.43048 -16402847.44764
  22992512.215    -1661413.122 5  -1211963.54321
  22555452.356    -2832596.195 5  -1881399.82721
  20387861.7074  -20636226.38347 -13276644.91063
 91  4 12 23 25 59.9960000  0  5G19G 2G15G13G 6
  21611733.2464    3113352.47446   2425972.39161
  19785581.645   -21061155.822 8 -16411241.50424
  22986648.762    -1692221.855 5  -1235970.24121
  22542455.059    -2900873.207 5  -1934602.43621
  20381136.738   -20671569.487 7 -13304184.94123
 91  4 12 23 26 14.9960000  0  5G19G 2G15G13G 6
  21616426.7934    3138017.52845   2445191.82161
  19783543.051   -21071870.071 8 -16419590.25524
  22980802.223    -1722927.273 5  -1259896.43021
  22529473.965    -2969103.240 5  -1987768.40521
  20374419.106   -20706869.459 7 -13331691.36123
 91  4 12 23 26 29.9960000  0  5G19G 2G15G13G 6
  21621135.457     3162753.188 6   2464466.27821
  19781516.9574  -21082525.97848 -16427893.54964
  22974981.418    -1753529.015 5  -1283741.83121
  22516501.9734   -3037285.74045  -2040897.36561
  20367709.1374  -20742125.89947 -13359163.87963
 91  4 12 23 26 44.9960000  0  5G19G 2G15G13G 6
  21625857.1604    3187559.00945   2483795.40361
  19779498.4964  -21093124.21348 -16436151.90264
  22969174.7704   -1784027.43545  -1307506.73261
  22503532.559    -3105421.099 5  -2093989.55721
  20361009.5124  -20777339.29147 -13386602.84963
 91  4 12 23 26 59.9960000  0  5G19G 2G15G13G 6
  21630591.8564    3212431.61545   2503176.54761
  19777492.590   -21103668.091 8 -16444367.89924
  22963393.0354   -1814425.40345  -1331193.34961
  22490572.246    -3173512.053 5  -2147047.18021
  20354316.106   -20812512.663 7 -13414010.62623
 91  4 12 23 27 14.9960000  0  5G19G 2G15G13G 6
  21635337.199     3237371.476 6   2522610.12621
  19775496.176   -21114157.264 8 -16452541.27124
  22957628.8404   -1844722.26845  -1354801.19761
  22477623.754    -3241557.798 5  -2200069.54721
  20347629.895   -20847645.308 7 -13441386.66923
 91  4 12 23 27 29.9960000  0  5G19G 2G15G13G 6
  21640092.527     3262373.546 6   2542092.18521
  19773509.887   -21124596.736 8 -16460675.91024
  22951881.6374   -1874922.55145  -1378333.78161
  22464682.9734   -3309562.86645  -2253060.23061
  20340951.0984  -20882741.87947 -13468734.60463
 91  4 12 23 27 44.9960000  0  5G19G 2G15G13G 6
  21644867.559     3287444.763 6   2561628.09421
  19771533.801   -21134979.609 8 -16468766.45124
  22946153.324    -1905019.211 5  -1401785.62121
  22451752.465    -3377519.828 5  -2306013.42121
  20334281.1524  -20917795.22147 -13496048.85963
 91  4 12 23 27 59.9960000  0  5G19G 2G15G13G 6
  21649649.793     3312578.433 6   2581212.66421
  19769567.2074  -21145312.47048 -16476818.01964
  22940444.6684   -1935018.32045  -1425161.42461
  22438826.566    -3445434.878 5  -2358933.96421
  20327616.9574  -20952811.68747 -13523334.37663
 91  4 12 23 28 14.9960000  0  5G19G 2G15G13G 6
  21654444.816     3337780.384 5   2600850.46921
  19767611.699   -21155589.832 8 -16484826.33524
  22934757.2774   -1964913.83545  -1448456.53461
  22425913.7074   -3513302.06245  -2411817.21361
  20320961.723   -20987785.344 7 -13550586.53623
 91  4 12 23 28 29.9960000  0  5G19G 2G15G13G 6
  21659251.145     3363044.734 5   2620536.89421
  19765665.8404  -21165817.49148 -16492795.92964
  22929085.988    -1994711.079 5  -1471675.05521
  22413008.402    -3581126.543 5  -2464667.17621
  20314313.7314  -21022721.67947 -13577809.60763
 91  4 12 23 28 44.9960000  0  5G19G 2G15G13G 6
  21664074.5044    3388372.44546   2640272.68061
  19763728.785   -21175994.792 8 -16500726.27624
  22923431.770    -2024409.044 5  -1494816.24321
  22400109.3164   -3648907.39645  -2517483.12761
  20307672.738   -21057619.747 7 -13605002.87023
 91  4 12 23 28 59.9960000  0  5G19G 2G15G13G 6
  21668905.7234    3413773.33045   2660065.48561
  19761803.981   -21186111.718 8 -16508609.58224
  22917801.754    -2053997.525 5  -1517872.10021
  22387221.8634   -3716634.06245  -2570256.89461
  20301041.7154  -21092469.26847 -13632158.30863
 91  4 12 23 29 14.9960000  0  5G19G 2G15G13G 6
  21673750.910     3439244.926 5   2679913.37921
  19759889.559   -21196170.639 8 -16516447.68824
  22912192.8634   -2083478.66645  -1540844.31861
  22374343.5594   -3784308.60545  -2622990.04261
  20294419.9104  -21127272.42747 -13659277.61263
 91  4 12 23 29 29.9960000  0  5G19G 2G15G13G 6
  21678614.652     3464781.749 5   2699812.12121
  19757985.066   -21206177.157 7 -16524244.96324
  22906605.1684   -2112857.65345  -1563736.93961
  22361473.215    -3851936.043 5  -2675686.47021
  20287804.6454  -21162034.50047 -13686364.91063
 91  4 12 23 29 44.9960000  0  5G19G 2G15G13G 6
  21683483.520     3490379.666 5   2719758.47921
  19756090.113   -21216135.224 8 -16532004.47724
  22901031.3244   -2142138.04745  -1586552.74661
  22348613.488    -3919520.030 5  -2728349.06421
  20281195.7154  -21196759.18647 -13713423.06763
 91  4 12 23 29 59.9960000  0  5G19G 2G15G13G 6
  21688367.0204    3516045.40845   2739757.64261
  19754205.496   -21226038.326 8 -16539721.16724
  22895478.9654   -2171312.83545  -1609286.25261
  22335762.6064   -3987053.48345  -2780972.26861
  20274596.9884  -21231439.64247 -13740446.76063
 91  4 12 23 30 14.9960000  0  5G19G 2G15G13G 6
  21693267.0044    3541778.78546   2759809.52061
  19752330.9414  -21235886.89948 -16547395.37064
  22889949.5824   -2200381.90445  -1631937.38561
  22322919.8324   -4054536.36545  -2833556.05261
  20268005.6524  -21266075.84847 -13767435.98263
 91  4 12 23 30 29.9960000  0  5G19G 2G15G13G 6
  21698175.7154    3567582.70546   2779916.41361
  19750467.535   -21245677.527 8 -16555024.41624
  22884435.6524   -2229341.88745  -1654503.50861
  22310088.3014   -4121965.14445  -2886097.70561
  20261423.9734  -21300664.36647 -13794388.03763
 91  4 12 23 30 44.9960000  0  5G19G 2G15G13G 6
  21703096.7234    3593455.78445   2800077.16761
  19748616.0824  -21255411.82648 -16562609.57464
  22878946.5274   -2258193.88045  -1676985.47961
  22297269.152    -4189340.819 5  -2938597.96321
  20254849.7774  -21335206.35947 -13821303.84263
 91  4 12 23 30 59.9960000  0  5G19G 2G15G13G 6
  21708034.0274    3619396.11845   2820290.28961
  19746773.926   -21265091.881 8 -16570152.46324
  22873478.2624   -2286939.63745  -1699384.66661
  22284456.0744   -4256664.95445  -2991058.06661
  20248285.5274  -21369703.69847 -13848184.84563
 91  4 12 23 31 14.9960000  0  5G19G 2G15G13G 6
  21712985.1994    3645399.91246   2840552.89361
  19744941.145   -21274721.487 8 -16577656.03824
  22868024.6844   -2315582.70145  -1721703.84761
  22271652.6994   -4323940.90945  -3043480.62161
  20241729.0124  -21404159.82747 -13875033.74963
 91  4 12 23 31 29.9960000  0  5G19G 2G15G13G 6
  21717941.168     3671471.681 5   2860868.48121
  19743118.691   -21284296.061 8 -16585116.72824
  22862594.973    -2344117.954 6  -1743939.04121
  22258861.246    -4391163.550 5  -3095861.64521
  20235180.9344  -21438569.73247 -13901846.63263
 91  4 12 23 31 44.9960000  0  5G19G 2G15G13G 6
  21722917.652     3697608.817 5   2881234.98221
  19741307.3634  -21293818.16148 -16592536.53564
  22857185.582    -2372547.749 6  -1766092.03621
  22246079.246    -4458335.141 5  -3148202.89321
  20228641.0824  -21472935.88647 -13928625.41663
 91  4 12 23 31 59.9960000  0  5G19G 2G15G13G 6
  21727904.246     3723812.346 6   2901653.20921
  19739505.8954  -21303286.97548 -16599914.82364
  22851795.5044   -2400870.77345  -1788161.83161
  22233306.738    -4525454.267 5  -3200503.26121
  20222110.410   -21507256.991 7 -13955369.10523
 91  4 12 23 32 14.9960000  0  5G19G 2G15G13G 6
  21732905.207     3750083.757 5   2922124.33921
  19737713.4734  -21312700.90448 -16607250.34464
  22846426.0744   -2429085.08345  -1810146.93261
  22220545.277    -4592518.818 5  -3252761.09821
  20215588.0274  -21541531.22547 -13982076.27663
 91  4 12 23 32 29.9960000  0  5G19G 2G15G13G 6
  21737913.3164    3776418.64045   2942644.93361
  19735931.949   -21322064.281 8 -16614546.46724
  22841074.981    -2457194.662 5  -1832050.38721
  22207795.0594   -4659532.88845  -3304979.62561
  20209073.5124  -21575762.74747 -14008750.15163
 91  4 12 23 32 44.9960000  0  5G19G 2G15G13G 6
  21742940.6454    3802813.14445   2963211.99161
  19734159.059   -21331381.171 8 -16621806.36624
  22835748.5514   -2485202.98345  -1853874.96961
  22195046.7704   -4726499.90145  -3357161.45561
  20202567.1064  -21609955.27347 -14035393.64563
 91  4 12 23 32 59.9960000  0  5G19G 2G15G13G 6
  21747971.645     3829270.823 5   2983828.25821
  19732395.793   -21340647.919 8 -16629027.19924
  22830437.4344   -2513106.21945  -1875617.64761
  22182313.762    -4793415.900 5  -3409303.57621
  20196068.1294  -21644104.80047 -14062003.63463
 91  4 12 23 33 14.9960000  0  5G19G 2G15G13G 6
  21753019.6134    3855790.14045   3004492.54061
  19730641.184   -21349866.152 8 -16636210.22424
  22825147.7314   -2540906.02345  -1897279.73461
  22169589.285    -4860282.224 5  -3461406.96521
  20189578.184   -21678212.754 7 -14088581.23523
 91  4 12 23 33 29.9960000  0  5G19G 2G15G13G 6
  21758077.199     3882380.635 5   3025212.31721
  19728899.6684  -21359026.30248 -16643347.99464
  22819879.004    -2568592.010 6  -1918853.15021
  22156875.5044   -4927088.68245  -3513463.70861
  20183097.8094  -21712269.22547 -14115118.71263
 91  4 12 23 33 44.9960000  0  5G19G 2G15G13G 6
  21763152.9494    3909036.24045   3045982.83461
  19727165.762   -21368134.498 8 -16650445.27924
  22814626.981    -2596170.030 5  -1940342.43721
  22144173.6374   -4993841.00845  -3565478.27261
  20176626.6764  -21746280.04347 -14141620.61663
 91  4 12 23 33 59.9960000  0  5G19G 2G15G13G 6
  21768236.3484    3935754.58145   3066802.20361
  19725441.7544  -21377193.21948 -16657504.00664
  22809401.512    -2623642.232 5  -1961749.23221
  22131481.5434   -5060540.96145  -3617452.01961
  20170161.1374  -21780247.12247 -14168088.43763
 91  4 12 23 34 14.9960000  0  5G19G 2G15G13G 6
  21773330.473     3962536.474 5   3087671.10221
  19723727.4964  -21386201.34448 -16664523.31264
  22804196.8874   -2651007.27545  -1983072.55661
  22118797.2704   -5127187.12945  -3669383.86661
  20163706.3794  -21814169.43447 -14194521.37763
 91  4 12 23 34 29.9960000  0  5G19G 2G15G13G 6
  21778440.340     3989389.186 5   3108595.20421
  19722023.270   -21395151.825 8 -16671497.69924
  22799010.527    -2678257.943 5  -2004306.75921
  22106128.0124   -5193772.11445  -3721268.02161
  20157262.3874  -21848039.55147 -14220913.64963
 91  4 12 23 34 44.9960000  0  5G19G 2G15G13G 6
  21783565.449     4016307.454 5   3129570.36521
  19720331.910   -21404049.735 8 -16678431.12324
  22793839.1604   -2705398.77245  -2025455.36861
  22093468.8244   -5260300.66145  -3773108.20361
  20150824.6294  -21881862.18347 -14247268.91063
 91  4 12 23 34 59.9960000  0  5G19G 2G15G13G 6
  21788696.5124    4043285.43445   3150592.05361
  19718647.1914  -21412901.19448 -16685328.35464
  22788699.231    -2732435.452 6  -2046522.82721
  22080815.9814   -5326778.26145  -3824908.69861
  20144396.6764  -21915643.13147 -14273591.69963
 91  4 12 23 35 14.9960000  0  5G19G 2G15G13G 6
  21793844.238     4070323.558 5   3171660.61821
  19716971.527   -21421705.726 8 -16692189.01524
  22783574.9814   -2759367.02946  -2067508.39261
  22068176.5594   -5393204.10745  -3876668.85261
  20137976.7774  -21949381.38947 -14299881.21563
 91  4 12 23 35 29.9960000  0  5G19G 2G15G13G 6
  21799004.2314    4097431.03445   3192783.23861
  19715306.199   -21430454.217 8 -16699006.00424
  22778474.660    -2786184.232 6  -2088404.81821
  22055548.145    -5459568.499 5  -3928381.12821
  20131565.6844  -21983067.67247 -14326130.23163
 91  4 12 23 35 44.9960000  0  5G19G 2G15G13G 6
  21804174.043     4124605.976 5   3213958.40921
  19713651.754   -21439148.452 8 -16705780.71524
  22773389.6844   -2812888.49446  -2109213.24461
  22042931.5664   -5525872.90645  -3980046.64261
  20125164.9884  -22016703.59347 -14352340.00563
 91  4 12 23 35 59.9960000  0  5G19G 2G15G13G 6
  21809354.941     4151841.905 5   3235181.10821
  19712006.488   -21447794.782 8 -16712518.10124
  22768328.566    -2839485.780 5  -2129938.29321
  22030325.0664   -5592123.43945  -4031670.22361
  20118773.2234  -22050295.31047 -14378515.33763
 91  4 12 23 36 14.9960000  0  5G19G 2G15G13G 6
  21814553.535     4179144.679 5   3256455.89721
  19710370.926   -21456387.501 8 -16719213.70924
  22763290.2934   -2865969.94445  -2150575.20961
  22017729.1454   -5658313.59745  -4083246.72161
  20112389.9734  -22083836.53547 -14404651.32463
 91  4 12 23 36 29.9960000  0  5G19G 2G15G13G 6
  21819760.1374    4206506.49945   3277776.69761
  19708745.231   -21464934.164 8 -16725873.42924
  22758268.559    -2892348.650 5  -2171129.94521
  22005142.340    -5724450.792 5  -4134781.96321
  20106016.1914  -22117334.84847 -14430753.87063
 91  4 12 23 36 44.9960000  0  5G19G 2G15G13G 6
  21824979.902     4233937.406 5   3299151.33021
  19707129.082   -21473424.942 8 -16732489.60324
  22753271.332    -2918611.491 5  -2191594.39721
  21992568.121    -5790524.468 5  -4186267.71621
  20099650.3164  -22150779.95947 -14456814.95463
 91  4 12 23 36 59.9960000  0  5G19G 2G15G13G 6
  21830216.004     4261431.993 5   3320575.57521
  19705521.582   -21481865.328 8 -16739066.51024
  22748292.6764   -2944763.54745  -2211972.52761
  21980007.590    -5856539.661 5  -4237707.89821
  20093295.9964  -22184176.94147 -14482838.53963
 91  4 12 23 37 14.9960000  0  5G19G 2G15G13G 6
  21835456.9734    4288993.02145   3342051.60561
  19703926.582   -21490252.646 8 -16745602.06824
  22743340.215    -2970801.813 5  -2232261.97921
  21967454.6914   -5922492.98545  -4289099.84761
  20086950.5824  -22217522.79747 -14508822.29763
 91  4 12 23 37 29.9960000  0  5G19G 2G15G13G 6
  21840711.8714    4316618.65645   3363577.98661
  19702341.262   -21498588.741 8 -16752097.70924
  22738405.965    -2996727.744 6  -2252463.92821
  21954913.3954   -5988386.15745  -4340444.93961
  20080614.4024  -22250819.09947 -14534767.43263
 91  4 12 23 37 44.9960000  0  5G19G 2G15G13G 6
  21845983.957     4344307.450 5   3385153.55821
  19700763.293   -21506874.853 8 -16758554.40424
  22733493.996    -3022542.137 5  -2272578.92621
  21942388.496    -6054220.268 5  -4391743.99321
  20074287.2774  -22284066.91047 -14560674.77663
 91  4 12 23 37 59.9960000  0  5G19G 2G15G13G 6
  21851265.7854    4372062.75145   3406780.94661
  19699196.856   -21515107.628 8 -16764969.53624
  22728602.7154   -3048241.42645  -2292604.26161
  21929872.7854   -6119991.24745  -4442993.88861
  20067971.1294  -22317262.45147 -14586541.39563
 91  4 12 23 38 14.9960000  0  5G19G 2G15G13G 6
  21856556.1914    4399876.52445   3428453.91761
  19697639.527   -21523295.034 8 -16771349.31924
  22723732.566    -3073833.344 6  -2312545.91321
  21917369.481    -6185706.789 5  -4494200.57521
  20061662.0514  -22350413.51147 -14612373.35563
 91  4 12 23 38 29.9960000  0  5G19G 2G15G13G 6
  21861859.3874    4427752.67145   3450175.50461
  19696090.684   -21531433.270 8 -16777690.78624
  22718882.2234   -3099313.81545  -2332400.71361
  21904871.5514   -6251362.72945  -4545360.80961
  20055362.8404  -22383515.93847 -14638167.41663
 91  4 12 23 38 44.9960000  0  5G19G 2G15G13G 6
  21867180.566     4455694.869 5   3471948.54921
  19694550.879   -21539518.706 8 -16783991.11024
  22714054.5204   -3124678.74345  -2352165.50661
  21892389.9574   -6316954.59045  -4596471.12261
  20049073.7774  -22416565.74347 -14663920.47363
 91  4 12 23 38 59.9960000  0  5G19G 2G15G13G 6
  21872507.043     4483697.687 5   3493768.77921
  19693022.832   -21547556.727 8 -16790254.48824
  22709252.231    -3149933.180 6  -2371844.20521
  21879917.840    -6382487.495 5  -4647535.50521
  20042793.4264  -22449568.02747 -14689636.50763
 91  4 12 23 39 14.9960000  0  5G19G 2G15G13G 6
  21877846.3794    4511762.46645   3515637.34061
  19691501.816   -21555546.075 8 -16796479.94524
  22704466.113    -3175075.622 6  -2391435.65221
  21867461.4024   -6447959.72846  -4698552.59761
  20036522.3564  -22482521.27847 -14715314.33063
 91  4 12 23 39 29.9960000  0  5G19G 2G15G13G 6
  21883200.0124    4539892.11545   3537556.45461
  19689991.699   -21563483.709 8 -16802665.09724
  22699704.4344   -3200102.68146  -2410937.18961
  21855012.1524   -6513367.83346  -4749519.73461
  20030261.6604  -22515422.15147 -14740951.33763
 91  4 12 23 39 44.9960000  0  5G19G 2G15G13G 6
  21888571.504     4568094.525 5   3559532.24021
  19688492.488   -21571361.749 8 -16808803.81624
  22694965.652    -3225006.064 5  -2430342.36021
  21842578.6374   -6578703.48845  -4800430.41561
  20024012.5044  -22548262.49747 -14766541.17663
 91  4 12 23 39 59.9960000  0  5G19G 2G15G13G 6
  21893947.824     4596362.949 5   3581559.47621
  19687003.082   -21579187.098 8 -16814901.47424
  22690247.363    -3249792.674 5  -2449656.49921
  21830158.8244   -6643973.21545  -4851289.70661
  20017774.457   -22581048.599 7 -14792088.75123
 91  4 12 23 40 14.9960000  0  5G19G 2G15G13G 6
  21899333.762     4624689.317 5   3603631.85321
  19685522.8164  -21586967.74548 -16820964.30564
  22685549.5744   -3274469.99845  -2468885.50561
  21817747.559    -6709184.540 5  -4902103.50321
  20011543.5664  -22613788.40147 -14817600.24963
 91  4 12 23 40 29.9960000  0  5G19G 2G15G13G 6
  21904741.4024    4653081.83945   3625755.77361
  19684052.5824  -21594695.25048 -16826985.72764
  22680878.824    -3299029.324 5  -2488022.52921
  21805352.027    -6774328.624 6  -4952864.88321
  20005322.645   -22646473.284 7 -14843068.94323
 91  4 12 23 40 44.9960000  0  5G19G 2G15G13G 6
  21910157.066     4681541.249 5   3647931.84421
  19682591.785   -21602369.048 8 -16832965.29524
  22676229.082    -3323469.488 5  -2507066.72721
  21792970.7074   -6839404.47946  -5003573.11861
  19999114.113   -22679102.220 7 -14868494.04623
 91  4 12 23 40 59.9960000  0  5G19G 2G15G13G 6
  21915587.129     4710063.491 5   3670156.87421
  19681140.254   -21609993.259 8 -16838906.22624
  22671598.2854   -3347794.43145  -2526021.15661
  21780600.2234   -6904415.85346  -5054231.10361
  19992915.449   -22711678.969 7 -14893878.48423
 91  4 12 23 41 14.9960000  0  5G19G 2G15G13G 6
  21921022.613     4738649.122 5   3692431.25321
  19679698.059   -21617567.038 7 -16844807.85924
  22666990.832    -3372003.278 5  -2544885.09221
  21768239.6064   -6969361.54646  -5104837.91561
  19986727.254   -22744202.446 7 -14919221.41123
 91  4 12 23 41 29.9960000  0  5G19G 2G15G13G 6
  21926478.137     4767301.626 5   3714757.75221
  19678268.379   -21625086.824 7 -16850667.41824
  22662407.8794   -3396092.00645  -2563655.42661
  21755893.4344   -7034237.58846  -5155390.44561
  19980548.457   -22776668.955 7 -14944519.94523
 91  4 12 23 41 44.9960000  0  5G19G 2G15G13G 6
  21931940.520     4796016.452 5   3737132.86821
  19676845.941   -21632557.547 7 -16856488.75024
  22657844.551    -3420065.097 5  -2582335.68221
  21743560.902    -7099048.083 6  -5205891.90621
  19974379.637   -22809082.941 7 -14969777.55123
 91  4 12 23 41 59.9960000  0  5G19G 2G15G13G 6
  21937419.957     4824798.252 5   3759560.13721
  19675435.301   -21639974.449 7 -16862268.13824
  22653306.098    -3443917.715 5  -2600922.05521
  21731240.387    -7163788.036 6  -5256338.38721
  19968223.395   -22841439.359 7 -14994990.30123
 91  4 12 23 42 14.9960000  0  5G19G 2G15G13G 6
  21942909.3954    4853646.29245   3782038.98161
  19674034.7774  -21647338.21948 -16868006.13164
  22648792.082    -3467650.297 6  -2619414.90021
  21718935.496    -7228457.767 6  -5306730.14721
  19962075.699   -22873738.483 7 -15020158.40023
 91  4 12 23 42 29.9960000  0  5G19G 2G15G13G 6
  21948410.488     4882555.375 5   3804565.41621
  19672642.4264  -21654654.03848 -16873706.75964
  22644297.9024   -3491267.49846  -2637817.83061
  21706640.6684   -7293061.88546  -5357070.81461
  19955940.535   -22905985.381 7 -15045285.80924
 91  4 12 23 42 44.9960000  0  5G19G 2G15G13G 6
  21953922.6604    4911527.08945   3827140.69861
  19671259.840   -21661920.269 8 -16879368.74624
  22639830.340    -3514767.106 6  -2656129.10721
  21694361.301    -7357598.355 6  -5407358.73221
  19949813.184   -22938177.950 7 -15070370.88123
 91  4 12 23 42 59.9960000  0  5G19G 2G15G13G 6
  21959444.660     4940562.377 5   3849765.48421
  19669886.5124  -21669135.87848 -16884991.28464
  22635378.941    -3538148.343 6  -2674348.15921
  21682092.6064   -7422065.82346  -5457592.89061
  19943697.6214  -22970315.01247 -15095412.70463
 91  4 12 23 43 14.9960000  0  5G19G 2G15G13G 6
  21964988.574     4969668.338 5   3872445.32321
  19668524.9104  -21676293.90648 -16890568.96364
  22630949.6524   -3561403.83546  -2692469.23261
  21669837.348    -7486456.942 6  -5507767.57921
  19937594.3874  -23002389.25547 -15120405.58263
 91  4 12 23 43 29.9960000  0  5G19G 2G15G13G 6
  21970535.3324    4998834.65645   3895172.20561
  19667171.8324  -21683404.64448 -16896109.78664
  22626550.7544   -3584543.32346  -2710499.91661
  21657598.863    -7550781.356 6  -5557890.26921
  19931501.707   -23034410.522 7 -15145357.17724
 91  4 12 23 43 44.9960000  0  5G19G 2G15G13G 6
  21976101.082     5028064.709 5   3917948.76021
  19665828.3794  -21690464.62648 -16901611.06264
  22622166.2704   -3607563.15746  -2728437.38861
  21645372.8014   -7615035.41346  -5607958.15661
  19925418.137   -23066375.285 7 -15170264.73824
 91  4 12 23 43 59.9960000  0  5G19G 2G15G13G 6
  21981672.6604    5057357.54545   3940774.22561
  19664492.7154  -21697474.73348 -16907073.47564
  22617808.051    -3630464.291 5  -2746282.33821
  21633155.652    -7679219.484 6  -5657971.49221
  19919346.246   -23098283.957 7 -15195128.59723
 91  4 12 23 44 14.9960000  0  5G19G 2G15G13G 6
  21987257.9494    5086710.96445   3963646.91461
  19663168.5984  -21704437.12548 -16912498.70864
  22613470.066    -3653248.317 5  -2764036.03721
  21620954.1764   -7743335.45046  -5707931.76061
  19913283.1604  -23130138.53947 -15219950.31763
 91  4 12 23 44 29.9960000  0  5G19G 2G15G13G 6
  21992852.316     5116127.947 5   3986569.09221
  19661854.1994  -21711348.92148 -16917884.51564
  22609158.5434   -3675911.96845  -2781695.96961
  21608766.723    -7807380.068 6  -5757836.43221
  19907233.4654  -23161935.66147 -15244727.25763
 91  4 12 23 44 44.9960000  0  5G19G 2G15G13G 6
  21998469.1064    5145612.40645   4009543.87161
  19660549.3564  -21718206.25648 -16923227.88964
  22604871.2464   -3698451.05145  -2799258.79761
  21596593.0594   -7871348.75946  -5807681.96161
  19901193.981   -23193671.239 7 -15269456.23923
 91  4 12 23 44 59.9960000  0  5G19G 2G15G13G 6
  22004095.621     5175163.681 5   4032570.76121
  19659254.1844  -21725009.59647 -16928529.18164
  22600606.902    -3720865.584 6  -2816724.59421
  21584437.582    -7935241.691 6  -5857468.44721
  19895166.8874  -23225345.31547 -15294137.29963
 91  4 12 23 45 14.9960000  0  5G19G 2G15G13G 6
  22009725.316     5204775.390 5   4055644.69321
  19657967.8244  -21731765.46448 -16933793.48264
  22596362.5124   -3743161.88145  -2834098.27161
  21572292.1914   -7999064.90346  -5907200.59761
  19889151.7384  -23256964.13547 -15318775.30863
 91  4 12 23 45 29.9960000  0  5G19G 2G15G13G 6
  22015372.738     5234452.926 5   4078769.88021
  19656692.5354  -21738468.46547 -16939016.59264
  22592141.856    -3765334.461 5  -2851375.52521
  21560161.746    -8062812.415 6  -5956873.79121
  19883145.4734  -23288522.01047 -15343365.82363
 91  4 12 23 45 44.9960000  0  5G19G 2G15G13G 6
  22021032.613     5264189.805 5   4101941.34821
  19655425.9884  -21745124.93047 -16944203.44164
  22587945.9414   -3787389.27745  -2868561.01761
  21548043.5664   -8126490.22046  -6006492.64661
  19877150.6064  -23320024.91947 -15367913.51463
 91  4 12 23 45 59.9960000  0  5G19G 2G15G13G 6
  22026704.6374    5293992.47645   4125164.13261
  19654168.4964  -21751728.29147 -16949348.91264
  22583775.223    -3809319.535 5  -2885649.45221
  21535940.004    -8190091.737 6  -6056052.08421
  19871166.2234  -23351466.23947 -15392413.21363
 91  4 12 23 46 14.9960000  0  5G19G 2G15G13G 6
  22032387.504     5323853.723 5   4148432.50121
  19652920.8244  -21758285.76148 -16954458.62364
  22579615.1374   -3831132.22045  -2902646.29161
  21523848.262    -8253623.608 6  -6105557.22621
  19865193.8324  -23382852.65747 -15416870.13563
 91  4 12 23 46 29.9960000  0  5G19G 2G15G13G 6
  22038082.988     5353782.147 5   4171753.19621
  19651684.2464  -21764788.86047 -16959525.96764
  22575493.668    -3852818.274 5  -2919544.42021
  21511772.4184   -8317076.75246  -6155001.02961
  19859234.4964  -23414175.40747 -15441277.44363
 91  4 12 23 46 44.9960000  0  5G19G 2G15G13G 6
  22043794.754     5383781.554 5   4195129.25121
  19650458.2854  -21771233.59047 -16964547.82864
  22571394.160    -3874373.691 6  -2936340.80421
  21499716.9654   -8380446.96446  -6204380.20661
  19853286.4104  -23445430.28447 -15465631.86063
 91  4 12 23 46 59.9960000  0  5G19G 2G15G13G 6
  22049514.340     5413846.465 5   4218556.33321
  19649240.7934  -21777625.68848 -16969528.67464
  22567317.176    -3895803.915 6  -2953039.60921
  21487670.9104   -8443739.23546  -6253698.65461
  19847351.0354  -23476622.32847 -15489937.32263
 91  4 12 23 47 14.9960000  0  5G19G 2G15G13G 6
  22055244.2774    5443971.10445   4242029.96961
  19648034.0514  -21783970.89348 -16974472.98164
  22563258.113    -3917114.480 5  -2969645.17021
  21475639.402    -8506958.746 6  -6302960.42621
  19841425.9264  -23507757.31247 -15514198.32063
 91  4 12 23 47 29.9960000  0  5G19G 2G15G13G 6
  22060991.512     5474162.263 5   4265555.40621
  19646836.1764  -21790262.19748 -16979375.28364
  22559228.512    -3938297.875 5  -2986151.64921
  21463626.5354   -8570098.42246  -6352159.95861
  19835513.6214  -23538827.84447 -15538409.09263
 91  4 12 23 47 44.9960000  0  5G19G 2G15G13G 6
  22066748.543     5504419.365 5   4289132.23921
  19645649.3874  -21796500.07647 -16984235.95964
  22555220.410    -3959354.331 5  -3002559.20721
  21451625.0824   -8633158.17346  -6401297.22961
  19829612.699   -23569834.171 7 -15562569.84223
 91  4 12 23 47 59.9960000  0  5G19G 2G15G13G 6
  22072517.2704    5534737.46845   4312756.61061
  19644471.715   -21802689.490 7 -16989058.86624
  22551242.731    -3980288.759 5  -3018871.65921
  21439639.9264   -8696142.67846  -6450375.86861
  19823723.668   -23600780.983 7 -15586684.21523
 91  4 12 23 48 14.9960000  0  5G19G 2G15G13G 6
  22078298.6994    5565118.06845   4336429.70061
  19643303.191   -21808828.838 7 -16993842.76424
  22547273.9574   -4001099.28045  -3035087.56061
  21427667.9734   -8759050.16246  -6499394.49561
  19817847.129   -23631666.323 7 -15610750.69323
 91  4 12 23 48 29.9960000  0  5G19G 2G15G13G 6
  22084092.332     5595567.272 5   4360156.25621
  19642146.0434  -21814912.13447 -16998582.98364
  22543341.856    -4021779.310 5  -3051201.80721
  21415716.035    -8821873.972 6  -6548347.92021
  19811982.668   -23662483.872 7 -15634764.34323
 91  4 12 23 48 44.9960000  0  5G19G 2G15G13G 6
  22089898.754     5626087.104 5   4383937.79721
  19640999.270   -21820937.127 7 -17003277.76124
  22539429.1604   -4042326.88845  -3067212.83161
  21403775.332    -8884611.643 6  -6597234.22021
  19806131.043   -23693231.148 7 -15658723.23423
 91  4 12 23 48 59.9960000  0  5G19G 2G15G13G 6
  22095716.7464    5656673.24645   4407771.00561
  19639863.7774  -21826908.19347 -17007930.53964
  22535546.457    -4062745.854 6  -3083123.65521
  21391853.027    -8947267.015 6  -6646056.38821
  19800292.402   -23723912.178 7 -15682630.50823
 91  4 12 23 49 14.9960000  0  5G19G 2G15G13G 6
  22101552.7154    5687326.10345   4431656.23861
  19638736.4344  -21832825.01447 -17012541.03764
  22531684.449    -4083035.436 5  -3098933.62921
  21379943.0514   -9009839.29846  -6694813.82261
  19794466.152   -23754526.300 7 -15706485.64724
 91  4 12 23 49 29.9960000  0  5G19G 2G15G13G 6
  22107401.106     5718053.788 5   4455599.81821
  19637622.8634  -21838679.51847 -17017102.98064
  22527848.012    -4103187.397 5  -3114636.36721
  21368052.871    -9072319.931 6  -6743499.81821
  19788655.7234  -23785065.09647 -15730282.08663
 91  4 12 23 49 44.9960000  0  5G19G 2G15G13G 6
  22113261.606     5748848.773 5   4479595.77821
  19636518.926   -21844479.303 7 -17021622.27924
  22524038.1294   -4123209.03845  -3130237.59161
  21356179.988    -9134716.063 6  -6792119.99621
  19782857.137   -23815535.689 7 -15754025.37923
 91  4 12 23 49 59.9960000  0  5G19G 2G15G13G 6
  22119133.2074    5779709.48845   4503642.91561
  19635426.5904  -21850225.66647 -17026099.95964
  22520252.7774   -4143101.28345  -3145737.96761
  21344322.1294   -9197028.58246  -6840675.01161
  19777071.895   -23845939.253 7 -15777716.44623
 91  4 12 23 50 14.9960000  0  5G19G 2G15G13G 6
  22125020.629     5810641.632 5   4527745.77921
  19634343.3954  -21855912.55747 -17030531.29164
  22516496.246    -4162858.137 5  -3161132.83521
  21332482.106    -9259251.148 6  -6889159.91821
  19771299.496   -23876269.549 7 -15801350.42623
 91  4 12 23 50 29.9960000  0  5G19G 2G15G13G 6
  22130921.9734    5841638.70345   4551899.25861
  19633271.4884  -21861546.62647 -17034921.46664
  22512761.4654   -4182486.06446  -3176427.24561
  21320658.848    -9321390.121 6  -6937579.71021
  19765538.965   -23906532.903 7 -15824932.22423
 91  4 12 23 50 44.9960000  0  5G19G 2G15G13G 6
  22136830.356     5872709.507 5   4576110.13321
  19632210.1294  -21867119.12247 -17039263.66264
  22509052.5354   -4201975.64645  -3191613.86461
  21308850.7934   -9383436.07546  -6985927.01661
  19759797.6214  -23936720.05247 -15848454.64963
 91  4 12 23 50 59.9960000  0  5G19G 2G15G13G 6
  22142758.481     5903850.145 5   4600375.41521
  19631161.6844  -21872633.79147 -17043560.79664
  22505367.895    -4221330.693 5  -3206695.65721
  21297061.0594   -9445392.71946  -7034204.74361
  19754065.434   -23966834.656 7 -15871920.55123
 91  4 12 23 51 14.9960000  0  5G19G 2G15G13G 6
  22148695.6134    5935058.59345   4624693.56361
  19630122.8634  -21878092.57747 -17047814.38764
  22501711.074    -4240552.940 5  -3221673.95421
  21285286.504    -9507261.567 6  -7082414.05321
  19748349.6134  -23996878.34247 -15895331.18663
 91  4 12 23 51 29.9960000  0  5G19G 2G15G13G 6
  22154643.4734    5966337.94945   4649066.97161
  19629095.5744  -21883492.60147 -17052022.19064
  22498075.481    -4259638.862 5  -3236546.03021
  21273530.2854   -9569039.10946  -7130552.21561
  19742645.7314  -24026847.59547 -15918683.82264
 91  4 12 23 51 44.9960000  0  5G19G 2G15G13G 6
  22160616.3794    5997684.81245   4673492.97261
  19628079.3244  -21888837.07947 -17056186.71064
  22494471.723    -4278591.581 5  -3251314.30721
  21261789.8564   -9630728.34146  -7178621.56861
  19736956.465   -24056745.576 7 -15941980.92523
 91  4 12 23 51 59.9960000  0  5G19G 2G15G13G 6
  22166596.4104    6029097.32945   4697970.14661
  19627072.1764  -21894127.86947 -17060309.39664
  22490886.840    -4297412.761 5  -3265980.08821
  21250069.6994   -9692330.26346  -7226622.88561
  19731280.7154  -24086573.69447 -15965223.59263
 91  4 12 23 52 14.9960000  0  5G19G 2G15G13G 6
  22172585.3714    6060580.95145   4722502.69961
  19626076.3164  -21899359.37847 -17064385.88764
  22487336.6524   -4316096.56846  -3280538.85361
  21238362.746    -9753839.150 6  -7274551.70121
  19725618.9344  -24116326.13147 -15988407.27563
 91  4 12 23 52 29.9960000  0  5G19G 2G15G13G 6
  22178581.0984    6092129.74245   4747086.00561
  19625091.1684  -21904537.68847 -17068420.92664
  22483803.6604   -4334648.81045  -3294995.05961
  21226678.0904   -9815260.65146  -7322412.43061
  19719969.5434  -24146008.71047 -16011536.52963
 91  4 12 23 52 44.9960000  0  5G19G 2G15G13G 6
  22184604.8564    6123746.33045   4771722.19561
  19624116.6994  -21909659.85947 -17072412.21964
  22480301.129    -4353066.257 5  -3309346.27821
  21215005.3244   -9876591.45246  -7370202.48961
  19714336.6064  -24175618.13847 -16034608.78564
 91  4 12 23 52 59.9960000  0  5G19G 2G15G13G 6
  22190632.488     6155426.676 5   4796408.08421
  19623151.4574  -21914729.96347 -17076362.94364
  22476814.973    -4371353.202 5  -3323595.76221
  21203351.4964   -9937835.26346  -7417924.75561
  19708713.6214  -24205158.30847 -16057627.06464
 91  4 12 23 53 14.9960000  0  5G19G 2G15G13G 6
  22196671.9574    6187174.12145   4821146.19861
  19622198.1214  -21919744.64148 -17080270.47364
  22473364.5984   -4389505.87046  -3337740.64461
  21191714.0044   -9998988.28746  -7465576.29061
  19703106.7774  -24234625.46447 -16080588.45164
 91  4 12 23 53 29.9960000  0  5G19G 2G15G13G 6
  22202724.504     6218989.443 5   4845937.20321
  19621253.340   -21924703.140 7 -17084134.22724
  22469937.1604   -4407523.05146  -3351779.94361
  21180094.4264  -10060049.52946  -7513156.29761
  19697513.5354  -24264018.45247 -16103492.05164
 91  4 12 23 53 44.9960000  0  5G19G 2G15G13G 6
  22208794.6294    6250867.45845   4870777.09561
  19620320.0354  -21929610.47548 -17087958.11464
  22466534.5904   -4425409.62146  -3365717.46861
  21168489.8014  -10121023.43846  -7560668.26261
  19691932.5204  -24293342.21347 -16126341.70664
 91  4 12 23 53 59.9960000  0  5G19G 2G15G13G 6
  22214876.871     6282807.767 5   4895665.52921
  19619395.402   -21934467.221 7 -17091742.58124
  22463152.7074   -4443165.58646  -3379553.23061
  21156903.7704  -10181910.26546  -7608112.35961
  19686366.1294  -24322596.75347 -16149137.41064
 91  4 12 23 54 14.9960000  0  5G19G 2G15G13G 6
  22220963.785     6314812.521 5   4920604.17121
  19618481.0984  -21939271.00347 -17095485.77964
  22459798.856    -4460788.671 5  -3393285.44921
  21145335.3244  -10242707.51646  -7655486.66461
  19680814.1684  -24351779.42047 -16171877.12164
 91  4 12 23 54 29.9960000  0  5G19G 2G15G13G 6
  22227067.129     6346883.159 5   4945594.14421
  19617577.8714  -21944020.21247 -17099186.45564
  22456474.0044   -4478277.11346  -3406912.74661
  21133782.2464  -10303413.03046  -7702789.47761
  19675274.3634  -24380888.49847 -16194559.49164
 91  4 12 23 54 44.9960000  0  5G19G 2G15G13G 6
  22233182.066     6379015.523 5   4970632.21221
  19616683.8404  -21948718.95847 -17102847.80664
  22453169.301    -4495634.760 6  -3420438.10521
  21122248.6994  -10364030.41646  -7750023.62061
  19669747.4884  -24409927.54747 -16217187.28364
 91  4 12 23 54 59.9960000  0  5G19G 2G15G13G 6
  22239309.0984    6411216.44545   4995723.71361
  19615801.2464  -21953360.48948 -17106464.57764
  22449893.0044   -4512854.61946  -3433856.10461
  21110731.918   -10424552.423 6  -7797183.45821
  19664236.7384  -24438889.64247 -16239755.11564
 91  4 12 23 55 14.9960000  0  5G19G 2G15G13G 6
  22245449.4024    6443479.66945   5020863.74461
  19614926.2074  -21957950.85347 -17110041.47464
  22446641.973    -4529942.411 6  -3447171.21221
  21099230.770   -10484984.962 6  -7844273.57821
  19658739.4494  -24467780.68047 -16262267.58264
 91  4 12 23 55 29.9960000  0  5G19G 2G15G13G 6
  22251602.371     6475804.410 5   5046051.72021
  19614062.1214  -21962490.88247 -17113579.14964
  22443413.4264   -4546898.60646  -3460383.76461
  21087747.020   -10545328.342 6  -7891294.22521
  19653255.6844  -24496600.97547 -16284724.92164
 91  4 12 23 55 44.9960000  0  5G19G 2G15G13G 6
  22257763.098     6508198.132 5   5071293.45121
  19613210.5594  -21966972.94648 -17117071.66064
  22440209.6914   -4563715.55145  -3473487.81161
  21076281.887   -10605574.617 6  -7938239.20321
  19647785.4184  -24525342.72247 -16307121.05064
 91  4 12 23 55 59.9960000  0  5G19G 2G15G13G 6
  22263936.3094    6540649.91345   5096580.42461
  19612365.3954  -21971407.85747 -17120527.42364
  22437034.4184   -4580403.96945  -3486491.70561
  21064835.9024  -10665734.20846  -7985116.63361
  19642328.481   -24554016.274 7 -16329464.05424
 91  4 12 23 56 14.9960000  0  5G19G 2G15G13G 6
  22270129.496     6573165.953 5   5121917.44621
  19611531.4574  -21975789.52447 -17123941.69864
  22433887.6844   -4596957.50745  -3499390.51561
  21053405.488   -10725800.399 6  -8031921.29321
  19636886.4494  -24582615.27647 -16351748.96164
 91  4 12 23 56 29.9960000  0  5G19G 2G15G13G 6
  22276326.6684    6605737.93645   5147298.07961
  19610705.9654  -21980126.19948 -17127320.92164
  22430763.5514   -4613384.15746  -3512190.46861
  21041988.332   -10785781.184 6  -8078659.41021
  19631457.3244  -24611147.82547 -16373982.08264
 91  4 12 23 56 44.9960000  0  5G19G 2G15G13G 6
  22282537.207     6638371.745 5   5172726.88521
  19609890.3164  -21984411.98448 -17130660.48464
  22427662.152    -4629677.892 6  -3524886.83021
  21030591.613   -10845670.304 6  -8125326.07121
  19626042.3324  -24639607.57547 -16396158.48364
 91  4 12 23 56 59.9960000  0  5G19G 2G15G13G 6
  22288748.856     6671067.484 5   5198203.94921
  19609084.8954  -21988646.75648 -17133960.30064
  22424588.738    -4645838.139 6  -3537479.14921
  21019213.418   -10905467.338 6  -8171921.00121
  19620640.0124  -24667994.01847 -16418277.75864
 91  4 12 23 57 14.9960000  0  5G19G 2G15G13G 6
  22294989.7544    6703823.86145   5223728.26961
  19608287.965   -21992831.824 8 -17137221.37824
  22421535.090    -4661865.851 5  -3549968.19321
  21007852.020   -10965172.995 6  -8218444.72221
  19615250.9104  -24696308.04947 -16440340.60664
 91  4 12 23 57 29.9960000  0  5G19G 2G15G13G 6
  22301233.1524    6736644.10045   5249302.34461
  19607502.9024  -21996963.68248 -17140440.99864
  22418509.6374   -4677757.66645  -3562351.35561
  20996508.676   -11024783.472 6  -8264894.27521
  19609877.1914  -24724546.15347 -16462344.29264
 91  4 12 23 57 44.9960000  0  5G19G 2G15G13G 6
  22307491.9814    6769522.27845   5274921.54261
  19606725.1524  -22001048.16348 -17143623.69864
  22415505.5664   -4693519.24345  -3574633.04361
  20985183.8954  -11084304.25046  -8311273.94061
  19604517.4734  -24752713.74947 -16484293.03764
 91  4 12 23 57 59.9960000  0  5G19G 2G15G13G 6
  22313760.520     6802462.657 5   5300589.24021
  19605958.3484  -22005081.22348 -17146766.33364
  22412535.7314   -4709145.93545  -3586809.62861
  20973875.2314  -11143730.69146  -8357580.09561
  19599171.4264  -24780806.31547 -16506183.31364
 91  4 12 23 58 14.9950000  0  5G19G 2G15G13G 6
  22320037.733     6835454.194 5   5326296.83221
  19605198.1244  -22009071.08348 -17149875.30564
  22409588.5074   -4724645.05345  -3598886.78961
  20962583.4994  -11203067.09546  -8403816.10161
  19593838.3584  -24808830.27047 -16528020.13164
 91  4 12 23 58 29.9950000  0  5G19G 2G15G13G 6
  22326331.2264    6868505.84345   5352051.20261
  19604448.3354  -22013013.75748 -17152947.50564
  22406661.3124   -4740014.09445  -3610862.61361
  20951308.218   -11262316.730 6  -8449984.49221
  19588518.0934  -24836784.54947 -16549802.65464
 91  4 12 23 58 44.9950000  0  5G19G 2G15G13G 6
  22332629.9524    6901614.79445   5377850.24261
  19603707.4684  -22016909.37048 -17155983.04064
  22403760.6244   -4755252.29445  -3622736.47561
  20940050.9524  -11321475.58946  -8496082.14461
  19583213.3584  -24864667.49047 -16571529.58764
 91  4 12 23 58 59.9950000  0  5G19G 2G15G13G 6
  22338934.390     6934781.918 5   5403694.61921
  19602974.8984  -22020756.90648 -17158981.11164
  22400891.1874   -4770358.47246  -3634507.46861
  20928811.062   -11380542.509 6  -8542108.15821
  19577921.3904  -24892477.83547 -16593199.95364
 91  4 12 23 59 14.9950000  0  5G19G 2G15G13G 6
  22345265.3434    6968003.32145   5429581.27361
  19602250.866   -22024560.689 8 -17161945.08624
  22398043.6874   -4785336.68146  -3646178.74461
  20917588.3354  -11439521.01746  -8588065.27861
  19572641.9684  -24920219.45447 -16614816.76664
 91  4 12 23 59 29.9950000  0  5G19G 2G15G13G 6
  22351590.9834    7001281.14445   5455511.93061
  19601535.3514  -22028318.29748 -17164873.08164
  22395214.7804   -4800184.60946  -3657748.49761
  20906381.6324  -11498408.29946  -8633951.31361
  19567376.7494  -24947889.53847 -16636377.84464
 91  4 12 23 59 44.9950000  0  5G19G 2G15G13G 6
  22357937.6794    7034613.75944   5481485.23861
  19600830.1634  -22032031.05848 -17167766.13364
  22392413.0304   -4814902.92546  -3669217.25961
  20895190.749   -11557205.532 6  -8679767.17921
  19562124.1404  -24975489.13047 -16657883.98764
 91  4 12 23 59 59.9950000  0  5G19G 2G15G13G 6
  22364296.194     7068008.785 5   5507507.19321
  19600133.0464  -22035691.35448 -17170618.30464
  22389639.8044   -4829483.92646  -3680579.00861
  20884020.3044  -11615904.79746  -8725506.70161
  19556888.3354  -25003010.51047 -16679329.19164
 91  4 13  0  0 14.9950000  0  5G19G 2G15G13G 6
  22370657.7654    7101461.03244   5533573.76061
  19599445.7884  -22039304.29548 -17173433.56964
  22386889.6484   -4843932.81646  -3691837.82161
  20872868.116   -11674510.734 6  -8771173.50521
  19551664.4834  -25030458.50447 -16700717.21264
 91  4 13  0  0 29.9950000  0  5G19G 2G15G13G 6
  22377038.530     7134963.892 5   5559679.74521
  19598764.6164  -22042876.53148 -17176217.12864
  22384162.343    -4858255.904 6  -3702998.59521
  20861731.312   -11733029.594 6  -8816772.45721
  19546453.3584  -25057839.20547 -16722052.78664
 91  4 13  0  0 44.9950000  0  5G19G 2G15G13G 6
  22383417.257     7168519.375 4   5585826.73421
  19598094.4684  -22046406.02548 -17178967.37164
  22381463.1324   -4872450.58846  -3714059.32661
  20850613.241   -11791458.790 6  -8862301.53721
  19541256.8584  -25085150.39147 -16743334.20164
 91  4 13  0  0 59.9950000  0  5G19G 2G15G13G 6
  22389815.960     7202128.113 5   5612015.20121
  19597430.7104  -22049891.97048 -17181683.69064
  22378785.3904   -4886516.23346  -3725019.50861
  20839511.241   -11849797.137 6  -8907759.82321
  19536073.0854  -25112390.92147 -16764560.56064
 91  4 13  0  1 14.9950000  0  5G19G 2G15G13G 6
  22396227.077     7235793.980 5   5638248.20821
  19596777.1484  -22053330.58248 -17184363.11964
  22376136.851    -4900448.689 6  -3735875.92321
  20828428.812   -11908040.450 6  -8953144.06221
  19530901.3984  -25139556.55247 -16785728.55264
 91  4 13  0  1 29.9950000  0  5G19G 2G15G13G 6
  22402639.171     7269517.729 4   5664526.34421
  19596129.8824  -22056720.61648 -17187004.69764
  22373507.726    -4914246.846 6  -3746627.69621
  20817364.069   -11966187.197 6  -8998453.05321
  19525748.7414  -25166646.04347 -16806837.21564
 91  4 13  0  1 44.9950000  0  5G19G 2G15G13G 6
  22409069.999     7303294.225 5   5690845.52821
  19595494.4214  -22060067.42848 -17189612.59564
  22370907.515    -4927915.701 5  -3757278.69421
  20806315.2104  -12024242.50146  -9043690.79761
  19520605.9684  -25193664.21447 -16827890.30864
 91  4 13  0  1 59.9950000  0  5G19G 2G15G13G 6
  22415507.569     7337124.669 5   5717206.76321
  19594866.3514  -22063369.58948 -17192185.70364
  22368327.6014   -4941453.69345  -3767827.74761
  20795284.858   -12082204.647 6  -9088855.95021
  19515479.1484  -25220609.57647 -16848886.66364
 91  4 13  0  2 14.9950000  0  5G19G 2G15G13G 6
  22421954.8824    7371007.19945   5743608.60561
  19594245.3744  -22066629.05148 -17194725.53864
  22365780.976    -4954862.583 6  -3778276.19721
  20784274.1794  -12140075.23046  -9133949.75261
  19510364.921   -25247483.559 7 -16869827.40524
 91  4 13  0  2 29.9950000  0  5G19G 2G15G13G 6
  22428412.9294    7404942.51744   5770051.57861
  19593633.6554  -22069845.14848 -17197231.58064
  22363252.077    -4968141.427 6  -3788623.28521
  20773277.6944  -12197852.91146  -9178971.16861
  19505264.5074  -25274285.14747 -16890711.73064
 91  4 13  0  2 44.9950000  0  5G19G 2G15G13G 6
  22434881.1794    7438929.08644   5796534.48961
  19593028.3664  -22073019.26248 -17199704.91064
  22360752.296    -4981291.271 6  -3798869.87221
  20762298.6324  -12255538.77846  -9223921.04161
  19500178.835   -25301015.341 7 -16911540.42424
 91  4 13  0  2 59.9950000  0  5G19G 2G15G13G 6
  22441356.913     7472968.388 4   5823058.45621
  19592433.6944  -22076149.60748 -17202144.13264
  22358273.913    -4994310.144 6  -3809014.40921
  20751339.6714  -12313130.75746  -9268797.74961
  19495106.624   -25327672.307 7 -16932312.06024
 91  4 13  0  3 14.9950000  0  5G19G 2G15G13G 6
  22447841.3984    7507061.57344   5849624.42661
  19591845.8194  -22079234.99648 -17204548.32264
  22355822.866    -5007197.062 6  -3819056.10121
  20740400.1164  -12370627.55946  -9313600.30161
  19490048.0384  -25354254.59947 -16953025.50664
 91  4 13  0  3 29.9950000  0  5G19G 2G15G13G 6
  22454342.0384    7541204.41044   5876229.08861
  19591267.3124  -22082279.56048 -17206920.70664
  22353393.1794   -5019955.91946  -3828998.00861
  20729476.2734  -12428032.78846  -9358331.49561
  19485002.991   -25380766.000 7 -16973683.71624
 91  4 13  0  3 44.9950000  0  5G19G 2G15G13G 6
  22460850.4604    7575405.06944   5902878.82061
  19590697.2804  -22085275.13148 -17209254.91364
  22350992.7884   -5032578.37346  -3838833.63261
  20718572.8584  -12485338.00346  -9402984.75561
  19479972.718   -25407197.966 7 -16994280.03124
 91  4 13  0  3 59.9950000  0  5G19G 2G15G13G 6
  22467368.335     7609660.757 5   5929571.41521
  19590135.2884  -22088224.45147 -17211553.08364
  22348613.944    -5045067.056 6  -3848565.02421
  20707685.9994  -12542545.38746  -9447561.79161
  19474957.9604  -25433553.02147 -17014816.41364
 91  4 13  0  4 14.9950000  0  5G19G 2G15G13G 6
  22473896.4994    7643965.00544   5956301.85061
  19589581.4684  -22091134.01047 -17213820.26464
  22346263.7334   -5057428.00846  -3858196.86661
  20696817.030   -12599660.936 6  -9492067.26721
  19469956.062   -25459837.241 7 -17035297.60024
 91  4 13  0  4 29.9950000  0  5G19G 2G15G13G 6
  22480437.3434    7678320.15544   5983071.93561
  19589036.8354  -22094001.14848 -17216054.39364
  22343933.1794   -5069658.85946  -3867727.34161
  20685964.9994  -12656682.17546  -9536499.25161
  19464968.304   -25486047.771 7 -17055721.36824
 91  4 13  0  4 44.9950000  0  5G19G 2G15G13G 6
  22486978.9994    7712726.82244   6009882.17461
  19588499.8824  -22096825.21448 -17218254.96464
  22341626.062    -5081758.653 5  -3877155.69121
  20675131.6554  -12713607.82146  -9580856.75061
  19459994.249   -25512183.613 7 -17076086.94124
 91  4 13  0  4 59.9950000  0  5G19G 2G15G13G 6
  22493536.9374    7747183.03245   6036731.05861
  19587969.0544  -22099608.24048 -17220423.55764
  22339352.2184   -5093728.88045  -3886483.09161
  20664317.5384  -12770439.30246  -9625140.87061
  19455034.468   -25538246.441 7 -17096395.61324
 91  4 13  0  5 14.9950000  0  5G19G 2G15G13G 6
  22500107.562     7781690.366 5   6063619.76721
  19587448.3904  -22102348.39148 -17222558.73564
  22337095.4374   -5105567.76645  -3895708.13661
  20653521.2964  -12827174.89146  -9669350.27861
  19450089.608   -25564234.147 7 -17116645.75224
 91  4 13  0  5 29.9950000  0  5G19G 2G15G13G 6
  22506684.366     7816243.708 4   6090544.24221
  19586933.4134  -22105050.71648 -17224664.44164
  22334868.390    -5117280.119 5  -3904834.62121
  20642742.5624  -12883819.04446  -9713488.42961
  19445157.312   -25590151.481 7 -17136841.05924
 91  4 13  0  5 44.9950000  0  5G19G 2G15G13G 6
  22513269.476     7850848.864 4   6117509.14821
  19586428.3664  -22107709.19148 -17226735.97964
  22332670.4524   -5128859.96246  -3913857.85461
  20631980.8984  -12940365.63446  -9757550.56461
  19440240.101   -25615992.158 7 -17156976.62424
 91  4 13  0  5 59.9950000  0  5G19G 2G15G13G 6
  22519860.2414    7885509.57744   6144517.37961
  19585930.7734  -22110320.18648 -17228770.51864
  22330489.921    -5140303.342 6  -3922774.73221
  20621240.999   -12996810.258 6  -9801533.24921
  19435337.749   -25641752.250 7 -17177049.40924
 91  4 13  0  6 14.9950000  0  5G19G 2G15G13G 6
  22526460.163     7920216.818 3   6171561.84921
  19585442.4914  -22112892.62948 -17230775.02064
  22328336.6714   -5151619.30646  -3931592.32061
  20610514.843   -13053161.646 6  -9845443.28321
  19430450.819   -25667440.418 7 -17197066.14924
 91  4 13  0  6 29.9950000  0  5G19G 2G15G13G 6
  22533082.5234    7954977.30544   6198647.79161
  19584960.8904  -22115419.59948 -17232744.09164
  22326210.374    -5162800.724 6  -3940305.04621
  20599811.944   -13109412.342 6  -9889274.85921
  19425576.038   -25693049.408 7 -17217021.19224
 91  4 13  0  6 44.9950000  0  5G19G 2G15G13G 6
  22539706.601     7989790.883 4   6225775.08621
  19584489.0234  -22117901.17347 -17234677.78564
  22324106.4524   -5173847.23446  -3948912.66061
  20589128.710   -13165562.404 6  -9933028.01521
  19420718.187   -25718579.069 7 -17236914.41724
 91  4 13  0  6 59.9950000  0  5G19G 2G15G13G 6
  22546336.9994    8024651.52443   6252939.08161
  19584023.1164  -22120343.20947 -17236580.66764
  22322028.6324   -5184764.84446  -3957419.84161
  20578463.265   -13221617.294 6  -9976707.01221
  19415873.694   -25744034.891 7 -17256750.10724
 91  4 13  0  7 14.9950000  0  5G19G 2G15G13G 6
  22552982.7804    8059559.75444   6280140.15761
  19583566.7884  -22122745.18348 -17238452.32964
  22319975.608    -5195553.000 6  -3965826.14321
  20567813.335   -13277576.161 6 -10020311.18621
  19411043.679   -25769416.139 7 -17276527.69024
 91  4 13  0  7 29.9950000  0  5G19G 2G15G13G 6
  22559638.4684    8094519.49044   6307381.36761
  19583117.4834  -22125103.01247 -17240289.59764
  22317948.413    -5206207.600 6  -3974128.37521
  20557183.140   -13333434.616 6 -10063837.11621
  19406229.843   -25794718.252 7 -17296243.60424
 91  4 13  0  7 44.9950000  0  5G19G 2G15G13G 6
  22566300.2654    8129531.05444   6334662.95861
  19582676.8194  -22127416.35347 -17242092.20164
  22315943.9994   -5216727.63346  -3982325.74961
  20546571.890   -13389191.765 6 -10107284.11121
  19401429.749   -25819940.539 7 -17315897.31024
 91  4 13  0  7 59.9950000  0  5G19G 2G15G13G 6
  22572968.2574    8164593.12044   6361983.91261
  19582246.3824  -22129686.53248 -17243861.17364
  22313969.452    -5227114.366 6  -3990419.25321
  20535981.608   -13444848.795 6 -10150653.08821
  19396645.148   -25845084.159 7 -17335489.72924
 91  4 13  0  8 14.9950000  0  5G19G 2G15G13G 6
  22579648.694     8199701.466 4   6389340.88921
  19581820.9214  -22131917.67647 -17245599.72864
  22312021.421    -5237371.944 6  -3998412.13321
  20525408.1324  -13500409.57346 -10193947.07561
  19391875.687   -25870152.971 7 -17355023.84923
 91  4 13  0  8 29.9950000  0  5G19G 2G15G13G 6
  22586343.2804    8234864.78244   6416740.74861
  19581405.9764  -22134100.81547 -17247300.87464
  22310094.937    -5247491.272 6  -4006297.26621
  20514854.5694  -13555864.51246 -10237158.56461
  19387120.226   -25895137.656 7 -17374492.41424
 91  4 13  0  8 44.9950000  0  5G19G 2G15G13G 6
  22593045.9914    8270075.81544   6444177.78661
  19580998.8274  -22136243.00747 -17248970.11564
  22308194.632    -5257479.280 6  -4014080.07921
  20504321.265   -13611220.363 6 -10280292.85921
  19382379.999   -25920045.129 7 -17393900.81724
 91  4 13  0  8 59.9950000  0  5G19G 2G15G13G 6
  22599749.694     8305338.895 4   6471655.35721
  19580598.2804  -22138339.97547 -17250604.11564
  22306322.1324   -5267331.41046  -4021757.03761
  20493805.421   -13666472.866 6 -10323346.61921
  19377655.288   -25944870.741 7 -17413245.43224
 91  4 13  0  9 14.9950000  0  5G19G 2G15G13G 6
  22606474.0304    8340646.48944   6499167.61261
  19580207.1484  -22140399.04847 -17252208.58864
  22304468.7574   -5277055.23246  -4029334.00061
  20483310.866   -13721628.952 6 -10366325.25121
  19372947.663   -25969621.580 7 -17432531.78124
 91  4 13  0  9 29.9950000  0  5G19G 2G15G13G 6
  22613201.530     8376007.187 4   6526721.23021
  19579823.4604  -22142411.95747 -17253777.08564
  22302643.7494   -5286641.85745  -4036804.04861
  20472834.187   -13776679.738 6 -10409221.83121
  19368251.624   -25994288.853 7 -17451753.01524
 91  4 13  0  9 44.9950000  0  5G19G 2G15G13G 6
  22619939.577     8411415.940 4   6554312.35921
  19579448.8124  -22144383.28648 -17255313.18364
  22300844.7884   -5296095.99345  -4044170.89361
  20462377.554   -13831629.395 6 -10452039.62121
  19363572.788   -26018877.048 7 -17470912.62824
 91  4 13  0  9 59.9950000  0  5G19G 2G15G13G 6
  22626688.452     8446876.330 4   6581943.69121
  19579083.1014  -22146309.56048 -17256814.18064
  22299069.1714   -5305414.01845  -4051431.66261
  20451940.843   -13886474.142 6 -10494775.65221
  19358910.741   -26043382.207 7 -17490007.53224
 91  4 13  0 10 14.9950000  0  5G19G 2G15G13G 6
  22633444.069     8482386.791 3   6609614.01521
  19578724.9374  -22148191.93348 -17258280.96264
  22297319.866    -5314597.147 5  -4058587.30221
  20441523.7024  -13941215.00646 -10537430.74361
  19354262.999   -26067805.358 7 -17509038.54023
 91  4 13  0 10 29.9950000  0  5G19G 2G15G13G 6
  22640208.624     8517938.474 4   6637316.47321
  19578372.7654  -22150039.13347 -17259720.34064
  22295598.757    -5323653.887 5  -4065644.45621
  20431125.062   -13995860.404 6 -10580011.43821
  19349628.726   -26092154.940 7 -17528012.22224
 91  4 13  0 10 44.9950000  0  5G19G 2G15G13G 6
  22646984.069     8553536.401 4   6665054.96221
  19578028.5854  -22151846.16948 -17261128.41664
  22293900.2414   -5332579.07945  -4072599.09161
  20420745.999   -14050404.983 6 -10622513.58121
  19345011.718   -26116425.630 7 -17546924.42423
 91  4 13  0 10 59.9950000  0  5G19G 2G15G13G 6
  22653765.944     8589188.354 4   6692835.55921
  19577694.0154  -22153605.14048 -17262499.03864
  22292225.6014   -5341364.48445  -4079444.82061
  20410388.632   -14104840.508 6 -10664930.73821
  19340408.421   -26140609.226 7 -17565768.76524
 91  4 13  0 11 14.9950000  0  5G19G 2G15G13G 6
  22660564.6084    8624888.56444   6720653.77261
  19577367.2574  -22155321.81848 -17263836.71064
  22290583.6714   -5350015.94045  -4086186.18061
  20400047.8354  -14159172.41846 -10707267.17161
  19335821.968   -26164711.261 7 -17584549.55023
 91  4 13  0 11 29.9950000  0  5G19G 2G15G13G 6
  22667360.788     8660631.463 3   6748505.23521
  19577048.6484  -22157001.66647 -17265145.67864
  22288960.515    -5358539.008 6  -4092827.48821
  20389726.718   -14213405.812 6 -10749526.81821
  19331249.999   -26188736.750 7 -17603270.68724
 91  4 13  0 11 44.9950000  0  5G19G 2G15G13G 6
  22674176.194     8696423.105 4   6776394.64821
  19576736.6164  -22158638.42147 -17266421.06964
  22287365.155    -5366927.180 6  -4099363.68021
  20379426.468   -14267534.252 6 -10791704.68621
  19326695.280   -26212679.264 7 -17621927.16923
 91  4 13  0 11 59.9950000  0  5G19G 2G15G13G 6
  22680996.7884    8732263.98544   6804322.48561
  19576432.7024  -22160231.55847 -17267662.46664
  22285796.851    -5375179.848 6  -4105794.28621
  20369147.366   -14321556.769 6 -10833800.01021
  19322153.327   -26236537.930 7 -17640518.31424
 91  4 13  0 12 14.9950000  0  5G19G 2G15G13G 6
  22687831.898     8768152.558 4   6832287.47321
  19576137.8044  -22161782.12048 -17268870.69064
  22284250.1244   -5383298.12646  -4112120.17161
  20358887.366   -14375474.102 6 -10875813.38421
  19317629.0854  -26260313.69947 -17659044.86463
 91  4 13  0 12 29.9950000  0  5G19G 2G15G13G 6
  22694662.4834    8804086.46744   6860287.75561
  19575851.0934  -22163292.47148 -17270047.57764
  22282725.3664   -5391284.25845  -4118343.09061
  20348645.124   -14429288.525 6 -10917746.56121
  19313120.460   -26284008.667 7 -17677508.45023
 91  4 13  0 12 44.9950000  0  5G19G 2G15G13G 6
  22701514.4914    8840072.95544   6888329.03061
  19575572.5854  -22164755.52647 -17271187.61764
  22281230.5774   -5399130.82845  -4124457.27161
  20338427.804   -14482992.542 6 -10959593.71021
  19308628.0304  -26307615.29547 -17695903.19763
 91  4 13  0 12 59.9950000  0  5G19G 2G15G13G 6
  22708369.804     8876104.899 3   6916405.70821
  19575301.0544  -22166178.30148 -17272296.26264
  22279766.3584   -5406844.64445  -4130468.00861
  20328228.265   -14536592.519 6 -11001359.79221
  19304151.437   -26331140.149 7 -17714234.22523
 91  4 13  0 13 14.9950000  0  5G19G 2G15G13G 6
  22715237.7654    8912187.66243   6944521.99061
  19575039.1164  -22167555.34348 -17273369.27464
  22278325.5694   -5414420.05645  -4136370.88861
  20318047.944   -14590082.942 6 -11043040.50321
  19299690.679   -26354577.708 7 -17732497.23324
 91  4 13  0 13 29.9950000  0  5G19G 2G15G13G 6
  22722107.4684    8948316.88344   6972674.50161
  19574785.6014  -22168890.73848 -17274409.83364
  22276909.3274   -5421861.52045  -4142169.39561
  20307890.929   -14643467.562 6 -11084638.77021
  19295246.288   -26377931.642 7 -17750695.07624
 91  4 13  0 13 44.9950000  0  5G19G 2G15G13G 6
  22728998.2184    8984490.75444   7000861.79561
  19574539.7104  -22170186.29448 -17275419.35064
  22275518.827    -5429170.568 5  -4147864.70821
  20297750.476   -14696747.863 6 -11126155.74621
  19290818.991   -26401203.408 7 -17768828.89423
 91  4 13  0 13 59.9950000  0  5G19G 2G15G13G 6
  22735886.874     9020713.371 4   7029087.04521
  19574301.3904  -22171437.61748 -17276394.39664
  22274153.5934   -5436342.80345  -4153453.41261
  20287632.4604  -14749919.27446 -11167587.88461
  19286407.5384  -26424388.72047 -17786895.34063
 91  4 13  0 14 14.9950000  0  5G19G 2G15G13G 6
  22742789.2654    9056983.91443   7057349.61361
  19574072.2184  -22172645.61348 -17277335.68164
  22272812.499    -5443378.722 5  -4158935.91621
  20277534.749   -14802982.355 6 -11208935.60121
  19282010.905   -26447487.851 7 -17804894.64124
 91  4 13  0 14 29.9950000  0  5G19G 2G15G13G 6
  22749698.569     9093302.023 3   7085649.30121
  19573848.523   -22173810.385 8 -17278243.28324
  22271504.0694   -5450278.56945  -4164312.41961
  20267457.687   -14855936.766 6 -11250198.64821
  19277631.0694  -26470500.71647 -17822826.71563
 91  4 13  0 14 44.9950000  0  5G19G 2G15G13G 6
  22756618.593     9129660.796 4   7113980.71021
  19573636.6244  -22174938.56648 -17279122.37264
  22270213.546    -5457048.990 6  -4169588.01921
  20257400.6874  -14908788.79946 -11291381.91261
  19273268.3354  -26493433.69647 -17840696.54064
 91  4 13  0 14 59.9950000  0  5G19G 2G15G13G 6
  22763544.4134    9166070.38343   7142351.67061
  19573428.1554  -22176020.00348 -17279965.04064
  22268953.0384   -5463679.89846  -4174754.91861
  20247362.358   -14961528.230 6 -11332477.44221
  19268922.3744  -26516276.44547 -17858496.05363
 91  4 13  0 15 14.9950000  0  5G19G 2G15G13G 6
  22770486.8984    9202527.62743   7170759.70561
  19573232.1084  -22177057.66848 -17280773.59764
  22267718.968    -5470174.034 6  -4179815.23821
  20237347.968   -15014157.864 6 -11373487.41721
  19264591.898   -26539031.545 7 -17876227.28323
 91  4 13  0 15 29.9950000  0  5G19G 2G15G13G 6
  22777438.601     9239035.781 3   7199207.42821
  19573042.7884  -22178048.34748 -17281545.54464
  22266509.038    -5476527.982 6  -4184766.33321
  20227355.2574  -15066673.97646 -11414408.92961
  19260277.8904  -26561695.49647 -17893887.47364
 91  4 13  0 15 44.9950000  0  5G19G 2G15G13G 6
  22784393.8744    9275588.82444   7227690.22361
  19572862.3824  -22178997.90548 -17282285.44864
  22265323.7734   -5482747.56346  -4189612.71261
  20217383.7184  -15119081.89647 -11455246.14461
  19255982.694   -26584273.915 7 -17911481.02423
 91  4 13  0 15 59.9950000  0  5G19G 2G15G13G 6
  22791352.476     9312187.322 3   7256208.41621
  19572689.085   -22179905.802 8 -17282992.88524
  22264167.538    -5488832.303 5  -4194354.05121
  20207430.663   -15171381.110 7 -11495998.64921
  19251702.898   -26606765.950 7 -17929007.25923
 91  4 13  0 16 14.9950000  0  5G19G 2G15G13G 6
  22798327.757     9348827.677 3   7284759.15221
  19572521.460   -22180775.320 8 -17283670.41924
  22263032.9764   -5494785.28945  -4198992.73261
  20197497.4444  -15223574.29647 -11536668.54061
  19247437.960   -26629174.637 7 -17946468.55024
 91  4 13  0 16 29.9950000  0  5G19G 2G15G13G 6
  22805306.991     9385510.229 3   7313342.76121
  19572364.5624  -22181606.07648 -17284317.75064
  22261925.1164   -5500605.84246  -4203528.20761
  20187586.2104  -15275660.79647 -11577255.29661
  19243190.7654  -26651499.16647 -17963864.26264
 91  4 13  0 16 44.9950000  0  5G19G 2G15G13G 6
  22812299.569     9422236.697 4   7341960.61921
  19572215.780   -22182396.178 8 -17284933.40024
  22260844.608    -5506292.252 6  -4207959.15321
  20177694.2024  -15327638.54746 -11617757.31961
  19238957.233   -26673737.449 7 -17981192.77124
 91  4 13  0 16 59.9950000  0  5G19G 2G15G13G 6
  22819297.163     9459011.049 3   7370615.78521
  19572072.2884  -22183141.42248 -17285514.10264
  22259788.0854   -5511840.29545  -4212282.30761
  20167824.8584  -15379503.23547 -11658171.23561
  19234742.304   -26695885.103 7 -17998450.65824
 91  4 13  0 17 14.9950000  0  5G19G 2G15G13G 6
  22826295.2334    9495824.99842   7399301.85761
  19571937.226   -22183850.024 8 -17286066.24424
  22258756.8664   -5517257.88646  -4216503.80061
  20157974.8984  -15431262.61746 -11698503.10361
  19230543.468   -26717949.989 7 -18015644.05223
 91  4 13  0 17 29.9950000  0  5G19G 2G15G13G 6
  22833312.7414    9532683.70743   7428022.79961
  19571812.8904  -22184516.56848 -17286585.62164
  22257753.671    -5522539.606 6  -4220619.40721
  20148146.6244  -15482911.01546 -11738748.48161
  19226360.866   -26739926.562 7 -18032768.63423
 91  4 13  0 17 44.9950000  0  5G19G 2G15G13G 6
  22840335.0624    9569589.61243   7456780.43661
  19571694.366   -22185138.542 8 -17287070.26224
  22256774.3904   -5527683.00246  -4224627.21761
  20138341.6324  -15534445.58647 -11778905.17361
  19222196.624   -26761811.927 7 -18049822.14323
 91  4 13  0 17 59.9950000  0  5G19G 2G15G13G 6
  22847373.5854    9606548.51643   7485579.41061
  19571586.5934  -22185710.26448 -17287515.75564
  22255821.187    -5532682.318 6  -4228522.76821
  20128557.5384  -15585860.53147 -11818968.64261
  19218052.288   -26783599.987 7 -18066799.83323
 91  4 13  0 18 14.9950000  0  5G19G 2G15G13G 6
  22854412.3744    9643552.85142   7514413.76461
  19571483.9054  -22186239.13748 -17287927.85864
  22254892.2574   -5537544.79045  -4232311.68661
  20118792.9214  -15637162.88247 -11858944.37761
  19213921.898   -26805297.961 7 -18083707.32523
 91  4 13  0 18 29.9950000  0  5G19G 2G15G13G 6
  22861463.1164    9680597.11643   7543279.31161
  19571390.4994  -22186730.39848 -17288310.64964
  22253996.390    -5542275.745 6  -4235998.09621
  20109052.4684  -15688357.53447 -11898836.19361
  19209809.194   -26826910.769 7 -18100548.45124
 91  4 13  0 18 44.9950000  0  5G19G 2G15G13G 6
  22868521.8514    9717683.71243   7572177.81261
  19571303.733   -22187181.496 8 -17288662.14324
  22253124.6244   -5546872.67746  -4239580.06161
  20099331.1244  -15739441.51447 -11938641.77261
  19205712.804   -26848435.568 7 -18117321.00223
 91  4 13  0 18 59.9950000  0  5G19G 2G15G13G 6
  22875580.835     9754817.905 3   7601113.39921
  19571228.8984  -22187587.05548 -17288978.15564
  22252272.733    -5551329.962 5  -4243053.22721
  20089631.7804  -15790409.32346 -11978356.83061
  19201635.140   -26869866.719 7 -18134020.58324
 91  4 13  0 19 14.9950000  0  4G 2G15G13G 6
  19571157.7414  -22187950.26848 -17289261.17664
  22251450.866    -5555650.703 5  -4246420.02621
  20079954.4294  -15841263.99447 -12017983.73261
  19197573.358   -26891207.124 7 -18150649.44723
 91  4 13  0 19 29.9950000  0  4G 2G15G13G 6
  19571094.6244  -22188274.32248 -17289513.67564
  22250649.413    -5559838.122 5  -4249682.93021
  20070298.8584  -15892008.15647 -12057524.52161
  19193530.351   -26912459.722 7 -18167209.89724
 91  4 13  0 19 44.9950000  0  4G 2G15G13G 6
  19571043.9604  -22188552.62947 -17289730.53664
  22249882.624    -5563885.477 5  -4252836.69321
  20060664.616   -15942634.999 7 -12096973.89821
  19189503.530   -26933617.654 7 -18183696.58123
 91  4 13  0 19 59.9950000  0  4G 2G15G13G 6
  19571001.6014  -22188789.84048 -17289915.37064
  22249136.179    -5567797.573 5  -4255885.06521
  20051051.030   -15993149.153 7 -12136335.46321
  19185495.726   -26954685.475 7 -18200113.04723
 91  4 13  0 20 14.9950000  0  4G 2G15G13G 6
  19570962.6404  -22188986.05147 -17290068.26064
  22248419.038    -5571574.253 5  -4258827.91721
  20041460.2334  -16043550.23447 -12175608.92161
  19181502.218   -26975662.893 7 -18216459.07423
 91  4 13  0 20 29.9950000  0  4G 2G15G13G 6
  19570933.3824  -22189138.64347
  22247731.1164   -5575213.03745  -4261663.29361
  20031891.898   -16093835.225 7 -12214791.91321
  19177528.577   -26996547.060 7 -18232732.43624
 91  4 13  0 20 44.9950000  0  4G 2G15G13G 6
  19570911.9764  -22189247.14948
  22247061.648    -5578713.419 5  -4264390.84721
  20022344.0074  -16144003.68047 -12253884.10261
  19173572.140   -27017337.216 7 -18248932.54424
 91  4 13  0 20 59.9950000  0  4G 2G15G13G 6
  19570898.7264  -22189315.03147
  22246419.0774   -5582078.78445  -4267013.20861
  20012818.483   -16194058.716 7 -12292887.90721
  19169634.437   -27038036.595 7 -18265061.91824
 91  4 13  0 21 14.9950000  0  4G 2G15G13G 6
  19570894.4914  -22189341.00647
  22245803.1164   -5585307.81245  -4269529.30161
  20003315.3044  -16243998.64747 -12331802.02061
  19165711.733   -27058643.511 7 -18281119.23924
 91  4 13  0 21 29.9950000  0  4G 2G15G13G 6
  19570898.3584  -22189325.87747
  22245215.890    -5588401.077 5  -4271939.59021
  19993833.9444  -16293824.18447 -12370626.99661
  19161807.601   -27079158.465 7 -18297104.90524
 91  4 13  0 21 44.9950000  0  4G 2G15G13G 6
  19570908.1324  -22189265.29448
  22244655.0624   -5591354.49745  -4274240.92161
  19984375.194   -16343530.919 7 -12409359.40121
  19157922.851   -27099576.981 7 -18313015.42724
 91  4 13  0 21 59.9950000  0  4G 2G15G13G 6
  19570928.4524  -22189164.69348
  22244114.148    -5594173.471 5  -4276437.50621
  19974937.7964  -16393123.67147 -12448002.98861
  19154055.015   -27119904.131 7 -18328854.75324
 91  4 13  0 22 14.9950000  0  4G 2G15G13G 6
  19570956.1324  -22189016.81947
  22243611.358    -5596850.788 5  -4278523.69821
  19965521.913   -16442595.059 7 -12486552.00621
  19150204.2024  -27140132.51847 -18344617.12164
 91  4 13  0 22 29.9950000  0  4G 2G15G13G 6
  19570991.4994  -22188831.11347
  22243129.2264   -5599395.65445  -4280506.67861
  19956129.4994  -16491954.07747 -12525013.46161
  19146372.218   -27160271.162 7 -18360309.55624
 91  4 13  0 22 44.9950000  0  4G 2G15G13G 6
  19571035.9134  -22188603.95948 -17289770.56564
  22242667.265    -5601804.350 5  -4282383.56021
  19946759.4524  -16541196.87247 -12563384.35761
  19142559.1484  -27180316.31647 -18375929.14864
 91  4 13  0 22 59.9950000  0  4G 2G15G13G 6
  19571083.8124  -22188332.59448 -17289559.11664
  22242236.015    -5604073.920 6  -4284152.04721
  19937412.546   -16590320.473 7 -12601662.37321
  19138764.2024  -27200264.82747 -18391473.43364
 91  4 13  0 23 14.9950000  0  4G 2G15G13G 6
  19571147.2804  -22188015.48648 -17289312.02664
  22241834.2184   -5606203.08146  -4285811.13061
  19928086.952   -16639323.193 7 -12639846.19621
  19134985.0464  -27220115.01447 -18406941.10263
 91  4 13  0 23 29.9950000  0  4G 2G15G13G 6
  19571214.2804  -22187664.30647 -17289038.38664
  22241450.702    -5608203.734 6  -4287370.06121
  19918782.9914  -16688216.51747 -12677944.77261
  19131224.7964  -27239878.44247 -18422341.16364
 91  4 13  0 23 44.9950000  0  4G 2G15G13G 6
  19571288.8044  -22187266.42647 -17288728.35464
  22241099.1554   -5610062.98346  -4288818.79361
  19909501.6874  -16736987.66047 -12715948.14761
  19127482.2884  -27259542.02547 -18437663.43064
 91  4 13  0 23 59.9950000  0  4G 2G15G13G 6
  19571372.1164  -22186827.44547 -17288386.29864
  22240766.2024   -5611786.34546  -4290161.63761
  19900243.499   -16785641.677 7 -12753860.25621
  19123758.8904  -27279111.03247 -18452912.00064
 91  4 13  0 24 14.9950000  0  4G 2G15G13G 6
  19571463.585   -22186344.639 8 -17288010.09924
  22240461.601    -5613371.152 5  -4291396.53521
  19891007.5154  -16834175.43947 -12791678.65561
  19120052.8984  -27298582.48047 -18468084.55063
 91  4 13  0 24 29.9950000  0  4G 2G15G13G 6
  19571562.0074  -22185822.08948 -17287602.92764
  22240192.874    -5614821.328 5  -4292526.52521
  19881794.0854  -16882592.98647 -12829406.49761
  19116366.2104  -27317960.35047 -18483184.18164
 91  4 13  0 24 44.9950000  0  4G 2G15G13G 6
  19571668.8984  -22185257.62748 -17287163.09564
  22239939.312    -5616135.026 6  -4293550.16821
  19872603.046   -16930891.858 7 -12867041.86621
  19112696.9374  -27337242.06147 -18498208.88964
 91  4 13  0 24 59.9950000  0  4G 2G15G13G 6
  19571785.2024  -22184647.00047 -17286687.28664
  22239713.7334   -5617307.84845  -4294464.01761
  19863435.554   -16979067.654 7 -12904581.33921
  19109045.9374  -27356423.09247 -18513155.13964
 91  4 13  0 25 14.9950000  0  4G 2G15G13G 6
  19571912.4444  -22183997.08547 -17286180.87164
  22239516.515    -5618346.609 5  -4295273.40221
  19854291.515   -17027127.070 7 -12942030.11521
  19105413.2184  -27375510.23847 -18528028.23464
 91  4 13  0 25 29.9950000  0  4G 2G15G13G 6
  19572041.4914  -22183304.97747 -17285641.57364
  22239348.476    -5619248.167 5  -4295975.89121
  19845167.124   -17075066.844 7 -12979385.67121
  19101800.3514  -27394500.18847 -18542825.59364
 91  4 13  0 25 44.9950000  0  4G 2G15G13G 6
  19572181.9054  -22182569.35947 -17285068.37264
  22239199.624    -5620011.401 5  -4296570.60021
  19836067.3124  -17122885.17547 -13016646.59961
  19098205.7654  -27413391.33847 -18557545.96364
 91  4 13  0 25 59.9950000  0  4G 2G15G13G 6
  19572330.2264  -22181793.67348 -17284463.94564
  22239081.093    -5620639.952 5  -4297060.35121
  19826991.741   -17170585.465 7 -13053815.54921
  19094628.6944  -27432186.92847 -18572191.87564
 91  4 13  0 26 14.9950000  0  4G 2G15G13G 6
  19572484.2104  -22180980.87448 -17283830.60564
  22238990.976    -5621136.850 5  -4297447.55721
  19817935.030   -17218170.673 7 -13090894.82621
  19091069.3824  -27450889.70747 -18586765.46564
 91  4 13  0 26 29.9950000  0  4G 2G15G13G 6
  19572648.9994  -22180121.78248 -17283161.19264
  22238925.358    -5621492.516 5  -4297724.68721
  19808903.616   -17265630.966 7 -13127876.76521
  19087531.1164  -27469489.99047 -18601259.18064
 91  4 13  0 26 44.9950000  0  4G 2G15G13G 6
  19572819.6324  -22179220.05448 -17282458.55464
  22238881.8044   -5621710.82446  -4297894.76861
  19799895.460   -17312970.090 7 -13164764.28821
  19084009.5694  -27487991.30547 -18615675.78863
 91  4 13  0 26 59.9950000  0  4G 2G15G13G 6
  19572998.6484  -22178277.35447 -17281723.99264
  22238860.9994   -5621793.40446
  19790910.054   -17360189.561 7 -13201558.58021
  19080506.8124  -27506395.34447 -18630016.59064
 91  4 13  0 27 14.9950000  0  4G 2G15G13G 6
  19573184.5384  -22177296.48547 -17280959.68464
  22238878.6714   -5621743.18046
  19781945.1874  -17407291.89447 -13238261.59361
  19077023.7024  -27524704.41947 -18644283.39264
 91  4 13  0 27 29.9950000  0  4G 2G15G13G 6
  19573382.2104  -22176269.88447 -17280159.74064
  22238904.9374   -5621552.51245
  19773006.882   -17454269.189 7 -13274867.17721
  19073559.2334  -27542910.88347 -18658470.23864
 91  4 13  0 27 44.9950000  0  4G 2G15G13G 6
  19573582.7104  -22175209.02048 -17279333.10064
  22238967.4994   -5621232.77145
  19764088.062   -17501132.536 7 -13311383.96621
  19070112.2654  -27561025.72547 -18672585.69563
 91  4 13  0 27 59.9950000  0  4G 2G15G13G 6
  19573792.6014  -22174105.28547 -17278473.05164
  22239056.866    -5620775.608 5  -4297165.92921
  19755193.4994  -17547873.30647 -13347805.24461
  19066683.6634  -27579040.30547 -18686623.02063
 91  4 13  0 28 14.9950000  0  4G 2G15G13G 6
  19574012.4134  -22172956.22048 -17277577.68264
  22239171.4054   -5620178.38045  -4296700.52561
  19746324.5624  -17594488.76747 -13384128.87861
  19063275.2414  -27596951.83547 -18700580.04863
 91  4 13  0 28 29.9950000  0  4G 2G15G13G 6
  19574237.5384  -22171763.11248 -17276647.98864
  22239313.8664   -5619442.53845  -4296127.12061
  19737475.577   -17640980.198 7 -13420355.86521
  19059886.7884  -27614761.40147 -18714457.62763
 91  4 13  0 28 44.9950000  0  4G 2G15G13G 6
  19574474.8664  -22170523.24748 -17275681.86964
  22239472.4134   -5618565.12245  -4295443.38661
  19728652.5544  -17687344.15247 -13456483.52661
  19056516.6944  -27632465.88247 -18728253.31363
 91  4 13  0 28 59.9950000  0  4G 2G15G13G 6
  19574719.5464  -22169240.85848 -17274682.60964
  22239666.6944   -5617550.67845  -4294652.91161
  19719853.3354  -17733584.87947 -13492515.16361
  19053167.0544  -27650069.41547 -18741970.34163
 91  4 13  0 29 14.9950000  0  4G 2G15G13G 6
  19574973.0694  -22167911.92448 -17273647.08064
  22239888.7574   -5616395.16945  -4293752.50861
  19711079.1244  -17779698.14747 -13528447.48161
  19049837.7574  -27667567.68547 -18755605.35364
 91  4 13  0 29 29.9950000  0  4G 2G15G13G 6
  19575232.4294  -22166543.41548
  22240133.4834   -5615105.18445
  19702326.0544  -17825690.64447 -13564285.69561
  19046527.382   -27684967.273 7 -18769163.45723
 91  4 13  0 29 44.9950000  0  4G 2G15G13G 6
  19575500.6634  -22165132.44947
  22240405.6404   -5613678.17146
  19693598.4294  -17871559.19547 -13600027.32261
  19043235.530   -27702265.168 7 -18782642.31923
 91  4 13  0 29 59.9950000  0  4G 2G15G13G 6
  19575777.6244  -22163681.54948 -17270350.69464
  22240702.6404   -5612116.74645  -4290418.62461
  19684892.0694  -17917306.36447 -13635674.37462
  19039962.4294  -27719463.63947 -18796043.71763
 91  4 13  0 30 14.9950000  0  4G 2G15G13G 6
  19576060.1324  -22162189.81748 -17269188.30164
  22241024.2884   -5610419.99745  -4289096.46861
  19676209.6244  -17962931.19147 -13671226.09561
  19036708.054   -27736561.757 7 -18809366.90823
 91  4 13  0 30 29.9950000  0  4G 2G15G13G 6
  19576351.8664  -22160657.93048 -17267994.61964
  22241378.9054   -5608588.87046  -4287669.58961
  19667550.1874  -18008433.93147 -13706682.67861
  19033472.843   -27753559.906 7 -18822612.20424
 91  4 13  0 30 44.9950000  0  4G 2G15G13G 6
  19576650.0154  -22159082.19547 -17266766.76664
  22241754.890    -5606619.505 6  -4286134.95721
  19658915.9764  -18053810.45547 -13742040.91261
  19030259.257   -27770453.871 7 -18835776.32023
 91  4 13  0 30 59.9950000  0  4G 2G15G13G 6
  19576959.7494  -22157466.41248 -17265507.71664
  22242150.007    -5604515.602 5  -4284495.53721
  19650304.2494  -18099064.34847 -13777303.59462
  19027064.0074  -27787247.42047 -18848862.19263
 91  4 13  0 31 14.9950000  0  4G 2G15G13G 6
  19577274.6714  -22155804.57048 -17264212.77264
  22242576.983    -5602271.311 5  -4282746.72621
  19641718.6404  -18144189.64347 -13812466.06161
  19023888.382   -27803934.165 7 -18861864.84023
 91  4 13  0 31 29.9950000  0  4G 2G15G13G 6
  19577600.3984  -22154098.20948 -17262883.13964
  22243032.6404   -5599888.34345  -4280889.87361
  19633154.5544  -18189187.60147 -13847529.31861
  19020733.304   -27820515.596 7 -18874785.42123
 91  4 13  0 31 44.9950000  0  4G 2G15G13G 6
  19577931.1794  -22152359.08547 -17261527.97164
  22243507.6634   -5597378.17145  -4278933.88061
  19624614.4834  -18234069.63847 -13882502.24061
  19017594.444   -27837003.055 7 -18887632.77523
 91  4 13  0 31 59.9950000  0  4G 2G15G13G 6
  19578272.1014  -22150573.22748 -17260136.39764
  22244014.7024   -5594727.21045  -4276868.13961
  19616098.0694  -18278821.68247 -13917373.86761
  19014477.437   -27853382.332 7 -18900395.83423
 91  4 13  0 32 14.9950000  0  4G 2G15G13G 6
  19578619.0934  -22148748.42548 -17258714.47564
  22244544.976    -5591943.432 5  -4274698.89921
  19607605.9604  -18323451.27247 -13952150.08362
  19011379.483   -27869661.116 7 -18913080.58523
 91  4 13  0 32 29.9950000  0  4G 2G15G13G 6
  19578973.0934  -22146886.16347 -17257263.36364
  22245094.851    -5589028.218 5  -4272427.28721
  19599136.6484  -18367959.84347 -13986831.99061
  19008301.780   -27885840.695 7 -18925688.03023
 91  4 13  0 32 44.9950000  0  4G 2G15G13G 6
  19579336.2884  -22144975.67147 -17255774.66264
  22245677.2024   -5585970.70045  -4270044.83161
  19590692.7104  -18412336.62447 -14021411.20262
  19005243.608   -27901910.083 7 -18938209.61123
 91  4 13  0 32 59.9950000  0  4G 2G15G13G 6
  19579708.3434  -22143021.31447 -17254251.78064
  22246289.8044   -5582775.33045  -4267554.94161
  19582270.7654  -18456585.88747 -14055891.05662
  19002205.444   -27917873.273 7 -18950648.44523
 91  4 13  0 33 14.9950000  0  4G 2G15G13G 6
  19580087.6794  -22141025.16048 -17252696.33764
  22246925.0934   -5579444.07545  -4264959.15161
  19573873.8194  -18500708.87247 -14090272.50862
  18999189.351   -27933732.092 7 -18963005.95223
 91  4 13  0 33 29.9950000  0  4G 2G15G13G 6
  19580475.8664  -22138985.73047 -17251107.16664
  22247584.140    -5575975.601 5  -4262256.43121
  19565500.8354  -18544704.08247 -14124554.40361
  18996189.398   -27949484.833 7 -18975280.78924
 91  4 13  0 33 44.9950000  0  4G 2G15G13G 6
  19580873.0624  -22136901.49148 -17249483.08164
  22248270.429    -5572368.645 5  -4259445.78321
  19557154.1324  -18588570.05847 -14158735.59162
  18993214.804   -27965129.855 7 -18987471.69823
 91  4 13  0 33 59.9950000  0  4G 2G15G13G 6
  19581277.8194  -22134776.35448 -17247827.12364
  22248981.9994   -5568626.96045  -4256530.14961
  19548830.1714  -18632310.13947 -14192818.68062
  18990254.898   -27980670.647 7 -18999581.39023
 91  4 13  0 34 14.9950000  0  4G 2G15G13G 6
  19581689.6014  -22132605.50348 -17246135.55264
  22249722.163    -5564745.867 6  -4253505.90521
  19540531.7104  -18675919.47347 -14226799.89662
  18987319.390   -27996102.297 7 -19011606.03423
 91  4 13  0 34 29.9950000  0  4G 2G15G13G 6
  19582110.7494  -22130398.17848 -17244415.55564
  22250482.8904   -5560734.60446  -4250380.21961
  19532255.835   -18719407.203 7 -14260686.35322
  18984401.335   -28011433.804 7 -19023552.64523
 91  4 13  0 34 44.9950000  0  4G 2G15G13G 6
  19582538.7414  -22128151.65247 -17242665.01964
  22251269.8514   -5556590.52546  -4247151.05661
  19524004.2494  -18762770.26147 -14294475.66262
  18981503.405   -28026662.128 7 -19035418.85223
 91  4 13  0 34 59.9950000  0  4G 2G15G13G 6
  19582972.9134  -22125862.44147 -17240881.21364
  22252085.2414   -5552310.33646  -4243815.85061
  19515776.6714  -18806005.14947 -14328165.10361
  18978627.983   -28041783.744 7 -19047201.91323
 91  4 13  0 35 14.9950000  0  4G 2G15G13G 6
  19583418.1164  -22123528.49047 -17239062.54964
  22252929.3744   -5547892.00446  -4240372.94461
  19507575.632   -18849109.445 7 -14361752.78222
  18975770.116   -28056796.157 7 -19058899.88223
 91  4 13  0 35 29.9950000  0  4G 2G15G13G 6
  19583872.7264  -22121149.27448 -17237208.61164
  22253791.390    -5543335.046 6  -4236822.02321
  19499397.9214  -18892082.71647 -14395238.35962
  18972931.929   -28071698.710 7 -19070512.24823
 91  4 13  0 35 44.9950000  0  4G 2G15G13G 6
  19584331.6014  -22118721.73347 -17235317.02264
  22254689.9054   -5538636.36645  -4233160.67461
  19491245.2414  -18934921.79347 -14428619.37362
  18970117.624   -28086488.273 7 -19082036.56423
 91  4 13  0 35 59.9950000  0  4G 2G15G13G 6
  19584803.1634  -22116245.28747 -17233387.31964
  22255606.023    -5533795.661 5  -4229388.71721
  19483119.8044  -18977625.74547 -14461895.08762
  18967326.351   -28101163.878 7 -19093472.08223
 91  4 13  0 36 14.9950000  0  4G 2G15G13G 6
  19585282.4604  -22113730.13947 -17231427.46364
  22256558.3514   -5528823.13245  -4225514.03461
  19475014.9914  -19020204.56547 -14495073.30462
  18964554.0074  -28115735.48147 -19104826.57063
 91  4 13  0 36 29.9950000  0  4G 2G15G13G 6
  19585768.8194  -22111170.60347 -17229433.01364
  22257526.5074   -5523713.20845  -4221532.24861
  19466939.6084  -19062652.40347 -14528149.45462
  18961802.523   -28130197.295 7 -19116095.50123
 91  4 13  0 36 44.9950000  0  4G 2G15G13G 6
  19586265.1324  -22108568.72948 -17227405.58464
  22258524.007    -5518467.768 5  -4217444.82521
  19458886.8744  -19104970.95147 -14561124.85862
  18959070.8904  -28144551.04847 -19127280.23463
 91  4 13  0 36 59.9950000  0  4G 2G15G13G 6
  19586767.8824  -22105921.39247 -17225342.72364
  22259550.483    -5513083.803 5  -4213249.55421
  19450858.601   -19147156.999 7 -14593997.02021
  18956360.4054  -28158793.29947 -19138378.08963
 91  4 13  0 37 14.9950000  0  4G 2G15G13G 6
  19587278.7734  -22103233.97347 -17223248.63664
  22260602.593    -5507567.017 6  -4208950.75821
  19442855.5154  -19189215.96747 -14626770.15161
  18953670.710   -28172929.345 7 -19149393.17423
 91  4 13  0 37 29.9950000  0  4G 2G15G13G 6
  19587798.6244  -22100508.35847 -17221124.77364
  22261674.530    -5501919.492 6  -4204550.05821
  19434875.1404  -19231149.37647 -14659445.44861
  18951000.4914  -28186960.96147 -19160326.89363
 91  4 13  0 37 44.9950000  0  4G 2G15G13G 6
  19588325.5464  -22097737.36147 -17218965.55864
  22262777.366    -5496133.897 6  -4200041.78521
  19426918.819   -19272949.898 7 -14692017.20221
  18948349.8514  -28200880.72347 -19171173.45663
 91  4 13  0 37 59.9950000  0  4G 2G15G13G 6
  19588860.5934  -22094928.12147 -17216776.54564
  22263902.499    -5490217.631 5  -4195431.68921
  19418989.898   -19314624.791 7 -14724491.06222
  18945721.0774  -28214695.57047 -19181938.26163
 91  4 13  0 38 14.9950000  0  4G 2G15G13G 6
  19589402.5074  -22092074.85747 -17214553.22864
  22265055.499    -5484164.973 5  -4190715.32021
  19411083.757   -19356167.829 7 -14756862.17422
  18943114.9054  -28228399.36447 -19192616.53363
 91  4 13  0 38 29.9950000  0  4G 2G15G13G 6
  19589954.4994  -22089174.38147 -17212293.11964
  22266230.9604   -5477972.61045  -4185890.06961
  19403204.8824  -19397575.69947 -14789127.96062
  18940529.4914  -28241988.69147 -19203205.61663
 91  4 13  0 38 44.9950000  0  4G 2G15G13G 6
  19590514.7574  -22086234.26448 -17210002.12164
  22267431.343    -5471648.394 5  -4180962.11221
  19395350.007   -19438855.881 7 -14821294.24922
  18937962.030   -28255470.995 7 -19213711.29123
 91  4 13  0 38 59.9950000  0  4G 2G15G13G 6
  19591080.6794  -22083255.37847 -17207680.91464
  22268658.327    -5465193.329 5  -4175932.21221
  19387517.0624  -19480009.17047 -14853361.66462
  18935417.4764  -28268847.04847 -19224134.18063
 91  4 13  0 39 14.9950000  0  4G 2G15G13G 6
  19591656.6554  -22080228.72347 -17205322.48064
  22269921.233    -5458598.207 6  -4170793.14821
  19379713.030   -19521026.271 7 -14885322.95822
  18932894.8124  -28282107.49747 -19234466.99263
 91  4 13  0 39 29.9950000  0  4G 2G15G13G 6
  19592240.6554  -22077162.68947 -17202933.36064
  22271199.179    -5451871.723 6  -4165551.68021
  19371931.108   -19561915.440 7 -14917184.55822
  18930391.866   -28295260.426 7 -19244716.02423
 91  4 13  0 39 44.9950000  0  4G 2G15G13G 6
  19592832.8904  -22074054.01048 -17200511.01364
  22272502.687    -5445010.842 5  -4160205.50821
  19364175.8744  -19602673.18947 -14948943.75862
  18927909.2734  -28308302.44547 -19254878.62763
 91  4 13  0 39 59.9950000  0  4G 2G15G13G 6
  19593432.6324  -22070896.64147 -17198050.72864
  22273835.030    -5438009.669 5  -4154750.09621
  19356445.2574  -19643293.45147 -14980595.82662
  18925450.1794  -28321227.51047 -19264950.10363
 91  4 13  0 40 14.9950000  0  4G 2G15G13G 6
  19594043.3664  -22067689.17347 -17195551.40964
  22275197.6714   -5430866.64646  -4149184.15161
  19348742.874   -19683774.474 7 -15012139.39622
  18923012.2574  -28334033.86047 -19274929.07063
 91  4 13  0 40 29.9950000  0  4G 2G15G13G 6
  19594662.0384  -22064440.57347 -17193020.03464
  22276579.304    -5423590.976 6  -4143514.78621
  19341063.851   -19724125.131 7 -15043581.38322
  18920596.9914  -28346730.10447 -19284822.24163
 91  4 13  0 40 44.9940000  0  4G 2G15G13G 6
  19595286.9714  -22061153.79747 -17190458.91664
  22277991.525    -5416185.933 6  -4137744.58221
  19333410.6434  -19764345.65247 -15074921.96762
  18918201.1114  -28359318.18947 -19294631.13463
 91  4 13  0 40 59.9940000  0  4G 2G15G13G 6
  19595920.7214  -22057822.26547 -17187862.92064
  22279425.635    -5408644.412 5  -4131868.06421
  19325781.846   -19804435.049 7 -15106160.37822
  18915826.5254  -28371793.42647 -19304352.09363
 91  4 13  0 41 14.9940000  0  4G 2G15G13G 6
  19596565.0024  -22054445.08448 -17185231.35464
  22280884.2294   -5400966.08345  -4125884.93661
  19318178.369   -19844389.241 7 -15137293.42922
  18913474.2604  -28384153.66947 -19313983.44563
 91  4 13  0 41 29.9940000  0  4G 2G15G13G 6
  19597214.3384  -22051026.58747 -17182567.59864
  22282370.072    -5393155.243 5  -4119798.54021
  19310600.854   -19884212.348 7 -15168324.34222
  18911144.0414  -28396402.92247 -19323528.30963
 91  4 13  0 41 44.9940000  0  4G 2G15G13G 6
  19597872.2364  -22047564.93048 -17179870.20664
  22283879.791    -5385210.051 5  -4113607.49821
  19303046.674   -19923902.447 7 -15199251.61122
  18908835.3464  -28408539.12047 -19332985.08363
 91  4 13  0 41 59.9940000  0  4G 2G15G13G 6
  19598539.3544  -22044060.50748 -17177139.48964
  22285419.7834   -5377131.34045  -4107312.41461
  19295520.080   -19963459.835 7 -15230075.47222
  18906546.6354  -28420562.44947 -19342353.90163
 91  4 13  0 42 14.9940000  0  4G 2G15G13G 6
  19599214.6584  -22040514.81047 -17174376.60864
  22286982.744    -5368920.502 6  -4100914.34121
  19288018.182   -20002885.852 7 -15260796.96522
  18904281.1744  -28432474.22447 -19351635.80263
 91  4 13  0 42 29.9940000  0  4G 2G15G13G 6
  19599897.3774  -22036926.55847 -17171580.57764
  22288568.158    -5360576.346 6  -4094412.39321
  19280539.299   -20042179.000 7 -15291414.92722
  18902034.7914  -28444273.06547 -19360829.69963
 91  4 13  0 42 44.9940000  0  4G 2G15G13G 6
  19600590.0574  -22033292.36948 -17168748.74364
  22290182.3614   -5352095.88245  -4087804.21861
  19273088.244   -20081335.848 7 -15321926.67722
  18899811.1744  -28455955.21847 -19369932.66363
 91  4 13  0 42 59.9940000  0  4G 2G15G13G 6
  19601288.1434  -22029617.99848 -17165885.60064
  22291823.8544   -5343484.94445  -4081094.39761
  19265661.861   -20120361.808 7 -15352336.44022
  18897609.9004  -28467526.40547 -19378949.16863
 91  4 13  0 43 14.9940000  0  4G 2G15G13G 6
  19601996.5654  -22025898.86048 -17162987.57864
  22293490.8854   -5334738.99045  -4074279.38461
  19258260.080   -20159252.096 7 -15382640.48422
  18895429.9794  -28478981.80047 -19387875.44863
 91  4 13  0 43 29.9940000  0  4G 2G15G13G 6
  19602714.6904  -22022132.80147 -17160052.99264
  22295175.861    -5325856.018 6  -4067357.59721
  19250886.127   -20198004.710 7 -15412837.25422
  18893272.0494  -28490319.06047 -19396709.67463
 91  4 13  0 43 44.9940000  0  4G 2G15G13G 6
  19603436.2994  -22018323.81047 -17157084.95064
  22296894.354    -5316840.217 6  -4060332.31921
  19243538.158   -20236623.705 7 -15442929.89522
  18891136.9084  -28501542.12247 -19405454.91263
 91  4 13  0 43 59.9940000  0  4G 2G15G13G 6
  19604170.0654  -22014471.52848 -17154083.17964
  22298635.1504   -5307691.21845  -4053203.24361
  19236214.322   -20275108.424 7 -15472917.91322
  18889023.3154  -28512650.29147 -19414110.62263
 91  4 13  0 44 14.9940000  0  4G 2G15G13G 6
  19604912.7364  -22010575.97748 -17151047.69464
  22300400.885    -5298409.097 5  -4045970.41021
  19228916.018   -20313458.903 7 -15502801.32122
  18886931.3854  -28523643.60847 -19422676.84263
 91  4 13  0 44 29.9940000  0  4G 2G15G13G 6
  19605663.736   -22006633.359 8 -17147975.53424
  22302192.588    -5288990.127 5  -4038630.92821
  19221644.346   -20351670.923 7 -15532576.84322
  18884861.3614  -28534517.71347 -19431150.16363
 91  4 13  0 44 44.9940000  0  4G 2G15G13G 6
  19606419.1664  -22002649.67247 -17144871.36764
  22304011.0024   -5279440.61145  -4031189.75161
  19214399.041   -20389750.443 7 -15562249.11922
  18882813.5254  -28545278.69547 -19439535.34563
 91  4 13  0 44 59.9940000  0  4G 2G15G13G 6
  19607186.8774  -21998622.05447 -17141732.96864
  22305852.307    -5269757.746 5  -4023644.69221
  19207177.979   -20427694.339 7 -15591815.71222
  18880788.1824  -28555923.37447 -19447829.89663
 91  4 13  0 45 14.9940000  0  4G 2G15G13G 6
  19607961.1194  -21994550.63847 -17138560.43864
  22307721.8304   -5259941.95545  -4015996.03061
  19199982.408   -20465502.908 7 -15621276.85722
  18878785.1974  -28566451.87647 -19456033.91863
 91  4 13  0 45 29.9940000  0  4G 2G15G13G 6
  19608744.1744  -21990435.73848 -17135354.02164
  22309616.2834   -5249993.49945  -4008243.96861
  19192813.190   -20503176.079 7 -15650632.48922
  18876803.1904  -28576864.01747 -19464147.27163
 91  4 13  0 45 44.9940000  0  4G 2G15G13G 6
  19609536.7994  -21986274.00948 -17132111.11564
  22311534.033    -5239909.529 5  -4000386.26721
  19185672.963   -20540710.756 7 -15679880.21522
  18874844.9554  -28587156.49347 -19472167.37763
 91  4 13  0 45 59.9940000  0  4G 2G15G13G 6
  19610335.9324  -21982067.77648 -17128833.53464
  22313478.315    -5229692.250 5  -3992424.71721
  19178553.549   -20578108.994 7 -15709021.62422
  18872907.8074  -28597331.56447 -19480095.99963
 91  4 13  0 46 14.9940000  0  4G 2G15G13G 6
  19611147.3384  -21977814.11548 -17125518.99864
  22315447.4324   -5219338.78645  -3984357.09361
  19171464.838   -20615367.861 7 -15738054.43322
  18870994.8934  -28607385.97047 -19487930.59663
 91  4 13  0 46 29.9940000  0  4G 2G15G13G 6
  19611962.8934  -21973518.27448 -17122171.59264
  22317442.650    -5208854.536 5  -3976187.56521
  19164400.869   -20652492.513 7 -15766982.65722
  18869104.1824  -28617324.81447 -19495675.15163
 91  4 13  0 46 44.9940000  0  4G 2G15G13G 6
  19612790.7524  -21969174.82048 -17118787.08564
  22319466.174    -5198234.313 5  -3967912.10021
  19157361.822   -20689477.084 7 -15795801.72522
  18867235.5884  -28627142.41247 -19503325.22463
 91  4 13  0 46 59.9940000  0  4G 2G15G13G 6
  19613626.1114  -21964782.75548 -17115364.70364
  22321511.7604   -5187477.13545  -3959529.85161
  19150349.393   -20726320.635 7 -15824510.91322
  18865390.6354  -28636837.49247 -19510879.82963
 91  4 13  0 47 14.9940000  0  4G 2G15G13G 6
  19614469.0494  -21960350.81248 -17111911.24064
  22323584.783    -5176591.915 5  -3951047.81221
  19143364.182   -20763031.688 7 -15853116.85522
  18863567.5104  -28646418.70447 -19518345.70763
 91  4 13  0 47 29.9940000  0  4G 2G15G13G 6
  19615321.5494  -21955874.57148 -17108423.26064
  22325677.119    -5165574.632 5  -3942462.91521
  19136405.002   -20799606.132 7 -15881616.34722
  18861767.0574  -28655881.55447 -19525719.35563
 91  4 13  0 47 44.9940000  0  4G 2G15G13G 6
  19616181.4794  -21951354.48348 -17104901.11764
  22327799.377    -5154425.821 5  -3933775.55921
  19129470.697   -20836043.952 7 -15910009.38722
  18859988.4944  -28665226.34047 -19533001.00463
 91  4 13  0 47 59.9940000  0  4G 2G15G13G 6
  19617050.7214  -21946787.87448 -17101342.72464
  22329950.2134   -5143142.76545  -3924983.58661
  19122562.291   -20872342.536 7 -15938293.92222
  18858233.4634  -28674450.15947 -19540188.39063
 91  4 13  0 48 14.9940000  0  4G 2G15G13G 6
  19617927.2364  -21942180.96448 -17097752.92564
  22332117.5254   -5131731.91245  -3916092.00361
  19115680.869   -20908507.927 7 -15966474.66722
  18856499.9794  -28683559.13847 -19547286.28663
 91  4 13  0 48 29.9940000  0  4G 2G15G13G 6
  19618812.3074  -21937530.19148 -17094128.94564
  22334316.3614   -5120190.12745  -3907098.41361
  19108825.229   -20944536.591 7 -15994548.87922
  18854788.7214  -28692549.57147 -19554291.81463
 91  4 13  0 48 44.9940000  0  4G 2G15G13G 6
  19619706.6114  -21932832.28848 -17090468.24564
  22336533.135    -5108514.310 5  -3898000.37821
  19101997.213   -20980424.982 7 -16022513.78322
  18853101.3854  -28701417.87847 -19561202.17963
 91  4 13  0 48 59.9940000  0  4G 2G15G13G 6
  19620609.5804  -21928090.06148 -17086773.01264
  22338784.658    -5096707.234 5  -3888800.01721
  19095191.900   -21016175.853 7 -16050371.53122
  18851436.7604  -28710166.83247 -19568019.53863
 91  4 13  0 49 14.9940000  0  4G 2G15G13G 6
  19621519.6434  -21923299.18548 -17083039.86664
  22341057.0964   -5084764.53945  -3879494.01961
  19088415.486   -21051784.884 7 -16078118.75122
  18849795.7054  -28718791.71547 -19574740.21863
 91  4 13  0 49 29.9940000  0  4G 2G15G13G 6
  19622438.2134  -21918473.98748 -17079279.97364
  22343350.6274   -5072700.75945  -3870093.71961
  19081663.924   -21087266.234 7 -16105766.48822
  18848175.1044  -28727306.81947 -19581375.35863
 91  4 13  0 49 44.9940000  0  4G 2G15G13G 6
  19623365.4634  -21913603.37048 -17075484.68564
  22345672.815    -5060505.162 5  -3860590.68721
  19074939.971   -21122608.717 7 -16133306.00722
  18846576.9324  -28735700.77547 -19587916.10463
 91  4 13  0 49 59.9940000  0  4G 2G15G13G 6
  19624300.9404  -21908689.86048 -17071655.98064
  22348020.4164   -5048180.44145  -3850987.01561
  19068238.674   -21157814.843 7 -16160739.28322
  18845003.9084  -28743976.15947 -19594364.44963
 91  4 13  0 50 14.9940000  0  4G 2G15G13G 6
  19625245.3464  -21903726.60148 -17067788.50164
  22350390.963    -5035719.897 5  -3841277.49421
  19061566.822   -21192877.955 7 -16188061.12122
  18843451.6974  -28752126.04447 -19600715.01263
 91  4 13  0 50 29.9940000  0  4G 2G15G13G 6
  19626197.7524  -21898724.14948 -17063890.48764
  22352784.846    -5023134.369 5  -3831470.57721
  19054919.229   -21227808.438 7 -16215279.60222
  18841923.3074  -28760160.81847 -19606975.87863
 91  4 13  0 50 44.9940000  0  4G 2G15G13G 6
  19627158.4944  -21893671.71348 -17059953.52664
  22355206.0184   -5010413.29745  -3821558.03961
  19048300.2684  -21262595.29447 -16242386.17562
  18840418.9864  -28768069.38547 -19613138.40163
 91  4 13  0 50 59.9940000  0  4G 2G15G13G 6
  19628127.9404  -21888579.23148 -17055985.35664
  22357648.174    -4997566.806 5  -3811547.80221
  19041705.690   -21297248.280 7 -16269388.43322
  18838935.9864  -28775861.57647 -19619210.24163
 91  4 13  0 51 14.9940000  0  4G 2G15G13G 6
  19629105.3464  -21883441.49548 -17051981.92564
  22360118.6194   -4984589.61545  -3801435.74061
  19035137.775   -21331762.297 7 -16296282.40022
  18837475.7294  -28783531.88847 -19625187.11163
 91  4 13  0 51 29.9940000  0  4G 2G15G13G 6
  19630091.1274  -21878259.90748 -17047944.32964
  22362613.9474   -4971483.27345  -3791223.04261
  19028595.721   -21366138.594 7 -16323069.05022
  18836038.8694  -28791081.76447 -19631070.13163
 91  4 13  0 51 44.9940000  0  4G 2G15G13G 6
  19631085.1974  -21873031.86947 -17043870.53364
  22365131.205    -4958245.318 5  -3780907.72421
  19022081.565   -21400374.305 7 -16349746.15522
  18834625.7994  -28798508.26847 -19636857.02363
 91  4 13  0 51 59.9940000  0  4G 2G15G13G 6
  19632090.8464  -21867753.47048 -17039757.49764
  22367676.4084   -4944871.89045  -3770486.81661
  19015594.533   -21434465.449 7 -16376310.61222
  18833236.5654  -28805807.20147 -19642544.50763
 91  4 13  0 52 14.9940000  0  4G 2G15G13G 6
  19633101.9634  -21862434.06247 -17035612.50664
  22370246.4794   -4931372.76645  -3759968.01261
  19009133.6354  -21468421.47147 -16402769.77762
  18831870.0104  -28812988.12447 -19648140.03063
 91  4 13  0 52 29.9940000  0  4G 2G15G13G 6
  19634122.7444  -21857071.22447 -17031433.67464
  22372838.9554   -4917745.91045  -3749349.73261
  19002695.752   -21502239.916 7 -16429121.73822
  18830527.4084  -28820048.40747 -19653641.54863
 91  4 13  0 52 44.9940000  0  4G 2G15G13G 6
  19635151.0804  -21851664.57447 -17027220.70064
  22375455.111    -4903990.964 5  -3738631.64821
  18996288.221   -21535920.392 7 -16455366.19422
  18829206.6504  -28826987.45047 -19659048.59263
 91  4 13  0 52 59.9940000  0  4G 2G15G13G 6
  19636189.8774  -21846208.81747 -17022969.46364
  22378099.479    -4890103.027 5  -3727809.88221
  18989905.8224  -21569457.48447 -16481498.92462
  18827909.9944  -28833799.60847 -19664356.76363
 91  4 13  0 53 14.9940000  0  4G 2G15G13G 6
  19637237.6194  -21840707.47947 -17018682.71064
  22380765.7604   -4876085.41445  -3716887.03161
  18983549.861   -21602854.640 7 -16507522.61122
  18826637.7604  -28840488.53747 -19669568.91363
 91  4 13  0 53 29.9940000  0  4G 2G15G13G 6
  19638292.0964  -21835167.37548 -17014365.74764
  22383457.7444   -4861945.08245  -3705868.52161
  18977219.986   -21636118.583 7 -16533442.49722
  18825385.9554  -28847060.85447 -19674690.19963
 91  4 13  0 53 44.9940000  0  4G 2G15G13G 6
  19639352.4794  -21829583.56847 -17010014.73564
  22386170.650    -4847677.557 5  -3694750.99721
  18970916.7914  -21669244.30447 -16559254.68162
  18824159.7444  -28853511.43747 -19679716.62463
 91  4 13  0 53 59.9940000  0  4G 2G15G13G 6
  19640424.6354  -21823951.37047 -17005626.01764
  22388910.2364   -4833278.28945  -3683530.81861
  18964640.1194  -21702227.29547 -16584955.64462
  18822955.0724  -28859835.45347 -19684644.42563
 91  4 13  0 54 14.9940000  0  4G 2G15G13G 6
  19641508.0884  -21818267.65147 -17001197.15164
  22391680.3154   -4818744.35345  -3672205.68261
  18958392.4554  -21735064.23147 -16610542.79762
  18821776.7294  -28866029.66947 -19689471.09163
 91  4 13  0 54 29.9940000  0  4G 2G15G13G 6
  19642597.244   -21812540.247 7 -16996734.24824
  22394472.0804   -4804083.72645  -3660781.80061
  18952169.0654  -21767762.82247 -16636022.15062
  18820621.0104  -28872101.75347 -19694202.58963
 91  4 13  0 54 44.9940000  0  4G 2G15G13G 6
  19643694.8384  -21806768.37247 -16992236.69164
  22397283.635    -4789295.918 5  -3649258.82021
  18945973.4084  -21800322.12647 -16661392.96962
  18819489.1114  -28878050.78647 -19698838.19763
 91  4 13  0 54 59.9940000  0  3G 2G13G 6
  19644802.7134  -21800951.25547 -16987703.88364
  18939804.635   -21832741.407 7 -16686654.67322
  18818381.0254  -28883875.96747 -19703377.29963
 91  4 13  0 55 14.9940000  0  3G 2G13G 6
  19645916.947   -21795094.359 7 -16983140.08624
  18933660.549   -21865026.348 7 -16711811.70322
  18817294.4944  -28889582.53347 -19707823.97363
 91  4 13  0 55 29.9940000  0  3G 2G13G 6
  19647038.6584  -21789192.81147 -16978541.48664
  18927542.6664  -21897171.91147 -16736860.12562
  18816232.0654  -28895165.45147 -19712174.29863
 91  4 13  0 55 44.9940000  0  3G 2G13G 6
  19648171.5184  -21783245.92447 -16973907.56364
  18921453.3854  -21929177.14547 -16761799.20262
  18815193.7364  -28900623.94647 -19716427.66763
 91  4 13  0 55 59.9940000  0  3G 2G13G 6
  19649312.400   -21777249.036 7 -16969234.67224
  18915390.4714  -21961037.15047 -16786625.11062
  18814181.1274  -28905953.05747 -19720580.21963
 91  4 13  0 56 14.9940000  0  3G 2G13G 6
  19650463.369   -21771206.195 7 -16964525.98124
  18909353.4864  -21992756.13647 -16811341.14062
  18813189.0574  -28911156.84847 -19724635.12463
 91  4 13  0 56 29.9940000  0  3G 2G13G 6
  19651622.260   -21765108.699 7 -16959774.70424
  18903346.3614  -22024325.77347 -16835940.79162
  18812224.6824  -28916226.56247 -19728585.54063
 91  4 13  0 56 44.9940000  0  3G 2G13G 6
  19652791.650   -21758966.332 7 -16954988.46024
  18897365.7604  -22055755.55047 -16860431.46262
  18811284.9084  -28921171.52447 -19732438.75563
 91  4 13  0 56 59.9940000  0  3G 2G13G 6
  19653968.588   -21752779.820 7 -16950167.81724
  18891410.0254  -22087046.35447 -16884813.84162
  18810366.8934  -28925992.66547 -19736195.49163
 91  4 13  0 57 14.9940000  0  3G 2G13G 6
  19655153.346   -21746555.398 7 -16945317.62824
  18885482.6664  -22118204.10447 -16909092.54162
  18809470.9244  -28930696.14747 -19739860.54363
 91  4 13  0 57 29.9940000  0  3G 2G13G 6
  19656345.143   -21740288.689 7 -16940434.49024
  18879578.5574  -22149224.56747 -16933264.26162
  18808599.2684  -28935277.28447 -19743430.26263
 91  4 13  0 57 44.9940000  0  3G 2G13G 6
  19657547.3154  -21733971.55147 -16935512.05964
  18873703.4944  -22180099.71747 -16957322.75762
  18807752.838   -28939727.994 7 -19746898.35923
 91  4 13  0 57 59.9940000  0  3G 2G13G 6
  19658758.611   -21727610.227 7 -16930555.19824
  18867854.3774  -22210835.51647 -16981272.66262
  18806929.7444  -28944054.32247 -19750269.53363
 91  4 13  0 58 14.9940000  0  3G 2G13G 6
  19659976.4714  -21721203.97147 -16925563.31864
  18862032.9634  -22241431.22747 -17005113.41562
  18806129.0884  -28948255.19147 -19753542.94263
 91  4 13  0 58 29.9940000  0  3G 2G13G 6
  19661204.924   -21714749.822 7 -16920534.12924
  18856237.6044  -22271883.90747 -17028842.71362
  18805355.3154  -28952327.87147 -19756716.46363
 91  4 13  0 58 44.9940000  0  3G 2G13G 6
  19662442.9004  -21708252.41447 -16915471.22364
  18850468.8774  -22302198.19647 -17052464.17162
  18804603.713   -28956276.669 7 -19759793.46023
 91  4 13  0 58 59.9940000  0  3G 2G13G 6
  19663687.3854  -21701705.85447 -16910370.01364
  18844727.4474  -22332368.03447 -17075973.07562
  18803876.3384  -28960095.55047 -19762769.21963
 91  4 13  0 59 14.9940000  0  3G 2G13G 6
  19664944.541   -21695112.240 7 -16905232.14624
  18839012.6434  -22362395.59047 -17099371.10862
  18803174.4474  -28963786.56547 -19765645.33463
 91  4 13  0 59 29.9940000  0  3G 2G13G 6
  19666206.127   -21688474.928 7 -16900060.22624
  18833325.3934  -22392284.12147 -17122660.81562
  18802495.7754  -28967352.83947 -19768424.25263
 91  4 13  0 59 44.9940000  0  3G 2G13G 6
  19667478.2364  -21681793.83047 -16894854.18864
  18827662.9714  -22422033.67747 -17145842.22262
  18801841.0964  -28970794.29947 -19771105.91263
 91  4 13  0 59 59.9940000  0  3G 2G13G 6
  19668757.5334  -21675066.01347 -16889611.73863
  18822030.6974  -22451641.24247 -17168912.99162
  18801209.2754  -28974107.89247 -19773687.92863
 91  4 13  1  0 14.9940000  0  3G 2G13G 6
  19670045.8614  -21668292.56847 -16884333.73764
  18816422.5884  -22481107.83447 -17191873.90962
  18800604.4084  -28977294.52647 -19776171.02463
 91  4 13  1  0 29.9940000  0  3G 2G13G 6
  19671345.3544  -21661473.38047 -16879020.09664
  18810842.5654  -22510433.39047 -17214724.93162
  18800021.205   -28980353.990 7 -19778555.03523
 91  4 13  1  0 44.9940000  0  3G 2G13G 6
  19672650.2364  -21654610.04747 -16873672.04564
  18805287.8934  -22539619.48847 -17237467.28562
  18799462.7054  -28983287.94547 -19780841.23463
 91  4 13  1  0 59.9940000  0  3G 2G13G 6
  19673965.1354  -21647702.80347 -16868289.79164
  18799761.3304  -22568666.42047 -17260101.19662
  18798929.7524  -28986096.55847 -19783029.76963
 91  4 13  1  1 14.9940000  0  3G 2G13G 6
  19675288.2834  -21640751.28647 -16862873.03564
  18794259.4944  -22597573.66847 -17282626.26762
  18798419.0804  -28988779.17047 -19785120.11763
 91  4 13  1  1 29.9940000  0  3G 2G13G 6
  19676618.6194  -21633761.88247 -16857426.75464
  18788785.1354  -22626347.91547 -17305047.69862
  18797930.5024  -28991342.00647 -19787117.13763
 91  4 13  1  1 44.9940000  0  3G 2G13G 6
  19677956.6584  -21626722.22147 -16851941.30764
  18783336.8224  -22654976.56747 -17327355.68262
  18797468.6664  -28993772.93047 -19789011.35863
 91  4 13  1  1 59.9940000  0  3G 2G13G 6
  19679305.1194  -21619635.83547 -16846419.45664
  18777916.2364  -22683463.40447 -17349553.15762
  18797031.1584  -28996075.18347 -19790805.32363
 91  4 13  1  2 14.9940000  0  3G 2G13G 6
  19680661.197   -21612506.289 7 -16840863.97623
  18772520.7604  -22711812.01347 -17371642.92462
  18796616.9864  -28998252.16947 -19792501.68363
 91  4 13  1  2 29.9940000  0  3G 2G13G 6
  19682028.6824  -21605326.66048 -16835269.47264
  18767153.8224  -22740015.21647 -17393619.38562
  18796227.4944  -29000296.90847 -19794094.99163
 91  4 13  1  2 44.9940000  0  3G 2G13G 6
  19683402.4714  -21598100.47447 -16829638.67663
  18761814.6824  -22768076.57947 -17415485.33062
  18795862.9324  -29002212.81447 -19795587.90763
 91  4 13  1  2 59.9940000  0  3G 2G13G 6
  19684789.0254  -21590821.43548 -16823966.70564
  18756502.3384  -22795989.83147 -17437235.85162
  18795524.2364  -29003993.53747 -19796975.48063
 91  4 13  1  3 14.9940000  0  3G 2G13G 6
  19686183.0884  -21583496.94747 -16818259.31464
  18751216.713   -22823762.364 7 -17458876.73322
  18795207.8464  -29005646.37547 -19798263.40563
 91  4 13  1  3 29.9940000  0  3G 2G13G 6
  19687585.8934  -21576125.82747 -16812515.58963
  18745958.588   -22851392.784 7 -17480406.87422
  18794918.0024  -29007169.95447 -19799450.61163
 91  4 13  1  3 44.9940000  0  3G 2G13G 6
  19688997.2524  -21568706.96547 -16806734.66763
  18740729.150   -22878880.162 7 -17501825.55222
  18794653.7834  -29008563.13347 -19800536.20663
 91  4 13  1  3 59.9940000  0  3G 2G13G 6
  19690417.7294  -21561241.40247 -16800917.35064
  18735524.9714  -22906225.56247 -17523133.60162
  18794413.1584  -29009826.87347 -19801520.94363
 91  4 13  1  4 14.9940000  0  3G 2G13G 6
  19691847.7524  -21553730.60247 -16795064.78863
  18730348.6824  -22933430.53147 -17544332.22362
  18794196.2754  -29010962.44347 -19802405.80763
 91  4 13  1  4 29.9940000  0  3G 2G13G 6
  19693283.8544  -21546178.69647 -16789180.19263
  18725196.7294  -22960499.00247 -17565424.48462
  18794003.8224  -29011973.94047 -19803193.98163
 91  4 13  1  4 44.9940000  0  3G 2G13G 6
  19694732.0724  -21538575.56647 -16783255.68263
  18720073.268   -22987421.374 7 -17586402.90022
  18793836.3464  -29012851.29347 -19803877.62663
 91  4 13  1  4 59.9940000  0  3G 2G13G 6
  19696186.244   -21530923.622 7 -16777293.14723
  18714976.7604  -23014199.94647 -17607269.26462
  18793698.7444  -29013596.71947 -19804458.47063
